[[[{"header":{"parameterUnit":"kt","parameterCategory":2,"dx":1,"dy":1,"la1":29.285339999999998,"la2":30.599998999999997,"lo1":-89.70041500000002,"lo2":-87.6738589999976,"nx":112,"ny":82,"refTime":"2022-10-28T00:00:00:Z","depth":0,"parameterNumber":1,"parameterNumberName":"U-component_of_WINDS"},"data":[6.9244,6.3753,0.0,5.8065,5.7802,0.0,5.5401,5.5007,5.4415,5.2311,5.1883,5.1883,5.1883,5.1883,5.1883,5.1883,5.1883,5.116,0.0,4.8858,4.9615,5.1653,5.1883,5.0916,4.8284,0.0,0.0,0.0,0.0,0.0,0.0,0.0,7.1341,7.646,7.6635,7.6635,7.6635,7.6635,7.6635,7.6635,7.6635,7.6635,7.6635,7.6635,7.6635,7.6635,7.6635,7.6635,7.6751,7.8583,8.1259,8.4225,8.4225,8.4225,8.4225,8.4225,8.4225,8.4225,8.4225,8.4225,8.4225,8.4225,8.4225,8.4225,8.4225,8.4225,8.4225,8.4225,8.4225,8.4225,8.4225,8.4225,8.4225,8.4225,8.4225,8.4225,8.4225,8.4225,8.4225,8.4225,8.4225,8.2363,7.6456,7.5595,7.4427,7.1199,7.0674,7.0674,7.0674,7.0674,7.0674,7.0674,7.0674,5.1492,0.4027,0.0,0.0,0.0,0.0,0.0,0.0,0.0,0.0,0.0,0.0,0.0,0.0,0.0,0.0,0.0,0.0,0.0,0.0,0.0,5.2837,5.6782,5.7703,5.6684,5.2771,5.1883,5.1883,5.1883,5.1883,5.1883,5.1883,5.1883,5.1883,5.1883,5.1883,5.1883,0.0,5.1883,5.1355,5.0014,5.1052,5.1655,5.1153,0.0,0.0,0.0,0.0,0.0,0.0,7.0643,7.3145,7.6518,7.6635,7.6635,7.6635,7.6635,7.6635,7.6635,7.6635,7.6635,7.6635,7.6635,7.6635,7.6635,7.6635,7.6635,7.6635,7.6635,7.8612,8.1841,8.3556,8.4225,8.4225,8.4225,8.4225,8.4225,8.4225,8.4225,8.4225,8.4225,8.4225,8.4225,8.4225,8.4225,8.4225,8.4225,8.4225,8.4225,8.4225,8.4225,8.4225,8.4225,8.4225,8.4225,8.4225,8.4225,8.3236,8.0161,7.967,7.7787,7.1696,7.0674,7.0674,7.0674,7.0674,7.0674,7.0674,7.0674,7.0674,7.0674,5.6324,3.4092,0.266,0.0,0.0,0.0,0.0,0.0,0.0,0.0,0.0,0.0,0.0,0.0,0.0,0.0,0.0,0.0,0.0,0.0,5.1883,5.1883,5.4612,6.5857,6.0202,5.1883,5.1883,5.1883,5.1883,5.1883,5.1883,5.1883,5.1883,5.1883,5.1883,5.1883,5.1719,0.0,0.0,5.1818,5.0361,4.6789,4.9835,0.0,0.0,0.0,0.0,0.0,0.0,0.0,6.9015,7.3843,7.6635,7.6635,7.6635,7.6635,7.6635,7.6635,7.6635,7.6635,7.6635,7.6635,7.6635,7.6635,7.6635,7.6635,7.6635,7.6635,7.6635,7.6635,7.6635,7.7129,8.2248,8.4225,8.4225,8.4225,8.4225,8.4225,8.4225,8.4225,8.4225,8.4225,8.4225,8.4225,8.4225,8.4225,8.4225,8.4225,8.4225,8.4225,8.4225,8.4225,8.4225,8.4225,8.4225,8.4225,8.4225,8.3916,8.1189,7.2369,7.0674,7.0674,7.0674,7.0674,7.0674,7.0674,7.0674,7.0674,7.0674,7.0674,7.0674,7.0674,2.826,0.0,0.0,0.0,0.0,0.0,0.0,0.0,0.0,0.0,0.0,0.0,0.0,0.0,0.0,0.0,0.0,0.0,0.0,0.0,5.1883,5.1883,5.264,5.5862,5.4251,5.1883,5.1883,5.1883,5.1883,5.1883,5.1883,0.0,0.0,0.0,5.1883,5.1883,0.0,4.7149,5.1292,4.9406,4.9758,5.5879,0.0,0.0,0.0,0.0,0.0,0.0,0.0,6.9015,6.9015,7.3843,7.6635,7.6635,7.6635,7.6635,7.6635,7.6635,7.6635,7.6635,7.6635,7.6635,7.6635,7.6635,7.6635,7.6635,7.6635,7.6635,7.6635,7.6635,7.6635,7.7129,8.2248,8.4225,8.4225,8.4225,8.4225,8.4225,8.4225,8.4225,8.4225,8.4225,8.4225,8.4225,8.4225,8.4225,8.4225,8.4225,8.4225,8.4225,8.4225,8.4225,8.4225,8.4225,8.4225,8.4225,8.4225,7.8983,7.3747,7.1199,7.0674,7.0674,7.0674,7.0674,7.0674,7.0674,7.0674,7.0674,7.0674,7.0674,7.0674,7.0674,2.826,0.0,0.0,0.0,0.0,0.0,0.0,0.0,0.0,0.0,0.0,0.0,0.0,0.0,0.0,0.0,0.0,0.0,0.0,0.0,5.2541,5.1883,5.1292,4.8924,5.0108,5.1883,5.1883,5.1883,5.1883,5.1883,0.0,0.0,0.0,0.0,0.0,0.0,4.9089,4.9812,5.7999,5.2971,5.2329,6.2986,0.0,0.0,0.0,0.0,0.0,0.0,7.0702,6.9945,7.2098,7.5006,7.6635,7.6635,7.6635,7.6635,7.6635,7.6635,7.6635,7.6635,7.6635,7.6635,7.6635,7.6635,7.6635,7.6635,7.6635,7.6635,7.6635,7.6635,7.6635,7.6925,7.9892,8.1026,8.1317,8.344,8.4225,8.4225,8.4225,8.4225,8.4225,8.4225,8.4225,8.4225,8.4225,8.4225,8.4225,8.4225,8.4225,8.4225,8.4225,8.4225,8.4225,8.4225,8.4225,8.4225,8.4225,7.7111,7.0674,7.0674,7.0674,7.0674,7.0674,7.0674,7.0674,7.0674,7.0674,7.0674,7.0674,7.0674,6.306,4.3146,1.6399,0.0,0.0,0.0,0.0,0.0,0.0,0.0,0.0,0.0,0.0,0.0,0.0,0.0,0.0,0.0,0.0,0.0,0.0,0.0,5.2344,5.093,4.9713,4.4617,4.7675,5.1883,5.1883,0.0,5.1883,5.1883,0.0,5.1883,5.1883,0.0,0.0,5.1883,5.1883,5.573,6.6712,5.9448,5.7015,6.7908,6.9835,0.0,0.0,6.631,6.9015,6.9015,6.9567,7.1836,7.6402,7.6635,7.6635,7.6635,7.6635,7.6635,7.6635,7.6635,7.6635,7.6635,7.6635,7.6635,7.6635,7.6635,7.6635,7.6635,7.6635,7.6635,7.6635,7.6635,7.6635,7.6635,7.6635,7.6635,7.7245,8.2364,8.4225,8.4225,8.4225,8.4225,8.4225,8.4225,8.4225,8.4225,8.4225,8.4225,8.4225,8.4225,8.4225,8.4225,8.4225,8.4225,8.4225,8.4225,8.4225,8.3887,8.2865,7.6456,7.0674,7.0674,7.0674,7.0674,7.0674,7.0674,7.0674,7.0674,7.0674,7.0674,7.0674,7.0674,5.2517,0.5052,0.0,0.0,0.0,0.0,0.0,0.0,0.0,0.0,0.0,0.0,0.0,0.0,0.0,0.0,0.0,0.0,0.0,0.0,0.0,0.0,4.5308,4.5012,4.4749,4.3631,4.7675,5.1883,0.0,0.0,0.0,5.1883,5.1883,5.1883,5.1883,5.1883,5.1883,5.1883,5.1883,5.4316,6.132,6.0675,0.0,6.8388,7.3386,0.0,6.8087,6.8433,6.9015,6.9015,7.2825,7.5588,7.6576,7.6635,7.6635,7.6635,7.6635,7.6635,7.6635,7.6635,7.6635,7.6635,7.6635,7.6635,7.6635,7.6635,7.6635,7.6635,7.6635,7.6635,7.6635,7.6635,7.6635,7.6635,7.6635,7.6635,7.7245,8.2364,8.4225,8.4225,8.4225,8.4225,8.4225,8.4225,8.4225,8.4225,8.4225,8.4225,8.4225,8.4225,8.4225,8.4225,8.4225,8.4225,8.4225,8.4225,8.4225,8.2204,7.4926,7.2058,7.0674,7.0674,7.0674,7.0674,7.0674,7.0674,7.0674,7.0674,7.0674,7.0674,7.0674,7.0674,5.2517,0.5052,0.0,0.0,0.0,0.0,0.0,0.0,0.0,0.0,0.0,0.0,0.0,0.0,0.0,0.0,0.0,0.0,0.0,0.0,0.0,0.0,4.3368,4.3368,4.3368,4.3368,4.7675,0.0,0.0,5.6388,5.9774,5.6881,5.6289,5.6289,5.6289,5.6289,5.721,6.0103,5.8325,5.8481,6.4066,6.4997,6.6119,6.8772,7.1699,0.0,7.3457,7.0814,6.9015,6.9015,7.3726,7.6635,7.6635,7.6635,7.6635,7.6635,7.6635,7.6635,7.6635,7.6635,7.6635,7.6635,7.6635,7.6635,7.6635,7.6635,7.6635,7.6635,7.6635,7.6635,7.6635,7.6635,7.6635,7.6635,7.6635,7.6635,7.6925,7.9485,8.2044,8.4225,8.4225,8.4225,8.4225,8.4225,8.4225,8.4225,8.4225,8.4225,8.4225,8.4225,8.4225,8.4225,8.4225,8.4225,8.4225,8.4225,8.0677,7.6285,7.1696,7.0674,7.0674,7.0674,7.0674,7.0674,7.0674,7.0674,7.0674,7.0674,7.0674,7.0674,7.0674,4.9955,2.6185,0.2514,0.0,0.0,0.0,0.0,0.0,0.0,0.0,0.0,0.0,0.0,0.0,0.0,0.0,0.0,0.0,0.0,0.0,0.0,0.0,0.0,4.3368,4.3368,4.3368,4.3368,4.7675,0.0,5.1883,5.915,6.4542,5.9873,5.984,6.0991,6.2109,6.2306,6.3851,6.8487,6.4674,6.3111,6.8288,6.9015,6.9015,6.9015,6.9015,7.1324,7.7092,7.3345,7.0498,7.0498,7.4308,7.6635,7.6635,7.6635,7.6635,7.6635,7.6635,7.6635,7.6635,7.6635,7.6635,7.6635,7.6635,7.6635,7.6635,7.6635,7.6635,7.6635,7.6635,7.6635,7.6635,7.6635,7.6635,7.6635,7.6635,7.6635,7.6635,7.6635,7.9834,8.4225,8.4225,8.4225,8.4225,8.4225,8.4225,8.4225,8.4225,8.4225,8.4225,8.4225,8.4225,8.4225,8.4225,8.4225,8.4225,8.4225,7.8651,7.3392,7.3392,7.2058,7.1381,7.3061,7.2058,7.0674,7.0674,7.0674,7.0674,7.0674,7.2214,7.2728,7.104,2.9309,0.0,0.0,0.0,0.0,0.0,0.0,0.0,0.0,0.0,0.0,0.0,0.0,0.0,0.0,0.0,0.0,0.0,0.0,0.0,0.0,0.0,0.0,4.3368,4.3368,4.3368,4.3368,4.7675,0.0,5.1883,5.287,5.3626,5.3001,5.7013,6.2207,6.7337,6.829,6.8487,6.9145,6.4674,6.3111,6.8288,6.9015,6.9015,6.9015,6.9015,7.1018,7.6194,7.6147,7.5791,7.5791,7.6315,7.6635,7.6635,7.6635,7.6635,7.6635,7.6635,7.6635,7.6635,7.6635,7.6635,7.6635,7.6635,7.6635,7.6635,7.6635,7.6635,7.6635,7.6635,7.6635,7.6635,7.6635,7.6635,7.6635,7.6635,7.6635,7.6635,7.6635,7.9834,8.4225,8.4225,8.4225,8.4225,8.4225,8.4225,8.4225,8.4225,8.4225,8.4225,8.4225,8.4225,8.4225,8.4225,8.4225,8.4225,8.4225,8.3392,8.2707,8.2707,7.6456,7.3061,8.1189,7.6285,7.0674,7.0674,7.0674,7.0674,7.0674,7.7619,7.9834,7.1696,2.9309,0.0,0.0,0.0,0.0,0.0,0.0,0.0,0.0,0.0,0.0,0.0,0.0,0.0,0.0,0.0,0.0,0.0,0.0,0.0,0.0,0.0,0.0,4.0958,4.1839,4.4157,4.7478,0.0,0.0,5.1883,5.4547,5.7933,6.1287,6.395,6.6383,6.8783,6.6482,6.6416,7.3189,6.9497,6.6543,6.8724,6.9015,6.9015,6.9015,6.9015,7.1022,7.614,7.6635,7.6635,7.6635,7.6635,7.6635,7.6635,7.6635,7.6635,7.6635,7.6635,7.6635,7.6635,7.6635,7.6635,7.6635,7.6635,7.6635,7.6635,7.6635,7.6635,7.6635,7.6635,7.6635,7.6635,7.6635,7.6635,7.6635,7.6635,7.6635,7.6635,7.6635,7.7972,8.0212,8.3207,8.4225,8.4225,8.4225,8.4225,8.4225,8.4225,8.4225,8.4225,8.4225,8.4225,8.4225,8.4225,8.4225,8.4225,8.4225,8.4225,8.4225,8.4225,8.1189,7.967,8.3392,7.6968,7.0674,7.0674,7.5101,7.8651,7.8651,8.1698,7.0903,3.4238,1.2226,0.0,0.0,0.0,0.0,0.0,0.0,0.0,0.0,0.0,0.0,0.0,0.0,0.0,0.0,0.0,0.0,0.0,0.0,0.0,0.0,0.0,0.0,3.8974,0.0,0.0,0.0,0.0,0.0,5.3922,5.8821,6.4213,6.8389,6.9244,6.9737,7.1348,6.686,6.5721,7.4143,7.1796,6.9015,6.9015,6.9015,6.9015,6.9015,6.9015,7.1022,7.614,7.6635,7.6635,0.0,7.6635,7.6635,7.6635,7.6635,7.6635,7.6635,7.6635,7.6635,7.6635,7.6635,7.6635,7.6635,7.6635,7.6635,7.6635,7.6635,7.6635,7.6635,7.6635,7.6635,7.6635,7.6635,7.6635,7.6635,7.6635,7.6635,7.6635,7.6635,7.6635,7.7362,8.2451,8.4225,8.4225,8.4225,8.4225,8.4225,8.4225,8.4225,8.4225,8.4225,8.4225,8.4225,8.4225,8.4225,8.4225,8.4225,8.4225,8.4225,8.4225,8.4225,8.4225,8.4225,7.8983,7.4427,7.4427,7.9834,8.4225,8.4225,8.4225,6.3838,0.7271,0.0,0.0,0.0,0.0,0.0,0.0,0.0,0.0,0.0,0.0,0.0,0.0,0.0,0.0,0.0,0.0,0.0,0.0,0.0,0.0,0.0,0.0,0.0,0.0,0.0,0.0,4.5974,4.9038,5.3396,5.9084,6.4838,6.9013,6.9211,6.9244,7.0953,7.6609,7.2748,6.8887,6.9208,6.9112,6.9015,6.9015,6.9015,6.9015,6.9015,6.9015,7.1022,7.614,7.6635,7.6635,7.6635,7.6635,7.6635,7.6635,7.6635,7.6635,7.6635,7.6635,7.6635,7.6635,7.6635,7.6635,7.6635,7.6635,7.6635,7.6635,7.6635,7.6635,7.6635,7.6635,7.6635,7.6635,7.6635,7.6635,7.6635,7.6635,7.6635,7.6635,7.6635,7.6635,7.7362,8.2451,8.4225,8.4225,8.4225,8.4225,8.4225,8.4225,8.4225,8.4225,8.4225,8.4225,8.4225,8.4225,8.4225,8.4225,8.4225,8.4225,8.4225,8.4225,8.4225,8.4225,8.4225,8.3916,8.3732,8.3732,8.4071,8.4225,8.4225,8.4225,6.3838,0.7271,0.0,0.0,0.0,0.0,0.0,0.0,0.0,0.0,0.0,0.0,0.0,0.0,0.0,0.0,0.0,0.0,0.0,0.0,0.0,0.0,0.0,0.0,0.0,4.2404,4.4556,4.6552,4.9185,5.1467,5.5363,6.4272,6.7863,6.9244,6.9244,6.9126,7.0842,7.6871,7.3006,6.9015,6.9015,6.9015,6.9015,6.9015,6.9015,6.9015,6.9015,6.9015,7.1022,7.614,7.6635,7.6635,7.6635,7.6635,0.0,7.6635,7.6635,7.6635,7.6635,7.6635,7.6635,7.6635,7.6635,7.6635,7.6635,7.6635,7.6635,7.6635,7.6635,7.6635,7.6635,7.6635,7.6635,7.6635,7.6635,7.6635,7.6635,7.6635,7.6635,7.6635,7.6635,7.6635,7.7362,8.2451,8.4225,8.4225,8.4225,8.4225,8.4225,8.4225,8.4225,8.4225,8.4225,8.4225,8.4225,8.4225,8.4225,8.4225,8.4225,8.4225,8.4225,8.4225,8.4225,8.4225,8.4225,8.4225,8.4225,8.4225,8.7076,8.8181,8.4749,5.2292,2.1395,0.2443,0.0,0.0,0.0,0.0,0.0,0.0,0.0,0.0,0.0,0.0,0.0,0.0,0.0,0.0,0.0,0.0,0.0,0.0,0.0,0.0,0.0,0.0,0.0,4.4498,4.7231,4.9273,5.1922,5.4428,5.8152,6.4861,6.6356,6.7534,7.1509,7.0595,7.0114,7.4014,7.156,6.9015,6.9015,6.9015,6.9015,6.9015,6.9015,6.9015,6.9015,6.9015,7.1022,7.614,7.6635,7.6635,7.6635,7.6635,7.6635,7.6635,7.6635,7.6635,7.6635,7.6635,7.6635,7.6635,7.6635,7.6635,7.6635,7.6635,7.6635,7.6635,7.6635,7.6635,7.6635,7.6635,7.6635,7.6635,7.6635,7.6635,7.6635,7.6635,7.6635,7.6635,7.6635,7.6635,7.71,8.0386,8.2713,8.4225,8.4225,8.4225,8.4225,8.4225,8.4225,8.4225,8.4225,8.4225,8.4225,8.4225,8.4225,8.4225,8.4225,8.4225,8.4225,8.4225,8.4225,8.4225,8.4225,8.4225,8.4225,8.4225,8.6988,8.8064,8.472,3.618,0.0,0.0,0.0,0.0,0.0,0.0,0.0,0.0,0.0,0.0,0.0,0.0,0.0,0.0,0.0,0.0,0.0,0.0,0.0,0.0,0.0,0.0,0.0,0.0,0.0,4.4498,4.9645,5.3757,5.4019,5.7672,6.1195,6.1195,6.1399,6.4601,7.5323,7.2923,6.9015,6.9015,6.9015,6.9015,6.9015,6.9015,6.9015,6.9015,6.9015,6.9015,6.9015,6.9015,7.1022,7.614,7.6635,7.6635,7.6635,7.6635,7.6635,7.6635,7.6635,7.6635,7.6635,7.6635,7.6635,7.6635,7.6635,7.6635,7.6635,7.6635,7.6635,7.6635,7.6635,7.6635,7.6635,7.6635,7.6635,7.6635,7.6635,7.6635,7.6635,7.6635,7.6635,7.6635,7.6635,7.6635,7.6635,7.6635,7.995,8.4225,8.4225,8.4225,8.4225,8.4225,8.4225,8.4225,8.4225,8.4225,8.4225,8.4225,8.4225,8.4225,8.4225,8.4225,8.4225,8.4225,8.4225,8.4225,8.4225,8.4225,8.4225,8.4225,8.4225,8.3237,8.0299,3.4226,0.0,0.0,0.0,0.0,0.0,0.0,0.0,0.0,0.0,0.0,0.0,0.0,0.0,0.0,0.0,0.0,0.0,0.0,0.0,0.0,0.0,0.0,0.0,0.0,0.0,4.4498,4.9645,5.4531,5.837,6.0319,6.1195,6.1195,6.4303,6.7877,7.0755,7.002,6.9015,6.9015,6.9015,6.9015,6.9015,6.9015,6.9015,6.9015,6.9015,6.9015,6.9015,6.9015,7.1022,7.614,7.6635,7.6635,7.6635,7.6635,7.6635,7.6635,7.6635,7.6635,7.6635,7.6635,7.6635,7.6635,7.6635,7.6635,7.6635,7.6635,7.6635,7.6635,7.6635,7.6635,7.6635,7.6635,7.6635,7.6635,7.6635,7.6635,7.6635,7.6635,7.6635,7.6635,7.6635,7.6635,7.6635,7.6635,7.995,8.4225,8.4225,8.4225,8.4225,8.4225,8.4225,8.4225,8.4225,8.4225,8.4225,8.4225,8.4225,8.4225,8.4225,8.4225,8.4225,8.4225,8.4225,8.4225,8.4225,8.4225,8.4225,8.4225,8.4225,6.9945,2.7746,0.919,0.0,0.0,0.0,0.0,0.0,0.0,0.0,0.0,0.0,0.0,0.0,0.0,0.0,0.0,0.0,0.0,0.0,0.0,0.0,0.0,0.0,0.0,0.0,0.0,0.0,4.4498,4.9645,5.4851,5.9999,6.1195,6.1889,6.4187,6.6921,6.9015,6.9015,6.9015,6.9015,6.9015,6.9015,6.9015,6.9015,6.9015,6.9015,6.9015,6.9015,6.9015,6.9015,6.9015,7.1022,7.614,7.6635,7.6635,7.6635,7.6635,7.6635,7.6635,7.6635,7.6635,7.6635,7.6635,7.6635,7.6635,7.6635,7.6635,7.6635,7.6635,7.6635,7.6635,7.6635,7.6635,7.6635,7.6635,7.6635,7.6635,7.6635,7.6635,7.6635,7.6635,7.6635,7.6635,7.6635,7.6635,7.6635,7.6635,7.995,8.4225,8.4225,8.4225,8.4225,8.4225,8.4225,8.4225,8.4225,8.4225,8.4225,8.4225,8.4225,8.4225,8.4225,8.4225,8.4225,8.4225,8.4225,8.4225,8.4225,8.4225,8.4225,8.4225,8.4225,6.5059,0.8492,0.0,0.0,0.0,0.0,0.0,0.0,0.0,0.0,0.0,0.0,0.0,0.0,0.0,0.0,0.0,0.0,0.0,0.0,0.0,0.0,0.0,0.0,0.0,0.0,0.0,0.0,4.5515,5.0169,5.4851,5.9999,6.1195,6.2531,6.7851,6.9015,6.9015,6.9015,6.9015,6.9015,6.9015,6.9015,6.9015,6.9015,6.9015,6.9015,6.9015,6.9015,6.9015,6.9015,6.9015,7.1022,7.614,7.6635,7.6635,7.6635,7.6635,7.6635,7.6635,7.6635,7.6635,7.6635,7.6635,7.6635,7.6635,7.6635,7.6635,7.6635,7.6635,7.6635,7.6635,7.6635,7.6635,7.6635,7.6635,7.6635,7.6635,7.6635,7.6635,7.6635,7.6635,7.6635,7.6635,7.6635,7.6635,7.6635,7.6635,7.9514,8.3324,8.4022,8.4225,8.4225,8.4225,8.4225,8.4225,8.4225,8.4225,8.4225,8.4225,8.4225,8.4225,8.4225,8.3702,8.3207,8.3207,8.3207,8.3207,8.3207,8.376,8.4225,8.4225,7.7972,5.6364,0.7358,0.0,0.0,0.0,0.0,0.0,0.0,0.0,0.0,0.0,0.0,0.0,0.0,0.0,0.0,0.0,0.0,0.0,0.0,0.0,0.0,0.0,0.0,0.0,0.0,0.0,0.0,5.0867,5.2999,5.4851,5.9999,6.1195,6.2531,6.7851,6.9015,6.9015,6.9015,6.9015,6.9015,6.9015,6.9015,6.9015,6.9015,6.9015,6.9015,6.9015,6.9015,6.9015,6.9015,6.9015,7.1022,7.614,7.6635,7.6635,7.6635,7.6635,7.6635,7.6635,7.6635,7.6635,7.6635,7.6635,7.6635,7.6635,7.6635,7.6635,7.6635,7.6635,7.6635,7.6635,7.6635,7.6635,7.6635,7.6635,7.6635,7.6635,7.6635,7.6635,7.6635,7.6635,7.6635,7.6635,7.6635,7.6635,7.6635,7.6635,7.7216,7.8641,8.2858,8.4225,8.4225,8.4225,8.4225,8.4225,8.4225,8.4225,8.4225,8.4225,8.4225,8.4225,8.4225,8.0997,7.7943,7.7943,7.7943,7.7943,7.7943,8.1346,8.4225,8.4225,4.5486,1.1226,0.1454,0.0,0.0,0.0,0.0,0.0,0.0,0.0,0.0,0.0,0.0,0.0,0.0,0.0,0.0,0.0,0.0,0.0,0.0,0.0,0.0,0.0,0.0,0.0,0.0,0.0,0.0,5.2999,5.3699,5.4182,5.6654,5.9301,6.2531,6.7851,6.9015,6.9015,6.9015,6.9015,6.9015,6.9015,6.9015,6.9015,6.9015,6.9015,6.9015,6.9015,6.9015,6.9015,6.9015,6.9015,7.1022,7.614,7.6635,7.6635,7.6635,7.6635,7.6635,7.6635,7.6635,7.6635,7.6635,7.6635,7.6635,7.6635,7.6635,7.6635,7.6635,7.6635,7.6635,7.6635,7.6635,7.6635,7.6635,7.6635,7.6635,7.6635,7.6635,7.6635,7.6635,7.6635,7.6635,7.6635,7.6635,7.6635,7.6635,7.6635,7.6635,7.7042,7.9485,8.027,8.0764,8.344,8.4225,8.4225,8.4225,8.4225,8.4225,8.4225,8.2248,8.027,8.027,7.8409,7.6635,7.6635,7.6635,7.6635,7.6635,7.8612,8.027,8.027,5.7847,3.0857,0.4043,0.0,0.0,0.0,0.0,0.0,0.0,0.0,0.0,0.0,0.0,0.0,0.0,0.0,0.0,0.0,0.0,0.0,0.0,0.0,0.0,0.0,0.0,0.0,0.0,0.0,0.0,5.1943,5.1943,5.23,5.3407,5.7469,6.2355,6.6426,6.7357,6.7677,6.8782,6.9015,6.9015,6.9015,6.9015,6.9015,6.9015,6.9015,6.9015,6.9015,6.9015,6.9015,6.9015,6.9015,7.1022,7.614,7.6635,7.6635,7.6635,7.6635,7.6635,7.6635,7.6635,7.6635,7.6635,7.6635,7.6635,7.6635,7.6635,7.6635,0.0,7.6635,7.6635,7.6635,7.6635,7.6635,7.6635,7.6635,7.6635,7.6635,7.6635,7.6635,7.6635,7.6635,7.6635,7.6635,7.6635,7.6635,7.6635,7.6635,7.6635,7.6635,7.6635,7.6635,7.7362,8.1375,8.2597,8.2597,8.2597,8.2597,8.2597,8.2597,7.963,7.6635,7.6635,7.6635,7.6635,7.6635,7.6635,7.6635,7.6635,7.6635,7.6635,7.6635,6.7473,4.6475,0.6078,0.0,0.0,0.0,0.0,0.0,0.0,0.0,0.0,0.0,0.0,0.0,0.0,0.0,0.0,0.0,0.0,0.0,0.0,0.0,0.0,0.0,0.0,0.0,0.0,0.0,0.0,4.6562,4.6562,4.7697,5.2408,5.7469,6.1311,6.1889,6.1892,6.3344,6.8055,6.9015,6.9015,6.9015,6.9015,6.9015,6.9015,6.9015,6.9015,6.9015,6.9015,6.9015,6.9015,6.9015,7.1022,7.614,7.6635,7.6635,7.6635,7.6635,7.6635,7.6635,7.6635,7.6635,7.6635,7.6635,7.6635,7.6635,7.6635,7.6635,7.6635,7.6635,7.6635,7.6635,7.6635,7.6635,7.6635,7.6635,7.6635,7.6635,7.6635,7.6635,7.6635,7.6635,7.6635,7.6635,7.6635,7.6635,7.6635,7.6635,7.6635,7.6635,7.6635,7.6635,7.6722,7.7187,7.7333,7.7333,7.7333,7.7333,7.7333,7.7333,7.6984,7.6635,7.6635,7.6635,7.6635,7.6635,7.6635,7.6635,7.6635,7.6635,7.6635,7.6635,3.7896,0.538,0.0698,0.0,0.0,0.0,0.0,0.0,0.0,0.0,0.0,0.0,0.0,0.0,0.0,0.0,0.0,0.0,0.0,0.0,0.0,0.0,0.0,0.0,0.0,0.0,0.0,0.0,0.0,4.9674,5.0518,5.0285,4.9209,5.5171,6.1195,6.1195,6.1195,6.1776,6.3954,6.6834,6.9015,6.9015,6.9015,6.9015,6.9015,6.9015,6.9015,6.9015,6.9015,6.9015,6.9015,7.172,7.4395,7.6431,7.6635,7.6635,7.6635,7.6635,7.6635,7.6635,7.6635,7.6635,7.6635,7.6635,7.6635,7.6635,7.6635,7.6635,7.6635,7.6635,7.6635,7.6635,7.6635,7.6635,7.6635,7.6635,7.6635,7.6635,7.6635,7.6635,7.6635,7.6635,7.6635,7.6635,7.6635,7.6635,7.6635,7.6635,7.6635,7.6635,7.6635,7.6635,7.6635,7.6635,7.6635,7.6635,7.6635,7.6635,7.6635,7.6635,7.6635,7.6635,7.6635,7.6635,7.6635,7.6635,7.6635,7.6635,7.6635,7.6635,7.6635,7.6635,3.4028,0.0,0.0,0.0,0.0,0.0,0.0,0.0,0.0,0.0,0.0,0.0,0.0,0.0,0.0,0.0,0.0,0.0,0.0,0.0,0.0,0.0,0.0,0.0,0.0,0.0,0.0,0.0,0.0,4.9907,5.1303,5.0809,4.8686,5.2466,5.712,5.8661,6.0203,6.1195,6.1195,6.4187,6.7212,6.8724,6.7764,6.7241,6.8753,6.9015,6.9015,6.9015,6.9015,6.9015,6.9015,7.3523,7.6635,7.6635,7.6635,7.6635,7.6635,7.6635,7.6635,7.6635,7.6635,7.6635,7.6635,7.6635,7.6635,7.6635,7.6635,7.6635,7.6635,7.6635,7.6635,7.6635,7.6635,7.6635,7.6635,7.6635,7.6635,7.6635,7.6635,7.6635,7.6635,7.6635,7.6635,7.6635,7.6635,7.6635,7.6635,7.6635,7.6635,7.6635,7.6635,7.6635,7.6635,7.6635,7.6635,7.6635,7.6635,7.6635,7.6635,7.6635,7.6635,7.6635,7.6635,7.6635,7.6635,7.6635,7.6635,7.6635,7.6635,7.6635,7.1778,5.6509,2.3936,0.0,0.0,0.0,0.0,0.0,0.0,0.0,0.0,0.0,0.0,0.0,0.0,0.0,0.0,0.0,0.0,0.0,0.0,0.0,0.0,0.0,0.0,0.0,0.0,0.0,0.0,0.0,0.0,4.4556,4.5952,4.7173,5.2263,4.9733,4.7377,5.2591,5.7614,6.1195,6.1195,6.1224,6.2936,6.8084,6.4827,6.3053,6.8171,6.9015,6.9015,6.9015,6.9015,6.9015,6.9015,7.3523,7.6635,7.6635,7.6635,7.6635,7.6635,7.6635,7.6635,7.6635,7.6635,7.6635,7.6635,7.6635,7.6635,7.6635,7.6635,7.6635,7.6635,7.6635,7.6635,7.6635,7.6635,7.6635,7.6635,7.6635,7.6635,7.6635,7.6635,7.6635,7.6635,7.6635,7.6635,7.6635,7.6635,7.6635,7.6635,7.6635,7.6635,7.6635,7.6635,7.6635,7.6635,7.6635,7.6635,7.6635,7.6635,7.6635,7.6635,7.6635,7.6635,7.6635,7.6635,7.6635,7.6635,7.6635,7.6635,7.6635,7.6635,7.6635,6.0464,0.951,0.032,0.0,0.0,0.0,0.0,0.0,0.0,0.0,0.0,0.0,0.0,0.0,0.0,0.0,0.0,0.0,0.0,0.0,0.0,0.0,0.0,0.0,0.0,0.0,0.0,0.0,0.0,0.0,0.0,4.4498,4.5864,4.6272,4.79,4.7086,4.6301,4.7929,5.2321,5.7032,6.047,6.1195,6.0726,5.8807,5.9999,6.2995,6.8171,6.9015,6.9015,6.9015,6.9015,7.0294,7.3814,7.5646,7.6635,7.6635,7.6635,7.6635,7.6635,7.6635,7.6635,7.6635,7.6635,7.6635,7.6635,7.6635,7.6635,7.6635,7.6635,7.6635,7.6635,7.6635,7.6635,7.6635,7.6635,7.6635,7.6635,7.6635,7.6635,7.6635,7.6635,7.6635,7.6635,7.6635,7.6635,7.6635,7.6635,7.6635,7.6635,7.6635,7.6635,7.6635,7.6635,7.6635,7.6635,7.6635,7.6635,7.6635,7.6635,7.6635,7.6635,7.6635,7.6635,7.6635,7.6635,7.6635,7.6635,7.6635,7.6635,7.6635,7.6635,7.6635,6.0319,0.8841,0.0,0.0,0.0,0.0,0.0,0.0,0.0,0.0,0.0,0.0,0.0,0.0,0.0,0.0,0.0,0.0,0.0,0.0,0.0,0.0,0.0,0.0,0.0,0.0,0.0,0.0,0.0,0.0,0.0,4.403,4.5864,4.5864,4.5864,4.7348,4.8802,4.8802,5.1274,5.4502,5.773,5.8399,5.7411,5.4182,5.7818,6.2995,6.8171,6.9015,6.9015,6.9015,6.9015,7.0905,7.6024,7.6635,7.6635,7.6635,7.6635,7.6635,7.6635,7.6635,7.6635,7.6635,7.6635,7.6635,7.6635,7.6635,7.6635,7.6635,7.6635,7.6635,7.6635,7.6635,7.6635,7.6635,7.6635,7.6635,7.6635,7.6635,7.6635,7.6635,7.6635,7.6635,7.6635,7.6635,7.6635,7.6635,7.6635,7.6635,7.6635,7.6635,7.6635,7.6635,7.6635,7.6635,7.6635,7.6635,7.6635,7.6635,7.6635,7.6635,7.6635,7.6635,7.6635,7.6635,7.6635,7.6635,7.6635,7.6635,7.8147,7.8932,7.6984,6.093,3.7488,0.5497,0.0,0.0,0.0,0.0,0.0,0.0,0.0,0.0,0.0,0.0,0.0,0.0,0.0,0.0,0.0,0.0,0.0,0.0,0.0,0.0,0.0,0.0,0.0,0.0,0.0,0.0,0.0,0.0,0.0,4.342,4.5864,4.5981,4.633,4.9762,5.3116,5.3116,5.3116,5.3116,5.3116,5.3116,5.3232,5.3611,5.7498,6.2326,6.7124,6.852,6.9015,6.9015,6.9015,7.0905,7.6024,7.6635,7.6635,7.6635,7.6635,7.6635,7.6635,7.6635,7.6635,7.6635,7.6635,7.6635,7.6635,7.6635,7.6635,7.6635,7.6635,7.6635,7.6635,7.6635,7.6635,7.6635,7.6635,7.6635,7.6635,7.6635,7.6635,7.6635,7.6635,7.6635,7.6635,7.6635,7.6635,7.6635,7.6635,7.6635,7.6635,7.6635,7.6635,7.6635,7.6635,7.6635,7.6635,7.6635,7.6635,7.6635,7.6635,7.6635,7.6635,7.6635,7.6635,7.6635,7.6635,7.6635,7.6635,7.6635,8.0619,8.2742,7.7623,3.5133,0.0,0.0,0.0,0.0,0.0,0.0,0.0,0.0,0.0,0.0,0.0,0.0,0.0,0.0,0.0,0.0,0.0,0.0,0.0,0.0,0.0,0.0,0.0,0.0,0.0,0.0,0.0,0.0,0.0,0.0,0.0,4.342,4.5864,4.6824,5.078,4.9703,4.7668,4.7668,4.7668,4.7668,4.7668,4.7668,4.8889,5.2874,5.4589,5.5811,5.7003,6.3838,6.9015,6.9015,6.9015,7.0905,7.6024,7.6635,7.6635,7.6635,7.6635,7.6635,7.6635,7.6635,7.6635,7.6635,7.6635,7.6635,7.6635,7.6635,7.6635,7.6635,7.6635,7.6635,7.6635,7.6635,7.6635,7.6635,7.6635,7.6635,7.6635,7.6635,7.6635,7.6635,7.6635,7.6635,7.6635,7.6635,7.6635,7.6635,7.6635,7.6635,7.6635,7.6635,7.6635,7.6635,7.6635,7.6635,7.6635,7.6635,7.6635,7.6635,7.6635,7.6635,7.6635,7.6635,7.6635,7.6635,7.6635,7.6635,7.6635,7.6635,8.0619,8.2742,7.7623,3.5133,0.0,0.0,0.0,0.0,0.0,0.0,0.0,0.0,0.0,0.0,0.0,0.0,0.0,0.0,0.0,0.0,0.0,0.0,0.0,0.0,0.0,0.0,0.0,0.0,0.0,0.0,0.0,0.0,0.0,0.0,0.0,4.3846,4.5864,4.6562,4.9354,4.7929,4.5864,4.5864,4.5864,4.5864,4.5864,4.5864,4.6737,4.9529,5.2067,5.3699,5.3699,6.2267,6.8171,6.5816,6.5467,6.7357,7.2505,7.521,7.6635,7.6635,7.6635,7.6635,7.6635,7.6635,7.6635,7.6635,7.6635,7.6635,7.6635,7.6635,7.6635,7.6635,7.6635,7.6635,7.6635,7.6635,7.6635,7.6635,7.6635,7.6635,7.6635,0.0,7.6635,7.6635,7.6635,7.6635,7.6635,7.6635,7.6635,7.6635,7.6635,7.6635,7.6635,7.6635,7.6635,7.6635,7.6635,7.6635,7.6635,7.6635,7.6635,7.6635,7.6635,7.6635,7.6635,7.6635,7.6635,7.6635,7.6635,7.6635,7.6635,7.6635,7.8787,7.2941,4.6533,1.8991,0.0,0.0,0.0,0.0,0.0,0.0,0.0,0.0,0.0,0.0,0.0,0.0,0.0,0.0,0.0,0.0,0.0,0.0,0.0,0.0,0.0,0.0,0.0,0.0,0.0,0.0,0.0,0.0,0.0,0.0,0.0,4.356,4.4756,4.4957,4.5696,4.5864,4.5864,4.5864,4.5864,4.5864,4.5864,4.5864,4.5864,4.5864,4.9471,5.2766,5.3553,6.093,6.567,6.2878,6.2357,6.442,6.9567,7.3988,7.6635,7.6635,7.6635,7.6635,7.6635,7.6635,7.6635,7.6635,7.6635,7.6635,7.6635,7.6635,7.6635,7.6635,7.6635,7.6635,7.6635,7.6635,7.6635,7.6635,7.6635,7.6635,7.6635,0.0,7.6635,7.6635,7.6635,7.6635,7.6635,7.6635,7.6635,7.6635,7.6635,7.6635,7.6635,7.6635,7.6635,7.6635,7.6635,7.6635,7.6635,7.6635,7.6635,7.6635,7.6635,7.6635,7.6635,7.6635,7.6635,7.6635,7.6635,7.6635,7.6635,7.6635,7.6635,6.1424,0.9976,0.0,0.0,0.0,0.0,0.0,0.0,0.0,0.0,0.0,0.0,0.0,0.0,0.0,0.0,0.0,0.0,0.0,0.0,0.0,0.0,0.0,0.0,0.0,0.0,0.0,0.0,0.0,0.0,0.0,0.0,0.0,0.0,3.9426,3.9597,4.0608,4.4842,4.5864,4.5864,4.5864,4.5864,4.5864,4.5864,4.5864,4.5864,4.5864,4.6504,4.8482,5.2874,5.4938,5.8719,6.6717,6.7851,6.9742,7.4861,7.614,7.6635,7.6635,7.6635,7.6635,7.6635,7.6635,7.6635,7.6635,7.6635,7.6635,7.6635,7.6635,7.6635,7.6635,7.6635,7.6635,7.6635,7.6635,7.6635,7.6635,7.6635,7.6635,7.6635,0.0,0.0,7.6635,7.6635,7.6635,7.6635,7.6635,7.6635,7.6635,7.6635,7.6635,7.6635,7.6635,7.6635,7.6635,7.6635,7.6635,7.6635,7.6635,7.6635,7.6635,7.6635,7.6635,7.6635,7.6635,7.6635,7.6635,7.6635,7.6635,7.6635,7.6635,7.6635,6.1424,0.9976,0.0,0.0,0.0,0.0,0.0,0.0,0.0,0.0,0.0,0.0,0.0,0.0,0.0,0.0,0.0,0.0,0.0,0.0,0.0,0.0,0.0,0.0,0.0,0.0,0.0,0.0,0.0,0.0,0.0,0.0,0.0,0.0,3.5654,3.6728,3.9694,4.467,4.5864,4.5864,4.5864,4.5864,4.5864,4.5864,4.5864,4.5864,4.5864,4.5864,4.7551,5.2757,5.3699,5.5258,5.9999,6.5496,6.9887,7.2243,7.4948,7.6635,7.6635,7.6635,7.6635,7.6635,7.6635,7.6635,7.6635,7.6635,7.6635,7.6635,7.6635,7.6635,7.6635,7.6635,7.6635,7.6635,7.6635,7.6635,7.6635,7.6635,7.6635,7.6635,7.6635,7.6635,7.6635,7.6635,7.6635,7.6635,7.6635,7.6635,7.6635,7.6635,7.6635,7.6635,7.6635,7.6635,7.6635,7.6635,7.6635,7.6635,7.6635,7.6635,7.6635,7.6635,7.6635,7.6635,7.6635,7.6635,7.6635,7.6635,7.6635,7.6635,7.6635,5.4793,2.8182,0.4566,0.0,0.0,0.0,0.0,0.0,0.0,0.0,0.0,0.0,0.0,0.0,0.0,0.0,0.0,0.0,0.0,0.0,0.0,0.0,0.0,0.0,0.0,0.0,0.0,0.0,0.0,0.0,0.0,0.0,0.0,0.0,0.0,3.5626,0.0,3.9694,4.467,4.5864,4.5864,0.0,4.5864,4.5864,4.5864,4.5864,4.5864,4.5864,4.5864,4.7551,5.2757,5.3699,5.3699,5.3699,6.1453,6.7648,6.8869,7.3523,7.6635,7.6635,7.6635,7.6635,7.6635,7.6635,7.6635,7.6635,7.6635,7.6635,7.6635,7.6635,7.6635,7.6635,7.6635,7.6635,7.6635,7.6635,7.6635,7.6635,7.6635,7.6635,7.6635,7.6635,7.6635,7.6635,7.6635,7.6635,7.6635,7.6635,7.6635,7.6635,7.6635,7.6635,7.6635,7.6635,7.6635,7.6635,7.6635,7.6635,7.6635,7.6635,7.6635,7.6635,7.6635,7.6635,7.6635,7.6635,7.6635,7.6635,7.6635,7.6635,7.6635,7.6635,3.6267,0.0,0.0,0.0,0.0,0.0,0.0,0.0,0.0,0.0,0.0,0.0,0.0,0.0,0.0,0.0,0.0,0.0,0.0,0.0,0.0,0.0,0.0,0.0,0.0,0.0,0.0,0.0,0.0,0.0,0.0,0.0,0.0,0.0,0.0,0.0,4.175,3.9694,4.467,4.5864,4.5864,4.5864,4.5864,0.0,4.5864,4.5864,4.5864,4.5864,4.5864,4.7551,5.2757,5.3699,5.3699,5.3699,5.837,6.3634,6.8433,7.3523,7.6635,7.6635,7.6635,7.6635,7.6635,7.6635,7.6635,7.6635,7.6635,7.6635,7.6635,7.6635,7.6635,7.6635,7.6635,7.6635,7.6635,7.6635,7.6635,7.6635,7.6635,7.6635,0.0,7.6635,7.6635,7.6635,7.6635,7.6635,7.6635,7.6635,7.6635,7.6635,7.6635,7.6635,7.6635,7.6635,7.6635,7.6635,7.6635,7.6635,7.6635,7.6635,7.6635,7.6635,7.6635,7.6635,7.6635,7.6635,7.6635,7.6635,7.6635,7.6635,7.6635,7.6635,3.6267,0.0,0.0,0.0,0.0,0.0,0.0,0.0,0.0,0.0,0.0,0.0,0.0,0.0,0.0,0.0,0.0,0.0,0.0,0.0,0.0,0.0,0.0,0.0,0.0,0.0,0.0,0.0,0.0,0.0,0.0,0.0,0.0,0.0,0.0,4.8876,4.9352,4.8328,5.0261,5.0663,4.982,4.6592,4.5864,4.5864,4.5864,4.5864,4.5864,4.5864,4.5864,4.6504,4.8453,5.1478,5.3699,5.3699,5.5258,5.8428,6.3605,6.8753,7.3145,7.6315,7.6635,7.6635,7.6635,7.6635,7.6635,7.6635,7.6635,7.6635,7.6635,7.6635,7.6635,7.6635,7.6635,7.6635,7.6635,7.6635,7.6635,7.6746,8.1008,8.0626,7.6635,7.6635,7.6635,0.0,7.6635,7.6635,7.6635,7.6635,7.6635,7.6635,7.6635,7.6635,7.6635,7.6635,7.6635,7.6635,7.6635,7.6635,7.6635,7.6635,7.6635,7.6635,7.6635,7.6635,7.6635,7.6635,7.6635,7.6635,7.6635,7.6635,6.7851,3.5831,1.3669,0.0,0.0,0.0,0.0,0.0,0.0,0.0,0.0,0.0,0.0,0.0,0.0,0.0,0.0,0.0,0.0,0.0,0.0,0.0,0.0,0.0,0.0,0.0,0.0,0.0,0.0,0.0,0.0,0.0,0.0,0.0,0.0,0.0,0.0,5.2641,5.3699,5.3699,5.3699,5.3699,5.2329,4.7057,4.5864,4.5864,4.5864,4.5864,4.5864,4.5864,4.5864,4.5864,4.5864,5.0227,5.3699,5.3699,5.3699,5.552,6.0586,6.5874,7.0382,7.3872,7.5675,7.6635,7.6635,7.6635,7.6635,7.6635,7.6635,7.6635,7.6635,7.6635,7.6635,7.6635,7.6635,7.6635,7.6635,7.6635,7.6635,7.6885,8.3645,8.4148,7.9753,7.9753,7.8623,7.6635,7.6635,7.6635,7.6635,7.6635,7.6635,7.6635,7.6635,7.6635,7.6635,7.6635,7.6635,7.6635,7.6635,7.6635,7.6635,7.6635,7.6635,7.6635,7.6635,7.6635,7.6635,7.6635,7.6635,7.6635,7.6635,7.6635,6.2558,1.1081,0.0,0.0,0.0,0.0,0.0,0.0,0.0,0.0,0.0,0.0,0.0,0.0,0.0,0.0,0.0,0.0,0.0,0.0,0.0,0.0,0.0,0.0,0.0,0.0,0.0,0.0,0.0,0.0,0.0,0.0,0.0,0.0,0.0,0.0,0.0,5.3699,5.3728,5.3757,5.3699,5.3699,5.2263,4.7115,4.5923,4.5864,4.5864,4.5864,4.5864,4.5864,4.5864,4.5864,4.5864,5.0227,5.3699,5.3699,5.3786,5.5636,6.0644,6.5903,6.9015,6.9015,7.3639,7.6635,7.6635,7.6635,7.6635,7.6635,7.6635,7.6635,7.6635,7.6635,7.6635,7.6635,7.6635,7.6635,7.6635,7.6635,7.6635,7.6885,8.3495,8.6637,8.667,8.667,8.2896,0.0,7.6746,7.6606,7.6606,7.6606,7.6606,7.6635,7.6635,7.6635,7.6635,7.6635,7.6635,7.6635,7.6635,7.6635,7.6635,7.6635,7.6635,7.6635,7.6635,7.6635,7.6635,7.6635,7.6635,7.6635,7.6635,7.6635,6.2558,1.1081,0.0,0.0,0.0,0.0,0.0,0.0,0.0,0.0,0.0,0.0,0.0,0.0,0.0,0.0,0.0,0.0,0.0,0.0,0.0,0.0,0.0,0.0,0.0,0.0,0.0,0.0,0.0,0.0,0.0,0.0,0.0,0.0,0.0,0.0,0.0,5.3699,5.6247,5.8138,5.4502,5.3699,5.3291,5.1746,4.8482,4.5864,4.5864,4.5864,4.5864,4.5864,4.5864,4.5864,4.5864,5.0227,5.3699,5.3699,5.9854,6.503,6.6543,6.8084,6.9015,6.9015,7.3639,7.6635,7.6635,7.6635,7.6635,7.6635,7.6635,7.6635,7.6635,7.6635,7.6635,7.6635,7.6635,7.6635,7.6635,7.6635,7.6635,7.6606,7.8623,8.2132,8.667,8.667,8.5508,0.0,8.3764,8.0881,7.6995,8.1885,8.0754,7.6635,7.6635,7.6635,7.6635,7.6635,7.6635,7.6635,7.6635,7.6635,7.6635,7.6635,7.6635,7.6635,7.6635,7.6635,7.6635,7.6635,7.6635,7.6635,7.6635,7.6635,6.2558,1.1081,0.0,0.0,0.0,0.0,0.0,0.0,0.0,0.0,0.0,0.0,0.0,0.0,0.0,0.0,0.0,0.0,0.0,0.0,0.0,0.0,0.0,0.0,0.0,0.0,0.0,0.0,0.0,0.0,0.0,0.0,0.0,0.0,0.0,0.0,0.0,5.6102,5.8923,6.0552,5.744,5.5113,5.3699,5.3699,4.9587,4.5864,4.5864,4.5864,4.5864,4.5864,4.5864,4.5864,4.5864,5.0227,5.4299,5.6393,6.3809,6.9015,6.9015,6.9015,6.9015,6.9015,7.3639,7.6635,7.6635,7.6635,7.6635,7.6635,7.6635,7.6635,7.6635,7.6635,7.6635,7.6635,7.6635,7.6635,7.6635,7.6635,7.6635,7.6606,7.939,8.2896,8.667,8.667,8.667,0.0,8.667,8.4265,8.1008,8.5136,8.4265,8.0626,8.0626,7.886,7.6995,7.9622,7.889,7.6635,7.6635,7.8384,8.0626,8.0626,8.0626,8.0626,8.0626,7.8623,7.6635,7.6635,7.6635,7.6635,7.6635,7.6635,6.2558,1.1081,0.0,0.0,0.0,0.0,0.0,0.0,0.0,0.0,0.0,0.0,0.0,0.0,0.0,0.0,0.0,0.0,0.0,0.0,0.0,0.0,0.0,0.0,0.0,0.0,0.0,0.0,0.0,0.0,0.0,0.0,0.0,0.0,0.0,0.0,0.0,5.933,6.0818,6.1079,6.0586,5.7062,5.3699,5.3699,4.9587,4.5864,4.5864,4.5864,4.5864,4.5864,4.5864,4.6039,4.6504,5.0925,5.5956,6.0639,6.5757,6.9015,6.9015,6.9015,6.9015,6.9015,7.3203,7.6111,7.6576,7.6635,7.6635,7.6635,7.6635,7.6635,7.6635,7.6635,7.6635,7.6635,7.6635,7.6635,7.6635,7.6635,7.6635,7.6885,8.3645,8.667,8.667,8.667,8.667,0.0,8.667,8.667,8.667,8.667,8.667,8.667,8.667,8.2775,7.8384,8.4497,8.2653,7.749,7.749,8.1637,8.6527,8.6021,8.5765,8.5765,8.5765,8.1386,7.6635,7.6635,7.6635,7.6635,7.6635,7.3028,5.68,1.0063,0.0,0.0,0.0,0.0,0.0,0.0,0.0,0.0,0.0,0.0,0.0,0.0,0.0,0.0,0.0,0.0,0.0,0.0,0.0,0.0,0.0,0.0,0.0,0.0,0.0,0.0,0.0,0.0,0.0,0.0,0.0,0.0,0.0,0.0,0.0,5.4938,5.8225,6.0319,5.6276,5.4415,5.3699,5.3699,4.9587,4.5864,4.5864,4.5864,4.5864,4.5864,4.5864,4.7202,5.1274,5.6276,6.0028,6.1021,6.5757,6.9015,6.9015,6.9015,6.9015,6.9015,7.0004,7.2301,7.6344,7.6635,7.6635,7.6635,7.6635,7.6635,7.6635,7.6635,7.6635,7.6635,7.6635,7.6635,7.6635,7.6635,7.6635,7.6885,8.3645,8.667,8.667,8.667,8.667,8.667,8.667,8.667,8.667,8.667,8.667,8.667,8.667,8.5765,8.476,8.6164,8.5765,8.4529,8.4529,8.5508,8.5653,8.037,7.8757,7.8757,7.8757,7.7764,7.6635,7.6635,7.6635,7.6635,7.6635,4.5777,1.3407,0.2385,0.0,0.0,0.0,0.0,0.0,0.0,0.0,0.0,0.0,0.0,0.0,0.0,0.0,0.0,0.0,0.0,0.0,0.0,0.0,0.0,0.0,0.0,0.0,0.0,0.0,0.0,0.0,0.0,0.0,0.0,0.0,0.0,0.0,0.0,0.0,5.3699,5.5549,5.6945,5.427,5.3699,5.3699,5.3699,4.9587,4.5864,4.5864,4.5864,4.5864,4.5864,4.5864,4.8366,5.6044,5.9534,6.1195,6.1195,6.5757,6.9015,6.9015,6.9015,6.9015,6.9015,6.9015,7.012,7.2767,7.297,7.297,7.297,7.297,7.4075,7.6547,7.9753,8.1386,8.1386,7.8249,7.8249,8.1386,8.1386,8.1386,8.1512,8.5136,8.667,8.667,8.667,8.667,8.667,8.667,8.667,8.667,8.667,8.667,8.667,8.667,8.667,8.667,8.667,8.667,8.667,8.667,8.667,8.6021,8.25,8.1386,8.1386,8.1386,7.9126,7.6635,7.6635,7.6635,7.6635,7.6635,5.6218,3.0014,0.5322,0.0,0.0,0.0,0.0,0.0,0.0,0.0,0.0,0.0,0.0,0.0,0.0,0.0,0.0,0.0,0.0,0.0,0.0,0.0,0.0,0.0,0.0,0.0,0.0,0.0,0.0,0.0,0.0,0.0,0.0,0.0,0.0,0.0,0.0,0.0,5.3699,5.3699,5.3699,5.3699,5.3699,5.3699,5.3699,5.0285,4.7202,4.7202,4.6504,4.5864,4.5864,4.5864,4.9238,5.9512,6.1195,6.1486,6.25,6.631,6.9015,6.9015,6.9015,6.9015,6.9015,6.9015,6.9015,6.9015,6.9015,6.9015,6.9015,6.9015,7.0963,7.518,8.0724,8.4644,8.6637,8.1135,8.1135,8.667,8.667,8.667,8.667,8.667,8.667,8.667,8.667,0.0,8.667,8.667,8.667,8.667,8.667,8.667,8.667,8.667,8.667,8.667,8.667,8.667,8.667,8.667,8.667,8.667,8.667,8.667,8.667,8.667,8.2622,7.8384,7.8384,7.8384,7.8007,7.6885,7.6635,6.2558,1.1081,0.0,0.0,0.0,0.0,0.0,0.0,0.0,0.0,0.0,0.0,0.0,0.0,0.0,0.0,0.0,0.0,0.0,0.0,0.0,0.0,0.0,0.0,0.0,0.0,0.0,0.0,0.0,0.0,0.0,0.0,0.0,0.0,0.0,0.0,0.0,5.3699,5.3699,5.3699,5.3699,5.3699,5.3699,5.3699,5.3145,5.265,5.265,4.9005,4.5864,4.5864,4.5864,4.9238,5.9512,6.1195,6.2849,6.7357,6.8579,6.9015,6.9015,6.9015,6.9015,6.9015,6.9015,6.9015,6.9015,6.9015,6.9015,6.9015,6.9015,6.9335,7.0004,7.0834,7.6286,8.6604,8.5765,8.5765,8.667,8.667,8.667,8.667,8.667,8.667,8.667,8.667,8.667,8.667,8.667,8.667,8.667,8.667,8.667,8.667,8.667,8.667,8.667,8.667,8.667,8.667,8.667,8.667,8.667,8.667,8.667,8.667,8.667,8.6021,8.5395,8.5395,8.5395,8.3882,7.8007,7.6635,6.2558,1.1081,0.0,0.0,0.0,0.0,0.0,0.0,0.0,0.0,0.0,0.0,0.0,0.0,0.0,0.0,0.0,0.0,0.0,0.0,0.0,0.0,0.0,0.0,0.0,0.0,0.0,0.0,0.0,0.0,0.0,0.0,0.0,0.0,0.0,0.0,0.0,5.3699,5.3699,5.3699,5.3699,5.3699,5.3699,5.3699,5.3699,5.3699,5.3699,5.1797,4.9296,4.6417,4.8249,5.171,5.6218,5.9417,6.1979,6.4361,6.7183,6.9015,6.9015,6.9015,6.9015,6.9015,6.9015,6.9015,6.9015,6.9015,7.048,7.3792,7.4014,7.2464,6.9112,6.9015,7.1458,7.671,8.0097,8.1738,8.1803,8.5091,8.8346,9.1371,8.8116,8.667,8.667,0.0,8.667,8.667,8.667,8.667,8.667,8.667,8.667,8.667,8.667,8.667,8.667,8.667,8.667,8.667,8.667,8.667,8.667,8.667,8.667,8.667,8.667,8.667,8.667,8.667,8.667,8.5877,8.3016,8.2255,6.7152,1.1907,0.0,0.0,0.0,0.0,0.0,0.0,0.0,0.0,0.0,0.0,0.0,0.0,0.0,0.0,0.0,0.0,0.0,0.0,0.0,0.0,0.0,0.0,0.0,0.0,0.0,0.0,0.0,0.0,0.0,0.0,0.0,0.0,0.0,0.0,0.0,5.3223,5.3699,5.3699,5.3699,5.3699,5.3699,5.3699,5.3699,5.3699,5.3699,5.3699,5.2096,4.6824,5.0111,5.4136,5.5346,5.8777,6.1195,6.1195,6.5757,6.9015,6.9015,6.9015,6.9015,6.9015,6.9015,6.9015,6.9015,6.9015,7.0905,7.5452,7.7097,7.5905,7.1472,7.1234,7.0572,6.9015,7.3457,7.5695,7.5727,8.1602,8.667,9.0681,8.6374,8.5223,8.667,8.667,8.667,8.667,8.667,8.667,8.667,8.667,8.667,8.667,8.667,8.667,8.667,8.667,8.667,8.667,8.667,8.667,8.667,8.667,8.667,8.667,8.667,8.667,8.667,8.667,8.667,8.667,8.667,8.667,7.0756,1.256,0.0,0.0,0.0,0.0,0.0,0.0,0.0,0.0,0.0,0.0,0.0,0.0,0.0,0.0,0.0,0.0,0.0,0.0,0.0,0.0,0.0,0.0,0.0,0.0,0.0,0.0,0.0,0.0,0.0,0.0,0.0,0.0,0.0,0.0,0.0,5.2358,5.3699,5.3699,5.3699,5.3699,5.3699,5.3699,5.3699,5.3699,5.3699,5.3699,5.2096,4.6824,5.0111,5.52,6.0115,6.0992,6.1195,6.1195,6.5757,6.9015,6.9015,6.9015,6.9015,6.9015,6.9015,6.9015,6.9015,6.9015,6.9141,6.9459,7.4918,7.7793,7.7463,7.7463,7.4779,6.9015,6.9363,6.9459,6.9584,7.5526,7.8516,7.8779,7.8483,8.1376,8.667,8.667,8.667,8.667,8.667,8.667,8.667,8.667,8.667,8.667,8.667,8.667,8.667,8.667,8.667,8.667,8.667,8.667,8.667,8.667,8.667,8.667,8.667,8.667,8.667,8.667,8.667,8.667,8.667,8.667,7.0756,1.256,0.0,0.0,0.0,0.0,0.0,0.0,0.0,0.0,0.0,0.0,0.0,0.0,0.0,0.0,0.0,0.0,0.0,0.0,0.0,0.0,0.0,0.0,0.0,0.0,0.0,0.0,0.0,0.0,0.0,0.0,0.0,0.0,0.0,0.0,0.0,4.8133,5.107,5.3699,5.3699,5.3699,5.3699,5.3699,5.3699,5.3699,5.3699,5.3699,5.4037,5.552,5.7294,5.9156,6.0876,6.1195,6.1195,6.1195,6.2907,6.5292,6.8637,6.9015,6.9015,6.9015,6.9015,6.9015,6.9015,6.9015,6.9015,6.9015,7.1025,7.2232,7.2232,7.5905,7.6895,7.481,7.4779,7.4779,7.4779,7.6895,7.7891,7.7891,7.7891,7.9042,8.1047,8.1047,8.1047,8.1343,8.5091,8.667,8.667,8.667,8.667,8.667,8.667,8.667,8.667,8.667,8.667,8.667,8.667,8.667,8.667,8.667,8.667,8.667,8.667,8.667,8.667,8.667,8.667,8.667,8.667,5.813,2.5284,0.4472,0.0,0.0,0.0,0.0,0.0,0.0,0.0,0.0,0.0,0.0,0.0,0.0,0.0,0.0,0.0,0.0,0.0,0.0,0.0,0.0,0.0,0.0,0.0,0.0,0.0,0.0,0.0,0.0,0.0,0.0,0.0,0.0,0.0,0.0,0.0,4.5864,4.9645,5.3699,5.3699,5.3699,5.3699,5.3699,5.3699,5.3699,5.3699,5.3699,5.5171,6.0348,6.1195,6.1195,6.1195,6.1195,6.1195,6.1195,6.1195,6.2558,6.6019,6.6426,6.7095,6.884,6.7444,6.7153,6.8869,6.9015,6.9015,6.9015,7.0905,7.203,7.203,7.5905,7.7891,7.7891,7.7891,7.7891,7.7891,7.7891,7.7891,7.7891,7.7891,7.7891,7.7891,7.7891,7.7891,7.822,8.2099,8.371,8.371,8.371,8.371,8.371,8.371,8.371,8.371,8.371,8.371,8.371,8.371,8.371,8.371,8.371,8.5091,8.667,8.667,8.667,8.667,8.667,8.667,8.667,8.667,4.2283,0.0,0.0,0.0,0.0,0.0,0.0,0.0,0.0,0.0,0.0,0.0,0.0,0.0,0.0,0.0,0.0,0.0,0.0,0.0,0.0,0.0,0.0,0.0,0.0,0.0,0.0,0.0,0.0,0.0,0.0,0.0,0.0,0.0,0.0,0.0,0.0,0.0,4.5864,4.9529,5.3495,5.364,5.3699,5.3699,5.3699,5.3699,5.3699,5.3699,5.3699,5.5113,6.0144,6.0963,6.0992,6.1166,6.1195,6.1195,6.1195,6.1195,6.1195,6.1195,6.1195,6.3256,6.8288,6.4245,6.3373,6.8404,6.8782,6.884,6.9015,7.4562,7.7661,7.7661,7.7891,7.7891,7.7891,7.7891,7.7891,7.7891,7.7891,7.7891,7.7891,7.7891,7.7891,7.7891,7.7891,7.7891,7.7891,7.7891,7.7891,7.7891,7.7891,7.7891,7.7891,7.7891,7.7891,7.7891,7.7891,7.7891,7.7891,7.7891,7.7891,7.7891,7.7891,8.1869,8.6374,8.6374,8.6374,8.6374,8.6374,8.6374,8.6439,8.6604,4.2283,0.0,0.0,0.0,0.0,0.0,0.0,0.0,0.0,0.0,0.0,0.0,0.0,0.0,0.0,0.0,0.0,0.0,0.0,0.0,0.0,0.0,0.0,0.0,0.0,0.0,0.0,0.0,0.0,0.0,0.0,0.0,0.0,0.0,0.0,0.0,0.0,0.0,4.4957,4.6911,4.8889,5.2641,5.3699,5.3699,5.3699,5.3699,5.3699,5.3699,5.3699,5.4136,5.5462,5.5724,5.6945,6.0586,6.1195,6.1195,6.1195,6.1195,6.1195,6.1195,6.1195,6.1747,6.3285,6.2008,6.1889,6.3314,6.3431,6.5059,6.8811,7.0572,7.1472,7.1472,7.5695,7.7891,7.7891,7.7891,7.7891,7.7891,7.7891,7.7891,7.7891,7.7891,7.7891,7.7891,7.7891,7.7891,7.7891,7.7891,7.7891,7.7891,7.7891,7.7891,7.7891,7.7891,7.7891,7.7891,7.7891,7.7891,7.7891,7.7891,7.7891,7.7891,7.7891,7.9042,8.0324,8.0324,8.0324,8.0324,8.0324,8.0324,8.1376,8.565,4.2283,0.0,0.0,0.0,0.0,0.0,0.0,0.0,0.0,0.0,0.0,0.0,0.0,0.0,0.0,0.0,0.0,0.0,0.0,0.0,0.0,0.0,0.0,0.0,0.0,0.0,0.0,0.0,0.0,0.0,0.0,0.0,0.0,0.0,0.0,0.0,0.0,0.0,4.7736,4.9093,4.982,5.2941,5.2067,5.0372,5.0372,5.2059,5.3699,5.3699,5.3699,5.3699,5.3699,5.3699,5.4589,5.7585,5.8079,5.8836,6.0876,6.1195,6.1195,6.1195,6.1195,6.1195,6.1195,6.1195,6.1195,6.1195,6.1195,6.3518,6.8827,6.6761,6.5538,6.5538,7.125,7.4274,7.4274,7.6707,7.7891,7.7891,7.7891,7.7891,7.7891,7.7891,7.7891,7.7891,7.7891,7.7891,7.7891,7.7891,7.7891,7.7891,7.7891,7.7891,7.7891,7.7891,7.7891,7.7891,7.7891,7.7891,7.7891,7.7891,7.7891,7.7891,7.7891,7.7891,7.7891,7.7891,7.7891,7.7891,7.7891,7.7891,7.8779,8.2165,4.0507,0.0,0.0,0.0,0.0,0.0,0.0,0.0,0.0,0.0,0.0,0.0,0.0,0.0,0.0,0.0,0.0,0.0,0.0,0.0,0.0,0.0,0.0,0.0,0.0,0.0,0.0,0.0,0.0,0.0,0.0,0.0,0.0,0.0,0.0,0.0,0.0,0.0,5.0634,5.198,5.198,5.198,4.8424,4.5166,0.0,4.9413,5.2825,5.2825,5.2825,5.2825,5.2825,5.2825,5.2999,5.3582,5.3699,5.52,5.9795,6.0818,6.1195,6.1195,6.1195,6.1195,6.1195,6.1195,6.1195,6.1195,6.1195,6.3282,6.8044,6.3454,6.0967,6.1583,6.6547,6.9244,6.9244,7.4373,7.6937,7.6937,7.6937,7.7266,7.7891,7.7891,7.7891,7.7891,7.7891,7.7891,7.7891,7.7891,7.7891,7.7891,7.7891,7.7891,7.7891,7.7891,7.7891,7.7891,7.7891,7.7891,7.7891,7.7891,7.7891,7.7891,7.7891,7.7891,7.7891,7.7891,7.7891,7.7891,7.7891,7.7891,7.6411,7.0592,3.3734,0.0,0.0,0.0,0.0,0.0,0.0,0.0,0.0,0.0,0.0,0.0,0.0,0.0,0.0,0.0,0.0,0.0,0.0,0.0,0.0,0.0,0.0,0.0,0.0,0.0,0.0,0.0,0.0,0.0,0.0,0.0,0.0,0.0,0.0,0.0,0.0,0.0,0.0,0.0,0.0,0.0,0.0,0.0,0.0,4.665,4.7377,4.7377,4.7377,4.7377,4.7377,4.7377,4.8715,5.2999,5.3699,5.4048,5.4968,5.8661,6.1195,6.1195,6.1195,6.1195,6.1195,6.1195,6.1195,6.1195,6.1195,6.1696,6.2671,6.1717,6.3103,6.7396,6.8652,6.9244,6.9244,7.0361,7.092,7.092,7.092,7.3386,7.7891,7.7891,7.7891,7.7891,7.7891,7.7891,7.7891,7.7891,7.7891,7.7891,7.7891,7.7891,7.7891,7.7891,7.7891,7.7891,7.7891,7.7891,7.7891,7.7891,7.7891,7.7891,7.7891,7.7891,7.7891,7.7891,7.7891,7.7891,7.7891,7.7891,6.7304,2.5153,0.7398,0.0,0.0,0.0,0.0,0.0,0.0,0.0,0.0,0.0,0.0,0.0,0.0,0.0,0.0,0.0,0.0,0.0,0.0,0.0,0.0,0.0,0.0,0.0,0.0,0.0,0.0,0.0,0.0,0.0,0.0,0.0,0.0,0.0,0.0,0.0,0.0,0.0,0.0,0.0,0.0,0.0,0.0,0.0,0.0,0.0,0.0,0.0,0.0,4.284,4.5399,0.0,4.7551,5.2757,5.3699,5.3699,5.3699,5.5811,5.744,5.744,5.744,5.8458,6.0934,6.1195,6.1195,6.1195,6.1195,6.1195,6.1195,6.3778,6.5178,6.5178,6.7829,6.9244,6.9244,6.9244,6.9244,6.9244,6.9244,6.9244,6.9276,6.9276,6.9276,6.9605,7.5392,7.7891,7.7891,7.7891,7.7891,7.7891,7.7891,7.7891,7.7891,7.7891,7.7891,7.7891,7.7891,7.7891,7.7891,7.7891,7.7891,7.7891,7.7891,7.7891,7.7891,7.7891,7.7891,7.7891,7.7891,7.7891,6.4739,1.2428,0.0,0.0,0.0,0.0,0.0,0.0,0.0,0.0,0.0,0.0,0.0,0.0,0.0,0.0,0.0,0.0,0.0,0.0,0.0,0.0,0.0,0.0,0.0,0.0,0.0,0.0,0.0,0.0,0.0,0.0,0.0,0.0,0.0,0.0,0.0,0.0,0.0,0.0,0.0,0.0,0.0,0.0,0.0,0.0,0.0,0.0,0.0,0.0,0.0,0.0,0.0,0.0,0.0,5.2757,5.3699,5.3699,5.3699,5.3699,5.3699,5.3699,5.3699,5.5229,5.9388,5.9795,5.9795,5.9795,6.0615,6.1195,6.1195,6.5347,6.6163,6.2886,6.696,6.9244,6.9244,6.9244,6.9244,6.9244,0.0,0.0,6.2306,6.2306,6.1681,6.1155,7.0526,7.457,7.457,7.457,7.457,7.4669,7.5787,7.6247,7.6247,7.6247,7.6247,7.6247,7.6247,7.6247,7.605,7.4932,7.457,7.4965,7.7233,7.7891,0.0,7.7891,7.7891,7.7891,7.7891,7.7891,6.4739,1.2428,0.0,0.0,0.0,0.0,0.0,0.0,0.0,0.0,0.0,0.0,0.0,0.0,0.0,0.0,0.0,0.0,0.0,0.0,0.0,0.0,0.0,0.0,0.0,0.0,0.0,0.0,0.0,0.0,0.0,0.0,0.0,0.0,0.0,0.0,0.0,0.0,0.0,0.0,0.0,0.0,0.0,0.0,0.0,0.0,0.0,0.0,0.0,0.0,0.0,0.0,0.0,0.0,0.0,0.0,5.3699,5.3699,5.3699,5.3699,5.3699,5.3699,5.3699,5.3932,5.4415,5.4473,5.4473,5.4473,5.8719,6.1195,6.1195,6.1777,0.0,0.0,0.0,6.9244,6.9244,6.9244,6.9244,6.9244,6.9244,6.8915,6.8257,6.8257,6.5495,6.0728,6.201,6.2569,6.2569,6.2569,6.2569,6.3095,6.8224,7.023,7.023,7.023,7.023,7.023,7.023,0.0,0.0,6.4246,6.2569,6.4509,7.4767,7.7891,7.7891,7.7891,7.7891,7.7891,7.7891,7.7891,6.4739,1.2428,0.0,0.0,0.0,0.0,0.0,0.0,0.0,0.0,0.0,0.0,0.0,0.0,0.0,0.0,0.0,0.0,0.0,0.0,0.0,0.0,0.0,0.0,0.0,0.0,0.0,0.0,0.0,0.0,0.0,0.0,0.0,0.0,0.0,0.0,0.0,0.0,0.0,0.0,0.0,0.0,0.0,0.0,0.0,0.0,0.0,0.0,0.0,0.0,0.0,0.0,0.0,0.0,0.0,0.0,5.1623,5.3699,5.3699,5.3699,5.3699,5.3699,5.3699,5.3699,5.3699,5.3699,5.3699,5.3699,5.5578,5.68,5.68,5.965,6.2297,6.447,6.4572,6.4572,6.4572,6.7645,6.9244,6.9244,6.9244,6.9244,6.9244,6.9244,6.7928,6.5627,6.5627,6.5627,6.5627,6.5627,6.5627,0.0,0.0,0.0,0.0,0.0,6.9244,6.9244,6.9244,6.9244,6.8849,6.6416,6.5627,6.5923,6.7402,7.023,7.2893,7.2893,7.2893,7.2893,7.2893,7.5392,6.4739,1.2428,0.0,0.0,0.0,0.0,0.0,0.0,0.0,0.0,0.0,0.0,0.0,0.0,0.0,0.0,0.0,0.0,0.0,0.0,0.0,0.0,0.0,0.0,0.0,0.0,0.0,0.0,0.0,0.0,0.0,0.0,0.0,0.0,0.0,0.0,0.0,0.0,0.0,0.0,0.0,0.0,0.0,0.0,0.0,0.0,0.0,0.0,0.0,0.0,0.0,0.0,0.0,0.0,0.0,0.0,4.6941,4.9474,4.9474,5.1892,5.3699,5.3699,5.3699,5.3699,5.3699,5.3699,5.3699,5.3699,5.3699,5.3699,5.3699,5.7149,5.9185,5.9185,5.9185,5.9185,5.9185,6.5787,6.9244,6.9244,6.9244,6.9244,6.9244,6.9244,6.9244,6.9244,6.9244,6.9244,6.9244,6.9244,6.9244,6.9079,6.7501,6.6876,6.6876,6.6876,6.6876,6.7106,6.8685,6.9244,6.9244,6.9244,6.9244,6.8454,6.4279,6.5923,6.9244,6.9244,6.9244,6.9244,6.9244,7.2367,6.2734,1.2034,0.0,0.0,0.0,0.0,0.0,0.0,0.0,0.0,0.0,0.0,0.0,0.0,0.0,0.0,0.0,0.0,0.0,0.0,0.0,0.0,0.0,0.0,0.0,0.0,0.0,0.0,0.0,0.0,0.0,0.0,0.0,0.0,0.0,0.0,0.0,0.0,0.0,0.0,0.0,0.0,0.0,0.0,0.0,0.0,0.0,0.0,0.0,0.0,0.0,0.0,0.0,0.0,0.0,0.0,0.0,0.0,3.8739,4.7319,5.3699,5.3699,5.3699,5.3699,5.3699,5.3699,5.3699,5.3699,5.3699,5.3699,5.3699,5.3844,5.3833,5.3833,5.3833,5.3833,5.3833,6.4036,6.9244,6.9244,6.9244,6.9244,6.9244,6.9244,6.9244,6.9244,6.9244,6.9244,6.9244,6.9244,6.9244,6.8685,6.3095,6.0892,6.0892,6.0892,6.0892,6.1714,6.7304,6.9244,6.9244,6.9244,6.9244,6.9211,6.9013,6.9112,6.9244,6.9244,6.9244,6.9244,6.9244,6.9375,5.7769,1.108,0.0,0.0,0.0,0.0,0.0,0.0,0.0,0.0,0.0,0.0,0.0,0.0,0.0,0.0,0.0,0.0,0.0,0.0,0.0,0.0,0.0,0.0,0.0,0.0,0.0,0.0,0.0,0.0,0.0,0.0,0.0,0.0,0.0,0.0,0.0,0.0,0.0,0.0,0.0,0.0,0.0,0.0,0.0,0.0,0.0,0.0,0.0,0.0,0.0,0.0,0.0,0.0,0.0,0.0,0.0,0.0,0.0,4.1269,4.4701,4.8075,4.8482,4.8482,4.8482,5.1594,5.3699,5.3699,5.3699,5.3699,5.3699,5.3699,5.3699,5.3699,5.3699,5.3699,5.3699,5.7108,5.8938,5.8938,6.2075,6.3523,6.3523,6.3523,6.3523,6.3523,6.3523,6.3523,6.3523,6.3523,6.3523,6.3358,6.1385,6.0629,6.0629,6.0629,6.0629,6.0892,6.2865,6.3523,6.3523,6.3523,6.3523,6.3523,6.3523,6.3523,6.3523,6.3523,6.3523,6.3523,6.3523,4.3532,1.9399,0.3715,0.0,0.0,0.0,0.0,0.0,0.0,0.0,0.0,0.0,0.0,0.0,0.0,0.0,0.0,0.0,0.0,0.0,0.0,0.0,0.0,0.0,0.0,0.0,0.0,0.0,0.0,0.0,0.0,0.0,0.0,0.0,0.0,0.0,0.0,0.0,0.0,0.0,0.0,0.0,0.0,0.0,0.0,0.0,0.0,0.0,0.0,0.0,0.0,0.0,0.0,0.0,0.0,0.0,0.0,0.0,0.0,0.0,0.0,0.0,4.5283,4.4265,0.0,4.316,4.6184,4.8133,4.8133,4.982,5.1652,5.3582,5.3699,5.3699,5.3699,5.3699,5.3699,5.3699,5.3699,5.448,5.6154,5.921,6.0629,6.0629,6.0629,6.0629,6.0629,6.0629,6.0629,6.0629,6.0629,6.0629,6.0629,6.0629,6.0629,6.0629,6.0629,6.0629,6.0629,6.0629,6.0629,6.0629,6.0629,6.0629,6.0629,6.0629,6.0629,6.0202,5.8098,5.7506,5.7999,6.0103,3.0479,0.0,0.0,0.0,0.0,0.0,0.0,0.0,0.0,0.0,0.0,0.0,0.0,0.0,0.0,0.0,0.0,0.0,0.0,0.0,0.0,0.0,0.0,0.0,0.0,0.0,0.0,0.0,0.0,0.0,0.0,0.0,0.0,0.0,0.0,0.0,0.0,0.0,0.0,0.0,0.0,0.0,0.0,0.0,0.0,0.0,0.0,0.0,0.0,0.0,0.0,0.0,0.0,0.0,0.0,0.0,0.0,0.0,0.0,0.0,0.0,0.0,4.5283,4.1589,0.0,0.0,0.0,0.0,3.8274,4.2753,4.7639,5.265,5.2912,5.3145,5.3669,5.3699,5.3699,5.3699,5.3699,5.5973,6.0629,6.0629,6.0629,6.0629,6.0629,6.0629,6.0629,6.0629,6.0629,6.0629,6.0629,6.0465,6.0202,6.0202,6.0202,6.0202,6.0202,6.0202,6.0202,6.0202,6.0202,6.0235,6.0531,6.0629,6.0629,6.0629,6.0432,0.0,0.0,5.2114,5.3527,5.8821,3.0249,0.0,0.0,0.0,0.0,0.0,0.0,0.0,0.0,0.0,0.0,0.0,0.0,0.0,0.0,0.0,0.0,0.0,0.0,0.0,0.0,0.0,0.0,0.0,0.0,0.0,0.0,0.0,0.0,0.0,0.0,0.0,0.0,0.0,0.0,0.0,0.0,0.0,0.0,0.0,0.0,0.0,0.0,0.0,0.0,0.0,0.0,0.0,0.0,0.0,0.0,0.0,0.0,0.0,0.0,0.0,0.0,0.0,0.0,0.0,3.5925,4.0164,4.5283,4.473,4.2433,0.0,0.0,0.0,0.0,0.0,0.0,4.2113,4.22,4.5773,5.3466,5.3699,5.3699,5.3699,5.3699,5.5973,6.0629,6.0629,6.0629,6.0629,6.0629,6.0629,6.0629,6.0629,6.0629,6.0629,6.0629,5.8065,5.4119,5.4119,5.4119,5.4119,5.4119,5.4119,5.4119,5.4119,5.4119,5.4843,5.9215,6.0629,6.0629,6.0629,0.0,0.0,0.0,0.0,5.7736,5.4875,2.7191,0.0,0.0,0.0,0.0,0.0,0.0,0.0,0.0,0.0,0.0,0.0,0.0,0.0,0.0,0.0,0.0,0.0,0.0,0.0,0.0,0.0,0.0,0.0,0.0,0.0,0.0,0.0,0.0,0.0,0.0,0.0,0.0,0.0,0.0,0.0,0.0,0.0,0.0,0.0,0.0,0.0,0.0,0.0,0.0,0.0,0.0,0.0,0.0,0.0,0.0,0.0,0.0,0.0,0.0,0.0,0.0,0.0,0.0,0.0,3.4141,3.7663,3.6034,3.7837,3.8099,0.0,0.0,0.0,0.0,0.0,0.0,0.0,0.0,0.0,4.6793,4.6968,4.8046,5.0198,5.2466,5.5973,6.0629,5.8523,5.8688,6.0629,6.0629,6.0629,6.0629,6.0629,6.0629,6.0432,5.7867,5.4875,5.1883,0.0,0.0,0.0,0.0,5.1883,5.1883,5.1883,5.3593,5.5829,5.6585,0.0,0.0,0.0,0.0,0.0,0.0,0.0,0.0,0.0,0.0,0.0,0.0,0.0,0.0,0.0,0.0,0.0,0.0,0.0,0.0,0.0,0.0,0.0,0.0,0.0,0.0,0.0,0.0,0.0,0.0,0.0,0.0,0.0,0.0,0.0,0.0,0.0,0.0,0.0,0.0,0.0,0.0,0.0,0.0,0.0,0.0,0.0,0.0,0.0,0.0,0.0,0.0,0.0,0.0,0.0,0.0,0.0,0.0,0.0,0.0,0.0,0.0,0.0,0.0,0.0,0.0,0.0,0.0,0.0,0.0,3.3317,2.435,0.0,0.0,0.0,0.0,0.0,0.0,0.0,0.0,0.0,0.0,0.0,0.0,0.0,4.0397,4.4817,4.9325,5.3695,5.7666,5.3607,5.4424,5.9754,6.0366,6.0629,6.0531,5.8578,0.0,5.7318,5.1883,0.0,0.0,0.0,0.0,0.0,0.0,0.0,0.0,0.0,0.0,0.0,0.0,0.0,0.0,0.0,0.0,0.0,0.0,0.0,0.0,0.0,0.0,0.0,0.0,0.0,0.0,0.0,0.0,0.0,0.0,0.0,0.0,0.0,0.0,0.0,0.0,0.0,0.0,0.0,0.0,0.0,0.0,0.0,0.0,0.0,0.0,0.0,0.0,0.0,0.0,0.0,0.0,0.0,0.0,0.0,0.0,0.0,0.0,0.0,0.0,0.0,0.0,0.0,0.0,0.0,0.0,0.0,0.0,0.0,0.0,0.0,0.0,0.0,0.0,0.0,0.0,0.0,0.0,0.0,0.0,0.0,0.0,0.0,0.0,0.0,0.0,0.0,0.0,0.0,0.0,0.0,0.0,0.0,0.0,0.0,0.0,0.0,0.0,0.0,0.0,0.0,0.0,4.1337,4.5835,5.5018,5.8885,6.0629,5.9918,4.7551,4.2218,4.1937,3.8872,0.0,0.0,0.0,0.0,0.0,0.0,0.0,0.0,0.0,0.0,0.0,0.0,0.0,0.0,0.0,0.0,0.0,0.0,0.0,0.0,0.0,0.0,0.0,0.0,0.0,0.0,0.0,0.0,0.0,0.0,0.0,0.0,0.0,0.0,0.0,0.0,0.0,0.0,0.0,0.0,0.0,0.0,0.0,0.0,0.0,0.0,0.0,0.0,0.0,0.0,0.0,0.0,0.0,0.0,0.0,0.0,0.0,0.0,0.0,0.0,0.0,0.0,0.0,0.0,0.0,0.0,0.0,0.0,0.0,0.0,0.0,0.0,0.0,0.0,0.0,0.0,0.0,0.0,0.0,0.0,0.0,0.0,0.0,0.0,0.0,0.0,0.0,0.0,0.0,0.0,0.0,0.0,0.0,0.0,0.0,0.0,0.0,0.0,0.0,0.0,0.0,0.0,0.0,0.0,0.0,0.0,0.0,0.0,0.0,3.9963,0.0,0.0,0.0,0.0,0.0,0.0,0.0,0.0,0.0,0.0,0.0,0.0,0.0,0.0,0.0,0.0,0.0,0.0,0.0,0.0,0.0,0.0,0.0,0.0,0.0,0.0,0.0,0.0,0.0,0.0,0.0,0.0,0.0,0.0,0.0,0.0,0.0,0.0,0.0,0.0,0.0,0.0,0.0,0.0,0.0,0.0,0.0,0.0,0.0,0.0,0.0,0.0,0.0,0.0,0.0,0.0,0.0,0.0,0.0,0.0,0.0,0.0,0.0,0.0,0.0,0.0,0.0,0.0,0.0,0.0,0.0,0.0,0.0,0.0,0.0,0.0,0.0,0.0,0.0,0.0,0.0,0.0,0.0,0.0,0.0,0.0,0.0,0.0,0.0,0.0,0.0,0.0,0.0,0.0,0.0,0.0,0.0,0.0,0.0,0.0,0.0,0.0,0.0,0.0,0.0,0.0,0.0,0.0,0.0,0.0,4.2895,0.0,0.0,0.0,0.0,0.0,0.0,0.0,0.0,0.0,0.0,0.0,0.0,0.0,0.0,0.0,0.0,0.0,0.0,0.0,0.0,0.0,0.0,0.0,0.0,0.0,0.0,0.0,0.0,0.0,0.0,0.0,0.0,0.0,0.0,0.0,0.0,0.0,0.0,0.0,0.0,0.0,0.0,0.0,0.0,0.0,0.0,0.0,0.0,0.0,0.0,0.0,0.0,0.0,0.0,0.0,0.0,0.0,0.0,0.0,0.0,0.0,0.0,0.0,0.0,0.0,0.0,0.0,0.0,0.0,0.0,0.0,0.0,0.0,0.0,0.0,0.0,0.0,0.0,0.0,0.0,0.0,0.0,0.0,0.0,0.0,0.0,0.0,0.0,0.0,0.0,0.0,0.0,0.0,0.0,0.0,0.0,0.0,0.0,0.0,0.0,0.0,0.0,0.0,0.0,0.0,0.0,0.0,0.0,0.0,0.0,0.0,0.0,0.0,0.0,0.0,0.0,0.0,0.0,0.0,0.0,0.0,0.0,0.0,0.0,0.0,0.0,0.0,0.0,0.0,0.0,0.0,0.0,0.0,0.0,0.0,0.0,0.0,0.0,0.0,0.0,0.0,0.0,0.0,0.0,0.0,0.0,0.0,0.0,0.0,0.0,0.0,0.0,0.0,0.0,0.0,0.0,0.0,0.0,0.0,0.0,0.0,0.0,0.0,0.0,0.0,0.0,0.0,0.0,0.0,0.0,0.0,0.0,0.0,0.0,0.0,0.0,0.0,0.0,0.0,0.0,0.0,0.0,0.0,0.0,0.0,0.0,0.0,0.0,0.0,0.0,0.0,0.0,0.0,0.0,0.0,0.0,0.0,0.0,0.0,0.0,0.0,0.0,0.0,0.0,0.0,0.0,0.0,0.0,0.0,0.0,0.0,0.0,0.0,0.0,0.0,0.0,0.0,0.0,0.0,0.0,0.0,0.0,0.0,0.0,0.0,0.0,0.0,0.0,0.0,0.0,0.0,0.0,0.0,0.0,0.0,0.0,0.0,0.0,0.0,0.0,0.0,0.0,0.0,0.0,0.0,0.0,0.0,0.0,0.0,0.0,0.0,0.0,0.0,0.0,0.0,0.0,0.0,0.0,0.0,0.0,0.0,0.0,0.0,0.0,0.0,0.0,0.0,0.0,0.0,0.0,0.0,0.0,0.0,0.0,0.0,0.0,0.0,0.0,0.0,0.0,0.0,0.0,0.0,0.0,0.0,0.0,0.0,0.0,0.0,0.0,0.0,0.0,0.0,0.0,0.0,0.0,0.0,0.0,0.0,0.0,0.0,0.0,0.0,0.0,0.0,0.0,0.0,0.0,0.0,0.0,0.0,0.0,0.0,0.0,0.0,0.0,0.0,0.0,0.0,0.0,0.0,0.0,0.0,0.0,0.0,0.0,0.0,0.0,0.0,0.0,0.0,0.0,0.0,0.0,0.0,0.0,0.0,0.0,0.0,0.0,0.0,0.0,0.0,0.0,0.0,0.0,0.0,0.0,0.0,0.0,0.0,0.0,0.0,0.0,0.0,0.0,0.0,0.0,0.0,0.0,0.0,0.0,0.0,0.0,0.0,0.0,0.0,0.0,0.0,0.0,0.0,0.0,0.0,0.0,0.0,0.0,0.0,0.0,0.0,0.0,0.0,0.0,0.0,0.0,0.0,0.0,0.0,0.0,0.0,0.0,0.0,0.0,0.0,0.0,0.0,0.0,0.0,0.0,0.0,0.0,0.0,0.0,0.0,0.0,0.0,0.0,0.0,0.0,0.0,0.0,0.0,0.0,0.0,0.0,0.0,0.0,0.0,0.0,0.0,0.0,0.0,0.0,0.0,0.0,0.0,0.0,0.0,0.0,0.0,0.0,0.0,0.0,0.0,0.0,0.0,0.0,0.0,0.0,0.0,0.0,0.0,0.0,0.0,0.0,0.0,0.0,0.0,0.0,0.0,0.0,0.0,0.0,0.0,0.0,0.0,0.0,0.0,0.0,0.0,0.0,0.0,0.0,0.0,0.0,0.0,0.0,0.0,0.0,0.0,0.0,0.0,0.0,0.0,0.0,0.0,0.0,0.0,0.0,0.0,0.0,0.0,0.0,0.0,0.0,0.0,0.0,0.0,0.0,0.0,0.0,0.0,0.0,0.0,0.0,0.0,0.0,0.0,0.0,0.0,0.0,0.0,0.0,0.0,0.0,0.0,0.0,0.0,0.0,0.0,0.0,0.0,0.0,0.0,0.0,0.0,0.0,0.0,0.0,0.0,0.0,0.0,0.0,0.0,0.0,0.0,0.0,0.0,0.0,0.0,0.0,0.0,0.0,0.0,0.0,0.0,0.0,0.0,0.0,0.0,0.0,0.0,0.0,0.0,0.0,0.0,0.0,0.0,0.0,0.0,0.0,0.0,0.0,0.0,0.0,0.0,0.0,0.0,0.0,0.0,0.0,0.0,0.0,0.0,0.0,0.0,0.0,0.0,0.0,0.0,0.0,0.0,0.0,0.0,0.0,0.0,0.0,0.0,0.0,0.0,0.0,0.0,0.0,0.0,0.0,0.0,0.0,0.0,0.0,0.0,0.0,0.0,0.0,0.0,0.0,0.0,0.0,0.0,0.0,0.0,0.0,0.0,0.0,0.0,0.0,0.0,0.0,0.0,0.0,0.0,0.0,0.0,0.0,0.0,0.0,0.0,0.0,0.0,0.0,0.0,0.0,0.0,0.0,0.0,0.0,0.0,0.0,0.0,0.0,0.0,0.0,0.0,0.0,0.0,0.0,0.0,0.0,0.0,0.0,0.0,0.0,0.0,0.0,0.0,0.0,0.0,0.0,0.0,0.0,0.0,0.0,0.0,0.0,0.0,0.0,0.0,0.0,0.0,0.0,0.0,0.0,0.0,0.0,0.0,0.0,0.0,0.0,0.0,0.0,0.0,0.0,0.0,0.0,0.0,0.0,0.0,0.0,0.0,0.0,0.0,0.0,0.0,0.0,0.0,0.0,0.0,0.0,0.0,0.0,0.0,0.0,0.0,0.0,0.0,0.0,0.0,0.0,0.0,0.0,0.0,0.0,0.0,0.0,0.0,0.0,0.0,0.0,0.0,0.0,0.0,0.0,0.0,0.0,0.0,0.0,0.0,0.0,0.0,0.0,0.0,0.0,0.0,0.0,0.0,0.0,0.0,0.0,0.0,0.0,0.0,0.0,0.0,0.0,0.0,0.0,0.0,0.0,0.0,0.0,0.0,0.0,0.0,0.0,0.0,0.0,0.0,0.0,0.0,0.0,0.0,0.0,0.0,0.0,0.0,0.0,0.0,0.0,0.0,0.0,0.0,0.0,0.0,0.0,0.0,0.0,0.0,0.0,0.0,0.0,0.0,0.0,0.0,0.0,0.0,0.0,0.0,0.0,0.0,0.0,0.0,0.0,0.0,0.0,0.0,0.0,0.0,0.0,0.0,0.0,0.0,0.0,0.0,0.0,0.0,0.0,0.0,0.0,0.0,0.0,0.0,0.0,0.0,0.0,0.0,0.0,0.0,0.0,0.0,0.0,0.0,0.0,0.0,0.0,0.0,0.0,0.0,0.0,0.0,0.0,0.0,0.0,0.0,0.0,0.0,0.0,0.0,0.0,0.0,0.0,0.0,0.0,0.0,0.0,0.0,0.0,0.0,0.0,0.0,0.0,0.0,0.0,0.0,0.0,0.0,0.0,0.0,0.0,0.0,0.0,0.0,0.0,0.0,0.0,0.0,0.0,0.0,0.0,0.0,0.0,0.0,0.0,0.0,0.0,0.0,0.0,0.0,0.0,0.0,0.0,0.0,0.0,0.0,0.0,0.0,0.0,0.0,0.0,0.0,0.0,0.0,0.0,0.0,0.0,0.0,0.0,0.0,0.0,0.0,0.0,0.0,0.0,0.0,0.0,0.0,0.0,0.0,0.0,0.0,0.0,0.0,0.0,0.0,0.0,0.0,0.0,0.0,0.0,0.0,0.0,0.0,0.0,0.0,0.0,0.0,0.0,0.0,0.0,0.0,0.0,0.0,0.0,0.0,0.0,0.0,0.0,0.0,0.0,0.0,0.0,0.0,0.0,0.0,0.0,0.0,0.0,0.0,0.0,0.0,0.0,0.0,0.0,0.0,0.0,0.0,0.0,0.0,0.0,0.0,0.0,0.0,0.0,0.0,0.0,0.0,0.0,0.0,0.0,0.0,0.0,0.0,0.0,0.0,0.0,0.0,0.0,0.0,0.0,0.0,0.0,0.0,0.0,0.0,0.0,0.0,0.0,0.0,0.0,0.0,0.0,0.0,0.0,0.0,0.0,0.0,0.0,0.0,0.0,0.0,0.0,0.0,0.0,0.0,0.0,0.0,0.0,0.0,0.0,0.0,0.0,0.0,0.0,0.0,0.0,0.0,0.0,0.0,0.0,0.0,0.0,0.0,0.0,0.0,0.0,0.0,0.0,0.0,0.0,0.0,0.0,0.0,0.0,0.0,0.0,0.0,0.0,0.0,0.0,0.0,0.0,0.0,0.0,0.0,0.0,0.0,0.0,0.0,0.0,0.0,0.0,0.0,0.0,0.0,0.0,0.0,0.0,0.0,0.0,0.0,0.0,0.0,0.0,0.0,0.0,0.0,0.0,0.0,0.0,0.0,0.0,0.0,0.0,0.0,0.0,0.0,0.0,0.0,0.0,0.0,0.0,0.0,0.0,0.0,0.0,0.0,0.0,0.0,0.0,0.0,0.0,0.0,0.0,0.0,0.0,0.0,0.0,0.0,0.0,0.0,0.0,0.0,0.0,0.0,0.0,0.0,0.0,0.0,0.0,0.0,0.0,0.0,0.0,0.0,0.0,0.0,0.0,0.0,0.0,0.0,0.0,0.0,0.0,0.0,0.0,0.0,0.0,0.0,0.0,0.0,0.0,0.0,0.0,0.0,0.0,0.0,0.0,0.0,0.0,0.0,0.0,0.0,0.0,0.0,0.0,0.0,0.0,0.0,0.0,0.0,0.0,0.0,0.0,0.0,0.0,0.0,0.0,0.0,0.0,0.0,0.0,0.0,0.0,0.0,0.0,0.0,0.0,0.0,0.0,0.0,0.0,0.0,0.0,0.0,0.0,0.0,0.0,0.0,0.0,0.0,0.0,0.0,0.0,0.0,0.0,0.0,0.0,0.0,0.0,0.0,0.0,0.0,0.0,0.0,0.0,0.0,0.0,0.0,0.0,0.0,0.0,0.0,0.0,0.0,0.0,0.0,0.0,0.0,0.0,0.0,0.0,0.0,0.0,0.0,0.0,0.0,0.0,0.0,0.0,0.0,0.0,0.0,0.0,0.0,0.0,0.0,0.0,0.0,0.0,0.0,0.0,0.0,0.0,0.0,0.0,0.0,0.0,0.0,0.0,0.0,0.0,0.0,0.0,0.0,0.0,0.0,0.0,0.0,0.0,0.0,0.0,0.0,0.0,0.0,0.0,0.0,0.0,0.0,0.0,0.0,0.0,0.0,0.0,0.0,0.0,0.0,0.0,0.0,0.0,0.0,0.0,0.0,0.0,0.0,0.0,0.0,0.0,0.0,0.0,0.0,0.0,0.0,0.0,0.0,0.0,0.0,0.0,0.0,0.0,0.0,0.0,0.0,0.0,0.0,0.0,0.0,0.0,0.0,0.0,0.0,0.0,0.0,0.0,0.0,0.0,0.0,0.0,0.0,0.0,0.0]}],[{"header":{"parameterUnit":"kt","parameterCategory":2,"dx":1,"dy":1,"la1":29.285339999999998,"la2":30.599998999999997,"lo1":-89.70041500000002,"lo2":-87.6738589999976,"nx":112,"ny":82,"refTime":"2022-10-28T00:00:00:Z","depth":0,"parameterNumber":2,"parameterNumberName":"V-component_of_WINDS"},"data":[-3.9978,-3.6808,0.0,-3.3524,-3.3372,0.0,-3.1986,-3.1758,-3.1417,-3.0202,-2.9955,-2.9955,-2.9955,-2.9955,-2.9955,-2.9955,-2.9955,-2.9537,0.0,-2.8208,-2.8645,-2.9822,-2.9955,-3.1354,-3.508,0.0,0.0,0.0,0.0,0.0,0.0,0.0,-5.9863,-6.4158,-6.4304,-6.4304,-6.4304,-6.4304,-6.4304,-6.4304,-6.4304,-6.4304,-6.4304,-6.4304,-6.4304,-6.4304,-6.4304,-6.4304,-6.4402,-6.5939,-6.8184,-7.0674,-7.0674,-7.0674,-7.0674,-7.0674,-7.0674,-7.0674,-7.0674,-7.0674,-7.0674,-7.0674,-7.0674,-7.0674,-7.0674,-7.0674,-7.0674,-7.0674,-7.0674,-7.0674,-7.0674,-7.0674,-7.0674,-7.0674,-7.0674,-7.0674,-7.0674,-7.0674,-7.0674,-7.0674,-7.0674,-7.2549,-7.8484,-7.9314,-8.0515,-8.3732,-8.4225,-8.4225,-8.4225,-8.4225,-8.4225,-8.4225,-8.4225,-6.1366,-0.4799,0.0,0.0,0.0,0.0,0.0,0.0,0.0,0.0,0.0,0.0,0.0,0.0,0.0,0.0,0.0,0.0,0.0,0.0,0.0,-3.0505,-3.2783,-3.3315,-3.2726,-3.0467,-2.9955,-2.9955,-2.9955,-2.9955,-2.9955,-2.9955,-2.9955,-2.9955,-2.9955,-2.9955,-2.9955,0.0,-2.9955,-3.0705,-3.2635,-3.1132,-3.3385,-4.198,0.0,0.0,0.0,0.0,0.0,0.0,-5.9277,-6.1376,-6.4206,-6.4304,-6.4304,-6.4304,-6.4304,-6.4304,-6.4304,-6.4304,-6.4304,-6.4304,-6.4304,-6.4304,-6.4304,-6.4304,-6.4304,-6.4304,-6.4304,-6.5964,-6.8672,-7.0112,-7.0674,-7.0674,-7.0674,-7.0674,-7.0674,-7.0674,-7.0674,-7.0674,-7.0674,-7.0674,-7.0674,-7.0674,-7.0674,-7.0674,-7.0674,-7.0674,-7.0674,-7.0674,-7.0674,-7.0674,-7.0674,-7.0674,-7.0674,-7.0674,-7.0674,-7.172,-7.4752,-7.5275,-7.7111,-8.3207,-8.4225,-8.4225,-8.4225,-8.4225,-8.4225,-8.4225,-8.4225,-8.4225,-8.4225,-6.7124,-4.0629,-0.317,0.0,0.0,0.0,0.0,0.0,0.0,0.0,0.0,0.0,0.0,0.0,0.0,0.0,0.0,0.0,0.0,0.0,-2.9955,-2.9955,-3.153,-3.8023,-3.4758,-2.9955,-2.9955,-2.9955,-2.9955,-2.9955,-2.9955,-2.9955,-2.9955,-2.9955,-2.9955,-2.9955,-2.986,0.0,0.0,-3.0068,-3.2238,-3.772,-3.3456,0.0,0.0,0.0,0.0,0.0,0.0,0.0,-5.791,-6.1961,-6.4304,-6.4304,-6.4304,-6.4304,-6.4304,-6.4304,-6.4304,-6.4304,-6.4304,-6.4304,-6.4304,-6.4304,-6.4304,-6.4304,-6.4304,-6.4304,-6.4304,-6.4304,-6.4304,-6.4719,-6.9014,-7.0674,-7.0674,-7.0674,-7.0674,-7.0674,-7.0674,-7.0674,-7.0674,-7.0674,-7.0674,-7.0674,-7.0674,-7.0674,-7.0674,-7.0674,-7.0674,-7.0674,-7.0674,-7.0674,-7.0674,-7.0674,-7.0674,-7.0674,-7.0674,-7.104,-7.3747,-8.2521,-8.4225,-8.4225,-8.4225,-8.4225,-8.4225,-8.4225,-8.4225,-8.4225,-8.4225,-8.4225,-8.4225,-8.4225,-3.3679,0.0,0.0,0.0,0.0,0.0,0.0,0.0,0.0,0.0,0.0,0.0,0.0,0.0,0.0,0.0,0.0,0.0,0.0,0.0,-2.9955,-2.9955,-3.0391,-3.2252,-3.1322,-2.9955,-2.9955,-2.9955,-2.9955,-2.9955,-2.9955,0.0,0.0,0.0,-2.9955,-2.9955,0.0,-2.7221,-2.9613,-3.3482,-3.6151,-3.5942,0.0,0.0,0.0,0.0,0.0,0.0,0.0,-5.791,-5.791,-6.1961,-6.4304,-6.4304,-6.4304,-6.4304,-6.4304,-6.4304,-6.4304,-6.4304,-6.4304,-6.4304,-6.4304,-6.4304,-6.4304,-6.4304,-6.4304,-6.4304,-6.4304,-6.4304,-6.4304,-6.4719,-6.9014,-7.0674,-7.0674,-7.0674,-7.0674,-7.0674,-7.0674,-7.0674,-7.0674,-7.0674,-7.0674,-7.0674,-7.0674,-7.0674,-7.0674,-7.0674,-7.0674,-7.0674,-7.0674,-7.0674,-7.0674,-7.0674,-7.0674,-7.0674,-7.0674,-7.5941,-8.1189,-8.3732,-8.4225,-8.4225,-8.4225,-8.4225,-8.4225,-8.4225,-8.4225,-8.4225,-8.4225,-8.4225,-8.4225,-8.4225,-3.3679,0.0,0.0,0.0,0.0,0.0,0.0,0.0,0.0,0.0,0.0,0.0,0.0,0.0,0.0,0.0,0.0,0.0,0.0,0.0,-3.0335,-2.9955,-2.9613,-2.8246,-2.893,-2.9955,-2.9955,-2.9955,-2.9955,-2.9955,0.0,0.0,0.0,0.0,0.0,0.0,-2.8341,-2.8759,-3.3486,-3.4564,-3.5462,-3.6917,0.0,0.0,0.0,0.0,0.0,0.0,-5.9326,-5.8691,-6.0497,-6.2937,-6.4304,-6.4304,-6.4304,-6.4304,-6.4304,-6.4304,-6.4304,-6.4304,-6.4304,-6.4304,-6.4304,-6.4304,-6.4304,-6.4304,-6.4304,-6.4304,-6.4304,-6.4304,-6.4304,-6.4548,-6.7037,-6.7989,-6.8233,-7.0015,-7.0674,-7.0674,-7.0674,-7.0674,-7.0674,-7.0674,-7.0674,-7.0674,-7.0674,-7.0674,-7.0674,-7.0674,-7.0674,-7.0674,-7.0674,-7.0674,-7.0674,-7.0674,-7.0674,-7.0674,-7.0674,-7.7787,-8.4225,-8.4225,-8.4225,-8.4225,-8.4225,-8.4225,-8.4225,-8.4225,-8.4225,-8.4225,-8.4225,-8.4225,-7.5151,-5.1419,-1.9544,0.0,0.0,0.0,0.0,0.0,0.0,0.0,0.0,0.0,0.0,0.0,0.0,0.0,0.0,0.0,0.0,0.0,0.0,0.0,-3.0221,-2.9404,-2.8702,-2.576,-2.7525,-2.9955,-2.9955,0.0,-2.9955,-2.9955,0.0,-2.9955,-2.9955,0.0,0.0,-2.9955,-2.9955,-3.2176,-3.8516,-3.5368,-3.4258,-3.9405,-4.0319,0.0,0.0,-5.5641,-5.791,-5.791,-5.8374,-6.0277,-6.4109,-6.4304,-6.4304,-6.4304,-6.4304,-6.4304,-6.4304,-6.4304,-6.4304,-6.4304,-6.4304,-6.4304,-6.4304,-6.4304,-6.4304,-6.4304,-6.4304,-6.4304,-6.4304,-6.4304,-6.4304,-6.4304,-6.4304,-6.4304,-6.4817,-6.9112,-7.0674,-7.0674,-7.0674,-7.0674,-7.0674,-7.0674,-7.0674,-7.0674,-7.0674,-7.0674,-7.0674,-7.0674,-7.0674,-7.0674,-7.0674,-7.0674,-7.0674,-7.0674,-7.0674,-7.1016,-7.2033,-7.8484,-8.4225,-8.4225,-8.4225,-8.4225,-8.4225,-8.4225,-8.4225,-8.4225,-8.4225,-8.4225,-8.4225,-8.4225,-6.2587,-0.602,0.0,0.0,0.0,0.0,0.0,0.0,0.0,0.0,0.0,0.0,0.0,0.0,0.0,0.0,0.0,0.0,0.0,0.0,0.0,0.0,-2.6158,-2.5987,-2.5836,-2.519,-2.7525,-2.9955,0.0,0.0,0.0,-2.9955,-2.9955,-2.9955,-2.9955,-2.9955,-2.9955,-2.9955,-2.9955,-3.136,-3.5403,-4.2485,0.0,-4.0687,-4.237,0.0,-5.5878,-5.7422,-5.791,-5.791,-6.1107,-6.3426,-6.4255,-6.4304,-6.4304,-6.4304,-6.4304,-6.4304,-6.4304,-6.4304,-6.4304,-6.4304,-6.4304,-6.4304,-6.4304,-6.4304,-6.4304,-6.4304,-6.4304,-6.4304,-6.4304,-6.4304,-6.4304,-6.4304,-6.4304,-6.4304,-6.4817,-6.9112,-7.0674,-7.0674,-7.0674,-7.0674,-7.0674,-7.0674,-7.0674,-7.0674,-7.0674,-7.0674,-7.0674,-7.0674,-7.0674,-7.0674,-7.0674,-7.0674,-7.0674,-7.0674,-7.0674,-7.2728,-7.9998,-8.2893,-8.4225,-8.4225,-8.4225,-8.4225,-8.4225,-8.4225,-8.4225,-8.4225,-8.4225,-8.4225,-8.4225,-8.4225,-6.2587,-0.602,0.0,0.0,0.0,0.0,0.0,0.0,0.0,0.0,0.0,0.0,0.0,0.0,0.0,0.0,0.0,0.0,0.0,0.0,0.0,0.0,-2.5038,-2.5038,-2.5038,-2.5038,-2.7525,0.0,0.0,-3.2556,-3.4511,-3.284,-3.2499,-3.2499,-3.2499,-3.2499,-3.303,-3.4701,-3.824,-4.21,-4.5909,-5.1239,-5.3303,-4.9509,-5.0438,0.0,-5.1435,-5.5326,-5.791,-5.791,-6.1864,-6.4304,-6.4304,-6.4304,-6.4304,-6.4304,-6.4304,-6.4304,-6.4304,-6.4304,-6.4304,-6.4304,-6.4304,-6.4304,-6.4304,-6.4304,-6.4304,-6.4304,-6.4304,-6.4304,-6.4304,-6.4304,-6.4304,-6.4304,-6.4304,-6.4304,-6.4548,-6.6696,-6.8843,-7.0674,-7.0674,-7.0674,-7.0674,-7.0674,-7.0674,-7.0674,-7.0674,-7.0674,-7.0674,-7.0674,-7.0674,-7.0674,-7.0674,-7.0674,-7.0674,-7.0674,-7.4251,-7.8651,-8.3207,-8.4225,-8.4225,-8.4225,-8.4225,-8.4225,-8.4225,-8.4225,-8.4225,-8.4225,-8.4225,-8.4225,-8.4225,-5.9534,-3.1206,-0.2996,0.0,0.0,0.0,0.0,0.0,0.0,0.0,0.0,0.0,0.0,0.0,0.0,0.0,0.0,0.0,0.0,0.0,0.0,0.0,0.0,-2.5038,-2.5038,-2.5038,-2.5038,-2.7525,0.0,-2.9955,-3.415,-3.7263,-3.4568,-3.4549,-3.5213,-3.5859,-3.5972,-3.6865,-3.9541,-4.6559,-5.2956,-5.73,-5.791,-5.791,-5.791,-5.791,-5.5475,-4.935,-5.5019,-5.9155,-5.9155,-6.2352,-6.4304,-6.4304,-6.4304,-6.4304,-6.4304,-6.4304,-6.4304,-6.4304,-6.4304,-6.4304,-6.4304,-6.4304,-6.4304,-6.4304,-6.4304,-6.4304,-6.4304,-6.4304,-6.4304,-6.4304,-6.4304,-6.4304,-6.4304,-6.4304,-6.4304,-6.4304,-6.4304,-6.6989,-7.0674,-7.0674,-7.0674,-7.0674,-7.0674,-7.0674,-7.0674,-7.0674,-7.0674,-7.0674,-7.0674,-7.0674,-7.0674,-7.0674,-7.0674,-7.0674,-7.0674,-7.6285,-8.151,-8.151,-8.2893,-8.3577,-8.1858,-8.2893,-8.4225,-8.4225,-8.4225,-8.4225,-8.4225,-8.2707,-8.2204,-8.3916,-3.4929,0.0,0.0,0.0,0.0,0.0,0.0,0.0,0.0,0.0,0.0,0.0,0.0,0.0,0.0,0.0,0.0,0.0,0.0,0.0,0.0,0.0,0.0,-2.5038,-2.5038,-2.5038,-2.5038,-2.7525,0.0,-2.9955,-3.0524,-3.0961,-3.06,-3.2916,-3.5915,-3.8877,-3.9427,-3.9541,-3.9921,-4.6559,-5.2956,-5.73,-5.791,-5.791,-5.791,-5.791,-5.9065,-6.1976,-6.3051,-6.3596,-6.3596,-6.4036,-6.4304,-6.4304,-6.4304,-6.4304,-6.4304,-6.4304,-6.4304,-6.4304,-6.4304,-6.4304,-6.4304,-6.4304,-6.4304,-6.4304,-6.4304,-6.4304,-6.4304,-6.4304,-6.4304,-6.4304,-6.4304,-6.4304,-6.4304,-6.4304,-6.4304,-6.4304,-6.4304,-6.6989,-7.0674,-7.0674,-7.0674,-7.0674,-7.0674,-7.0674,-7.0674,-7.0674,-7.0674,-7.0674,-7.0674,-7.0674,-7.0674,-7.0674,-7.0674,-7.0674,-7.0674,-7.1539,-7.2214,-7.2214,-7.8484,-8.1858,-7.3747,-7.8651,-8.4225,-8.4225,-8.4225,-8.4225,-8.4225,-7.7281,-7.5101,-8.3207,-3.4929,0.0,0.0,0.0,0.0,0.0,0.0,0.0,0.0,0.0,0.0,0.0,0.0,0.0,0.0,0.0,0.0,0.0,0.0,0.0,0.0,0.0,0.0,-2.8414,-2.717,-2.5494,-2.7411,0.0,0.0,-2.9955,-3.1492,-3.3448,-3.5384,-3.6922,-3.8326,-3.9712,-3.8383,-3.8345,-4.2256,-4.9801,-5.5836,-5.7666,-5.791,-5.791,-5.791,-5.791,-5.9594,-6.3889,-6.4304,-6.4304,-6.4304,-6.4304,-6.4304,-6.4304,-6.4304,-6.4304,-6.4304,-6.4304,-6.4304,-6.4304,-6.4304,-6.4304,-6.4304,-6.4304,-6.4304,-6.4304,-6.4304,-6.4304,-6.4304,-6.4304,-6.4304,-6.4304,-6.4304,-6.4304,-6.4304,-6.4304,-6.4304,-6.4304,-6.4304,-6.5427,-6.7306,-6.9819,-7.0674,-7.0674,-7.0674,-7.0674,-7.0674,-7.0674,-7.0674,-7.0674,-7.0674,-7.0674,-7.0674,-7.0674,-7.0674,-7.0674,-7.0674,-7.0674,-7.0674,-7.0674,-7.3747,-7.5275,-7.1539,-7.7982,-8.4225,-8.4225,-7.9834,-7.6285,-7.6285,-7.3239,-6.2181,-3.8192,-1.4571,0.0,0.0,0.0,0.0,0.0,0.0,0.0,0.0,0.0,0.0,0.0,0.0,0.0,0.0,0.0,0.0,0.0,0.0,0.0,0.0,0.0,0.0,-3.114,0.0,0.0,0.0,0.0,0.0,-3.1132,-3.396,-3.7073,-3.9484,-3.9978,-4.0263,-4.1193,-4.1375,-4.2884,-4.769,-5.3857,-5.791,-5.791,-5.791,-5.791,-5.791,-5.791,-5.9594,-6.3889,-6.4304,-6.4304,0.0,-6.4304,-6.4304,-6.4304,-6.4304,-6.4304,-6.4304,-6.4304,-6.4304,-6.4304,-6.4304,-6.4304,-6.4304,-6.4304,-6.4304,-6.4304,-6.4304,-6.4304,-6.4304,-6.4304,-6.4304,-6.4304,-6.4304,-6.4304,-6.4304,-6.4304,-6.4304,-6.4304,-6.4304,-6.4304,-6.4914,-6.9185,-7.0674,-7.0674,-7.0674,-7.0674,-7.0674,-7.0674,-7.0674,-7.0674,-7.0674,-7.0674,-7.0674,-7.0674,-7.0674,-7.0674,-7.0674,-7.0674,-7.0674,-7.0674,-7.0674,-7.0674,-7.0674,-7.5941,-8.0515,-8.0515,-7.5101,-7.0674,-7.0674,-7.0674,-5.3566,-0.6101,0.0,0.0,0.0,0.0,0.0,0.0,0.0,0.0,0.0,0.0,0.0,0.0,0.0,0.0,0.0,0.0,0.0,0.0,0.0,0.0,0.0,0.0,0.0,0.0,0.0,0.0,-3.8236,-3.4019,-3.0828,-3.4112,-3.7434,-3.9845,-3.9959,-3.9978,-4.0965,-4.423,-5.1651,-5.7293,-5.756,-5.7735,-5.791,-5.791,-5.791,-5.791,-5.791,-5.791,-5.9594,-6.3889,-6.4304,-6.4304,-6.4304,-6.4304,-6.4304,-6.4304,-6.4304,-6.4304,-6.4304,-6.4304,-6.4304,-6.4304,-6.4304,-6.4304,-6.4304,-6.4304,-6.4304,-6.4304,-6.4304,-6.4304,-6.4304,-6.4304,-6.4304,-6.4304,-6.4304,-6.4304,-6.4304,-6.4304,-6.4304,-6.4304,-6.4304,-6.4304,-6.4914,-6.9185,-7.0674,-7.0674,-7.0674,-7.0674,-7.0674,-7.0674,-7.0674,-7.0674,-7.0674,-7.0674,-7.0674,-7.0674,-7.0674,-7.0674,-7.0674,-7.0674,-7.0674,-7.0674,-7.0674,-7.0674,-7.0674,-7.104,-7.1199,-7.1199,-7.0857,-7.0674,-7.0674,-7.0674,-5.3566,-0.6101,0.0,0.0,0.0,0.0,0.0,0.0,0.0,0.0,0.0,0.0,0.0,0.0,0.0,0.0,0.0,0.0,0.0,0.0,0.0,0.0,0.0,0.0,0.0,-3.5581,-3.7387,-3.7529,-3.3804,-3.6373,-3.9673,-3.8619,-3.9181,-3.9978,-3.9978,-4.6407,-5.0531,-4.5734,-5.2074,-5.791,-5.791,-5.791,-5.791,-5.791,-5.791,-5.791,-5.791,-5.791,-5.9594,-6.3889,-6.4304,-6.4304,-6.4304,-6.4304,0.0,-6.4304,-6.4304,-6.4304,-6.4304,-6.4304,-6.4304,-6.4304,-6.4304,-6.4304,-6.4304,-6.4304,-6.4304,-6.4304,-6.4304,-6.4304,-6.4304,-6.4304,-6.4304,-6.4304,-6.4304,-6.4304,-6.4304,-6.4304,-6.4304,-6.4304,-6.4304,-6.4304,-6.4914,-6.9185,-7.0674,-7.0674,-7.0674,-7.0674,-7.0674,-7.0674,-7.0674,-7.0674,-7.0674,-7.0674,-7.0674,-7.0674,-7.0674,-7.0674,-7.0674,-7.0674,-7.0674,-7.0674,-7.0674,-7.0674,-7.0674,-7.0674,-7.0674,-7.0674,-7.3065,-7.3992,-7.1113,-4.3878,-1.8032,-0.205,0.0,0.0,0.0,0.0,0.0,0.0,0.0,0.0,0.0,0.0,0.0,0.0,0.0,0.0,0.0,0.0,0.0,0.0,0.0,0.0,0.0,0.0,0.0,-3.7338,-3.9632,-3.9901,-3.6188,-4.1388,-4.6672,-4.4578,-4.4129,-4.3648,-4.2122,-5.0355,-5.6272,-5.0631,-5.417,-5.791,-5.791,-5.791,-5.791,-5.791,-5.791,-5.791,-5.791,-5.791,-5.9594,-6.3889,-6.4304,-6.4304,-6.4304,-6.4304,-6.4304,-6.4304,-6.4304,-6.4304,-6.4304,-6.4304,-6.4304,-6.4304,-6.4304,-6.4304,-6.4304,-6.4304,-6.4304,-6.4304,-6.4304,-6.4304,-6.4304,-6.4304,-6.4304,-6.4304,-6.4304,-6.4304,-6.4304,-6.4304,-6.4304,-6.4304,-6.4304,-6.4304,-6.4695,-6.7452,-6.9405,-7.0674,-7.0674,-7.0674,-7.0674,-7.0674,-7.0674,-7.0674,-7.0674,-7.0674,-7.0674,-7.0674,-7.0674,-7.0674,-7.0674,-7.0674,-7.0674,-7.0674,-7.0674,-7.0674,-7.0674,-7.0674,-7.0674,-7.0674,-7.2992,-7.3895,-7.1088,-3.0358,0.0,0.0,0.0,0.0,0.0,0.0,0.0,0.0,0.0,0.0,0.0,0.0,0.0,0.0,0.0,0.0,0.0,0.0,0.0,0.0,0.0,0.0,0.0,0.0,0.0,-3.7338,-4.1657,-4.4908,-4.5127,-4.8393,-5.1577,-5.1577,-5.1748,-5.0699,-4.6385,-5.2256,-5.791,-5.791,-5.791,-5.791,-5.791,-5.791,-5.791,-5.791,-5.791,-5.791,-5.791,-5.791,-5.9594,-6.3889,-6.4304,-6.4304,-6.4304,-6.4304,-6.4304,-6.4304,-6.4304,-6.4304,-6.4304,-6.4304,-6.4304,-6.4304,-6.4304,-6.4304,-6.4304,-6.4304,-6.4304,-6.4304,-6.4304,-6.4304,-6.4304,-6.4304,-6.4304,-6.4304,-6.4304,-6.4304,-6.4304,-6.4304,-6.4304,-6.4304,-6.4304,-6.4304,-6.4304,-6.4304,-6.7086,-7.0674,-7.0674,-7.0674,-7.0674,-7.0674,-7.0674,-7.0674,-7.0674,-7.0674,-7.0674,-7.0674,-7.0674,-7.0674,-7.0674,-7.0674,-7.0674,-7.0674,-7.0674,-7.0674,-7.0674,-7.0674,-7.0674,-7.0674,-7.0674,-6.9844,-6.7379,-2.8847,0.0,0.0,0.0,0.0,0.0,0.0,0.0,0.0,0.0,0.0,0.0,0.0,0.0,0.0,0.0,0.0,0.0,0.0,0.0,0.0,0.0,0.0,0.0,0.0,0.0,-3.7338,-4.1657,-4.5757,-4.8978,-5.0614,-5.1577,-5.1577,-5.3957,-5.5953,-5.4784,-5.6449,-5.791,-5.791,-5.791,-5.791,-5.791,-5.791,-5.791,-5.791,-5.791,-5.791,-5.791,-5.791,-5.9594,-6.3889,-6.4304,-6.4304,-6.4304,-6.4304,-6.4304,-6.4304,-6.4304,-6.4304,-6.4304,-6.4304,-6.4304,-6.4304,-6.4304,-6.4304,-6.4304,-6.4304,-6.4304,-6.4304,-6.4304,-6.4304,-6.4304,-6.4304,-6.4304,-6.4304,-6.4304,-6.4304,-6.4304,-6.4304,-6.4304,-6.4304,-6.4304,-6.4304,-6.4304,-6.4304,-6.7086,-7.0674,-7.0674,-7.0674,-7.0674,-7.0674,-7.0674,-7.0674,-7.0674,-7.0674,-7.0674,-7.0674,-7.0674,-7.0674,-7.0674,-7.0674,-7.0674,-7.0674,-7.0674,-7.0674,-7.0674,-7.0674,-7.0674,-7.0674,-7.0674,-5.8691,-2.3281,-0.7712,0.0,0.0,0.0,0.0,0.0,0.0,0.0,0.0,0.0,0.0,0.0,0.0,0.0,0.0,0.0,0.0,0.0,0.0,0.0,0.0,0.0,0.0,0.0,0.0,0.0,-3.7338,-4.1657,-4.6026,-5.0345,-5.1577,-5.1931,-5.3859,-5.6153,-5.791,-5.791,-5.791,-5.791,-5.791,-5.791,-5.791,-5.791,-5.791,-5.791,-5.791,-5.791,-5.791,-5.791,-5.791,-5.9594,-6.3889,-6.4304,-6.4304,-6.4304,-6.4304,-6.4304,-6.4304,-6.4304,-6.4304,-6.4304,-6.4304,-6.4304,-6.4304,-6.4304,-6.4304,-6.4304,-6.4304,-6.4304,-6.4304,-6.4304,-6.4304,-6.4304,-6.4304,-6.4304,-6.4304,-6.4304,-6.4304,-6.4304,-6.4304,-6.4304,-6.4304,-6.4304,-6.4304,-6.4304,-6.4304,-6.7086,-7.0674,-7.0674,-7.0674,-7.0674,-7.0674,-7.0674,-7.0674,-7.0674,-7.0674,-7.0674,-7.0674,-7.0674,-7.0674,-7.0674,-7.0674,-7.0674,-7.0674,-7.0674,-7.0674,-7.0674,-7.0674,-7.0674,-7.0674,-7.0674,-5.4591,-0.7126,0.0,0.0,0.0,0.0,0.0,0.0,0.0,0.0,0.0,0.0,0.0,0.0,0.0,0.0,0.0,0.0,0.0,0.0,0.0,0.0,0.0,0.0,0.0,0.0,0.0,0.0,-3.8192,-4.2097,-4.6026,-5.0345,-5.1577,-5.2702,-5.6934,-5.791,-5.791,-5.791,-5.791,-5.791,-5.791,-5.791,-5.791,-5.791,-5.791,-5.791,-5.791,-5.791,-5.791,-5.791,-5.791,-5.9594,-6.3889,-6.4304,-6.4304,-6.4304,-6.4304,-6.4304,-6.4304,-6.4304,-6.4304,-6.4304,-6.4304,-6.4304,-6.4304,-6.4304,-6.4304,-6.4304,-6.4304,-6.4304,-6.4304,-6.4304,-6.4304,-6.4304,-6.4304,-6.4304,-6.4304,-6.4304,-6.4304,-6.4304,-6.4304,-6.4304,-6.4304,-6.4304,-6.4304,-6.4304,-6.4304,-6.672,-6.9917,-7.0503,-7.0674,-7.0674,-7.0674,-7.0674,-7.0674,-7.0674,-7.0674,-7.0674,-7.0674,-7.0674,-7.0674,-7.0674,-7.0234,-6.9819,-6.9819,-6.9819,-6.9819,-6.9819,-7.0283,-7.0674,-7.0674,-6.5427,-4.7295,-0.6174,0.0,0.0,0.0,0.0,0.0,0.0,0.0,0.0,0.0,0.0,0.0,0.0,0.0,0.0,0.0,0.0,0.0,0.0,0.0,0.0,0.0,0.0,0.0,0.0,0.0,0.0,-4.2682,-4.4275,-4.6026,-5.0345,-5.1577,-5.2702,-5.6934,-5.791,-5.791,-5.791,-5.791,-5.791,-5.791,-5.791,-5.791,-5.791,-5.791,-5.791,-5.791,-5.791,-5.791,-5.791,-5.791,-5.9594,-6.3889,-6.4304,-6.4304,-6.4304,-6.4304,-6.4304,-6.4304,-6.4304,-6.4304,-6.4304,-6.4304,-6.4304,-6.4304,-6.4304,-6.4304,-6.4304,-6.4304,-6.4304,-6.4304,-6.4304,-6.4304,-6.4304,-6.4304,-6.4304,-6.4304,-6.4304,-6.4304,-6.4304,-6.4304,-6.4304,-6.4304,-6.4304,-6.4304,-6.4304,-6.4304,-6.4792,-6.5988,-6.9527,-7.0674,-7.0674,-7.0674,-7.0674,-7.0674,-7.0674,-7.0674,-7.0674,-7.0674,-7.0674,-7.0674,-7.0674,-6.7965,-6.5402,-6.5402,-6.5402,-6.5402,-6.5402,-6.8258,-7.0674,-7.0674,-3.8168,-0.942,-0.122,0.0,0.0,0.0,0.0,0.0,0.0,0.0,0.0,0.0,0.0,0.0,0.0,0.0,0.0,0.0,0.0,0.0,0.0,0.0,0.0,0.0,0.0,0.0,0.0,0.0,0.0,-4.4275,-4.4859,-4.5464,-4.7539,-4.9759,-5.2702,-5.6934,-5.791,-5.791,-5.791,-5.791,-5.791,-5.791,-5.791,-5.791,-5.791,-5.791,-5.791,-5.791,-5.791,-5.791,-5.791,-5.791,-5.9594,-6.3889,-6.4304,-6.4304,-6.4304,-6.4304,-6.4304,-6.4304,-6.4304,-6.4304,-6.4304,-6.4304,-6.4304,-6.4304,-6.4304,-6.4304,-6.4304,-6.4304,-6.4304,-6.4304,-6.4304,-6.4304,-6.4304,-6.4304,-6.4304,-6.4304,-6.4304,-6.4304,-6.4304,-6.4304,-6.4304,-6.4304,-6.4304,-6.4304,-6.4304,-6.4304,-6.4304,-6.4646,-6.6696,-6.7355,-6.7769,-7.0015,-7.0674,-7.0674,-7.0674,-7.0674,-7.0674,-7.0674,-6.9014,-6.7355,-6.7355,-6.5793,-6.4304,-6.4304,-6.4304,-6.4304,-6.4304,-6.5964,-6.7355,-6.7355,-4.8539,-2.5892,-0.3392,0.0,0.0,0.0,0.0,0.0,0.0,0.0,0.0,0.0,0.0,0.0,0.0,0.0,0.0,0.0,0.0,0.0,0.0,0.0,0.0,0.0,0.0,0.0,0.0,0.0,0.0,-4.3585,-4.3585,-4.3691,-4.4616,-4.8222,-5.2322,-5.5738,-5.6519,-5.6788,-5.7715,-5.791,-5.791,-5.791,-5.791,-5.791,-5.791,-5.791,-5.791,-5.791,-5.791,-5.791,-5.791,-5.791,-5.9594,-6.3889,-6.4304,-6.4304,-6.4304,-6.4304,-6.4304,-6.4304,-6.4304,-6.4304,-6.4304,-6.4304,-6.4304,-6.4304,-6.4304,-6.4304,0.0,-6.4304,-6.4304,-6.4304,-6.4304,-6.4304,-6.4304,-6.4304,-6.4304,-6.4304,-6.4304,-6.4304,-6.4304,-6.4304,-6.4304,-6.4304,-6.4304,-6.4304,-6.4304,-6.4304,-6.4304,-6.4304,-6.4304,-6.4304,-6.4914,-6.8282,-6.9307,-6.9307,-6.9307,-6.9307,-6.9307,-6.9307,-6.6818,-6.4304,-6.4304,-6.4304,-6.4304,-6.4304,-6.4304,-6.4304,-6.4304,-6.4304,-6.4304,-6.4304,-5.6617,-3.8997,-0.51,0.0,0.0,0.0,0.0,0.0,0.0,0.0,0.0,0.0,0.0,0.0,0.0,0.0,0.0,0.0,0.0,0.0,0.0,0.0,0.0,0.0,0.0,0.0,0.0,0.0,0.0,-3.9071,-3.9071,-4.0022,-4.3976,-4.8222,-5.1675,-5.1931,-5.2164,-5.3152,-5.7105,-5.791,-5.791,-5.791,-5.791,-5.791,-5.791,-5.791,-5.791,-5.791,-5.791,-5.791,-5.791,-5.791,-5.9594,-6.3889,-6.4304,-6.4304,-6.4304,-6.4304,-6.4304,-6.4304,-6.4304,-6.4304,-6.4304,-6.4304,-6.4304,-6.4304,-6.4304,-6.4304,-6.4304,-6.4304,-6.4304,-6.4304,-6.4304,-6.4304,-6.4304,-6.4304,-6.4304,-6.4304,-6.4304,-6.4304,-6.4304,-6.4304,-6.4304,-6.4304,-6.4304,-6.4304,-6.4304,-6.4304,-6.4304,-6.4304,-6.4304,-6.4304,-6.4377,-6.4768,-6.489,-6.489,-6.489,-6.489,-6.489,-6.489,-6.4597,-6.4304,-6.4304,-6.4304,-6.4304,-6.4304,-6.4304,-6.4304,-6.4304,-6.4304,-6.4304,-6.4304,-3.1798,-0.4515,-0.0586,0.0,0.0,0.0,0.0,0.0,0.0,0.0,0.0,0.0,0.0,0.0,0.0,0.0,0.0,0.0,0.0,0.0,0.0,0.0,0.0,0.0,0.0,0.0,0.0,0.0,0.0,-4.1682,-4.2389,-4.2194,-4.1291,-4.6294,-5.1577,-5.1577,-5.1577,-5.2066,-5.3664,-5.608,-5.791,-5.791,-5.791,-5.791,-5.791,-5.791,-5.791,-5.791,-5.791,-5.791,-5.791,-6.018,-6.2425,-6.4133,-6.4304,-6.4304,-6.4304,-6.4304,-6.4304,-6.4304,-6.4304,-6.4304,-6.4304,-6.4304,-6.4304,-6.4304,-6.4304,-6.4304,-6.4304,-6.4304,-6.4304,-6.4304,-6.4304,-6.4304,-6.4304,-6.4304,-6.4304,-6.4304,-6.4304,-6.4304,-6.4304,-6.4304,-6.4304,-6.4304,-6.4304,-6.4304,-6.4304,-6.4304,-6.4304,-6.4304,-6.4304,-6.4304,-6.4304,-6.4304,-6.4304,-6.4304,-6.4304,-6.4304,-6.4304,-6.4304,-6.4304,-6.4304,-6.4304,-6.4304,-6.4304,-6.4304,-6.4304,-6.4304,-6.4304,-6.4304,-6.4304,-6.4304,-2.8552,0.0,0.0,0.0,0.0,0.0,0.0,0.0,0.0,0.0,0.0,0.0,0.0,0.0,0.0,0.0,0.0,0.0,0.0,0.0,0.0,0.0,0.0,0.0,0.0,0.0,0.0,0.0,0.0,-4.1877,-4.3048,-4.2634,-4.0852,-4.4025,-4.7929,-4.9223,-5.0516,-5.1577,-5.1577,-5.3859,-5.6397,-5.7666,-5.6861,-5.6422,-5.7691,-5.791,-5.791,-5.791,-5.791,-5.791,-5.791,-6.1693,-6.4304,-6.4304,-6.4304,-6.4304,-6.4304,-6.4304,-6.4304,-6.4304,-6.4304,-6.4304,-6.4304,-6.4304,-6.4304,-6.4304,-6.4304,-6.4304,-6.4304,-6.4304,-6.4304,-6.4304,-6.4304,-6.4304,-6.4304,-6.4304,-6.4304,-6.4304,-6.4304,-6.4304,-6.4304,-6.4304,-6.4304,-6.4304,-6.4304,-6.4304,-6.4304,-6.4304,-6.4304,-6.4304,-6.4304,-6.4304,-6.4304,-6.4304,-6.4304,-6.4304,-6.4304,-6.4304,-6.4304,-6.4304,-6.4304,-6.4304,-6.4304,-6.4304,-6.4304,-6.4304,-6.4304,-6.4304,-6.4304,-6.4304,-6.0229,-4.7417,-2.0084,0.0,0.0,0.0,0.0,0.0,0.0,0.0,0.0,0.0,0.0,0.0,0.0,0.0,0.0,0.0,0.0,0.0,0.0,0.0,0.0,0.0,0.0,0.0,0.0,0.0,0.0,0.0,0.0,-3.7387,-3.8558,-3.9583,-4.3854,-4.1731,-3.9754,-4.3934,-4.8344,-5.1577,-5.1577,-5.1601,-5.281,-5.7129,-5.4396,-5.2908,-5.7203,-5.791,-5.791,-5.791,-5.791,-5.791,-5.791,-6.1693,-6.4304,-6.4304,-6.4304,-6.4304,-6.4304,-6.4304,-6.4304,-6.4304,-6.4304,-6.4304,-6.4304,-6.4304,-6.4304,-6.4304,-6.4304,-6.4304,-6.4304,-6.4304,-6.4304,-6.4304,-6.4304,-6.4304,-6.4304,-6.4304,-6.4304,-6.4304,-6.4304,-6.4304,-6.4304,-6.4304,-6.4304,-6.4304,-6.4304,-6.4304,-6.4304,-6.4304,-6.4304,-6.4304,-6.4304,-6.4304,-6.4304,-6.4304,-6.4304,-6.4304,-6.4304,-6.4304,-6.4304,-6.4304,-6.4304,-6.4304,-6.4304,-6.4304,-6.4304,-6.4304,-6.4304,-6.4304,-6.4304,-6.4304,-5.0736,-0.798,-0.0268,0.0,0.0,0.0,0.0,0.0,0.0,0.0,0.0,0.0,0.0,0.0,0.0,0.0,0.0,0.0,0.0,0.0,0.0,0.0,0.0,0.0,0.0,0.0,0.0,0.0,0.0,0.0,0.0,-3.7338,-3.8485,-3.8826,-4.0193,-3.951,-3.8851,-4.0218,-4.3902,-4.7856,-5.0965,-5.1577,-5.0955,-4.9345,-5.0345,-5.2859,-5.7203,-5.791,-5.791,-5.791,-5.791,-5.8984,-6.1937,-6.3474,-6.4304,-6.4304,-6.4304,-6.4304,-6.4304,-6.4304,-6.4304,-6.4304,-6.4304,-6.4304,-6.4304,-6.4304,-6.4304,-6.4304,-6.4304,-6.4304,-6.4304,-6.4304,-6.4304,-6.4304,-6.4304,-6.4304,-6.4304,-6.4304,-6.4304,-6.4304,-6.4304,-6.4304,-6.4304,-6.4304,-6.4304,-6.4304,-6.4304,-6.4304,-6.4304,-6.4304,-6.4304,-6.4304,-6.4304,-6.4304,-6.4304,-6.4304,-6.4304,-6.4304,-6.4304,-6.4304,-6.4304,-6.4304,-6.4304,-6.4304,-6.4304,-6.4304,-6.4304,-6.4304,-6.4304,-6.4304,-6.4304,-6.4304,-5.0614,-0.7419,0.0,0.0,0.0,0.0,0.0,0.0,0.0,0.0,0.0,0.0,0.0,0.0,0.0,0.0,0.0,0.0,0.0,0.0,0.0,0.0,0.0,0.0,0.0,0.0,0.0,0.0,0.0,0.0,0.0,-3.7772,-3.8485,-3.8485,-3.8485,-3.9729,-4.095,-4.095,-4.3024,-4.5733,-4.8442,-4.9003,-4.8173,-4.5464,-4.8515,-5.2859,-5.7203,-5.791,-5.791,-5.791,-5.791,-5.9497,-6.3792,-6.4304,-6.4304,-6.4304,-6.4304,-6.4304,-6.4304,-6.4304,-6.4304,-6.4304,-6.4304,-6.4304,-6.4304,-6.4304,-6.4304,-6.4304,-6.4304,-6.4304,-6.4304,-6.4304,-6.4304,-6.4304,-6.4304,-6.4304,-6.4304,-6.4304,-6.4304,-6.4304,-6.4304,-6.4304,-6.4304,-6.4304,-6.4304,-6.4304,-6.4304,-6.4304,-6.4304,-6.4304,-6.4304,-6.4304,-6.4304,-6.4304,-6.4304,-6.4304,-6.4304,-6.4304,-6.4304,-6.4304,-6.4304,-6.4304,-6.4304,-6.4304,-6.4304,-6.4304,-6.4304,-6.4304,-6.5573,-6.6232,-6.4597,-5.1126,-3.1457,-0.4612,0.0,0.0,0.0,0.0,0.0,0.0,0.0,0.0,0.0,0.0,0.0,0.0,0.0,0.0,0.0,0.0,0.0,0.0,0.0,0.0,0.0,0.0,0.0,0.0,0.0,0.0,0.0,0.0,0.0,-3.8414,-3.8485,-3.8582,-3.8875,-4.1755,-4.4372,-4.4372,-4.4372,-4.4372,-4.4372,-4.4372,-4.447,-4.4786,-4.8246,-5.2297,-5.6324,-5.7495,-5.791,-5.791,-5.791,-5.9497,-6.3792,-6.4304,-6.4304,-6.4304,-6.4304,-6.4304,-6.4304,-6.4304,-6.4304,-6.4304,-6.4304,-6.4304,-6.4304,-6.4304,-6.4304,-6.4304,-6.4304,-6.4304,-6.4304,-6.4304,-6.4304,-6.4304,-6.4304,-6.4304,-6.4304,-6.4304,-6.4304,-6.4304,-6.4304,-6.4304,-6.4304,-6.4304,-6.4304,-6.4304,-6.4304,-6.4304,-6.4304,-6.4304,-6.4304,-6.4304,-6.4304,-6.4304,-6.4304,-6.4304,-6.4304,-6.4304,-6.4304,-6.4304,-6.4304,-6.4304,-6.4304,-6.4304,-6.4304,-6.4304,-6.4304,-6.4304,-6.7647,-6.9429,-6.5134,-2.948,0.0,0.0,0.0,0.0,0.0,0.0,0.0,0.0,0.0,0.0,0.0,0.0,0.0,0.0,0.0,0.0,0.0,0.0,0.0,0.0,0.0,0.0,0.0,0.0,0.0,0.0,0.0,0.0,0.0,0.0,0.0,-3.8414,-3.8485,-3.929,-4.2609,-4.1706,-3.9998,-3.9998,-3.9998,-3.9998,-3.9998,-3.9998,-4.1023,-4.4366,-4.5806,-4.6831,-4.7832,-5.3566,-5.791,-5.791,-5.791,-5.9497,-6.3792,-6.4304,-6.4304,-6.4304,-6.4304,-6.4304,-6.4304,-6.4304,-6.4304,-6.4304,-6.4304,-6.4304,-6.4304,-6.4304,-6.4304,-6.4304,-6.4304,-6.4304,-6.4304,-6.4304,-6.4304,-6.4304,-6.4304,-6.4304,-6.4304,-6.4304,-6.4304,-6.4304,-6.4304,-6.4304,-6.4304,-6.4304,-6.4304,-6.4304,-6.4304,-6.4304,-6.4304,-6.4304,-6.4304,-6.4304,-6.4304,-6.4304,-6.4304,-6.4304,-6.4304,-6.4304,-6.4304,-6.4304,-6.4304,-6.4304,-6.4304,-6.4304,-6.4304,-6.4304,-6.4304,-6.4304,-6.7647,-6.9429,-6.5134,-2.948,0.0,0.0,0.0,0.0,0.0,0.0,0.0,0.0,0.0,0.0,0.0,0.0,0.0,0.0,0.0,0.0,0.0,0.0,0.0,0.0,0.0,0.0,0.0,0.0,0.0,0.0,0.0,0.0,0.0,0.0,0.0,-3.9134,-3.8485,-3.9071,-4.1413,-4.0218,-3.8485,-3.8485,-3.8485,-3.8485,-3.8485,-3.8485,-3.9217,-4.156,-4.3496,-4.4859,-4.4859,-5.2249,-5.7203,-5.5226,-5.4933,-5.6519,-6.0839,-6.3108,-6.4304,-6.4304,-6.4304,-6.4304,-6.4304,-6.4304,-6.4304,-6.4304,-6.4304,-6.4304,-6.4304,-6.4304,-6.4304,-6.4304,-6.4304,-6.4304,-6.4304,-6.4304,-6.4304,-6.4304,-6.4304,-6.4304,-6.4304,0.0,-6.4304,-6.4304,-6.4304,-6.4304,-6.4304,-6.4304,-6.4304,-6.4304,-6.4304,-6.4304,-6.4304,-6.4304,-6.4304,-6.4304,-6.4304,-6.4304,-6.4304,-6.4304,-6.4304,-6.4304,-6.4304,-6.4304,-6.4304,-6.4304,-6.4304,-6.4304,-6.4304,-6.4304,-6.4304,-6.4304,-6.611,-6.1205,-3.9046,-1.5936,0.0,0.0,0.0,0.0,0.0,0.0,0.0,0.0,0.0,0.0,0.0,0.0,0.0,0.0,0.0,0.0,0.0,0.0,0.0,0.0,0.0,0.0,0.0,0.0,0.0,0.0,0.0,0.0,0.0,0.0,0.0,-4.0798,-3.9597,-3.9426,-3.8685,-3.8485,-3.8485,-3.8485,-3.8485,-3.8485,-3.8485,-3.8485,-3.8485,-3.8485,-4.1511,-4.408,-4.4738,-5.1126,-5.5104,-5.2761,-5.2556,-5.4054,-5.8374,-6.2083,-6.4304,-6.4304,-6.4304,-6.4304,-6.4304,-6.4304,-6.4304,-6.4304,-6.4304,-6.4304,-6.4304,-6.4304,-6.4304,-6.4304,-6.4304,-6.4304,-6.4304,-6.4304,-6.4304,-6.4304,-6.4304,-6.4304,-6.4304,0.0,-6.4304,-6.4304,-6.4304,-6.4304,-6.4304,-6.4304,-6.4304,-6.4304,-6.4304,-6.4304,-6.4304,-6.4304,-6.4304,-6.4304,-6.4304,-6.4304,-6.4304,-6.4304,-6.4304,-6.4304,-6.4304,-6.4304,-6.4304,-6.4304,-6.4304,-6.4304,-6.4304,-6.4304,-6.4304,-6.4304,-6.4304,-5.1541,-0.8371,0.0,0.0,0.0,0.0,0.0,0.0,0.0,0.0,0.0,0.0,0.0,0.0,0.0,0.0,0.0,0.0,0.0,0.0,0.0,0.0,0.0,0.0,0.0,0.0,0.0,0.0,0.0,0.0,0.0,0.0,0.0,0.0,-4.4957,-4.4756,-4.3737,-3.9499,-3.8485,-3.8485,-3.8485,-3.8485,-3.8485,-3.8485,-3.8485,-3.8485,-3.8485,-3.9022,-4.0681,-4.4366,-4.6099,-4.9271,-5.5982,-5.6934,-5.852,-6.2815,-6.3889,-6.4304,-6.4304,-6.4304,-6.4304,-6.4304,-6.4304,-6.4304,-6.4304,-6.4304,-6.4304,-6.4304,-6.4304,-6.4304,-6.4304,-6.4304,-6.4304,-6.4304,-6.4304,-6.4304,-6.4304,-6.4304,-6.4304,-6.4304,0.0,0.0,-6.4304,-6.4304,-6.4304,-6.4304,-6.4304,-6.4304,-6.4304,-6.4304,-6.4304,-6.4304,-6.4304,-6.4304,-6.4304,-6.4304,-6.4304,-6.4304,-6.4304,-6.4304,-6.4304,-6.4304,-6.4304,-6.4304,-6.4304,-6.4304,-6.4304,-6.4304,-6.4304,-6.4304,-6.4304,-6.4304,-5.1541,-0.8371,0.0,0.0,0.0,0.0,0.0,0.0,0.0,0.0,0.0,0.0,0.0,0.0,0.0,0.0,0.0,0.0,0.0,0.0,0.0,0.0,0.0,0.0,0.0,0.0,0.0,0.0,0.0,0.0,0.0,0.0,0.0,0.0,-4.2491,-4.377,-4.467,-3.9694,-3.8485,-3.8485,-3.8485,-3.8485,-3.8485,-3.8485,-3.8485,-3.8485,-3.8485,-3.8485,-3.99,-4.4269,-4.4859,-4.6367,-5.0345,-5.4957,-5.8642,-6.0619,-6.2889,-6.4304,-6.4304,-6.4304,-6.4304,-6.4304,-6.4304,-6.4304,-6.4304,-6.4304,-6.4304,-6.4304,-6.4304,-6.4304,-6.4304,-6.4304,-6.4304,-6.4304,-6.4304,-6.4304,-6.4304,-6.4304,-6.4304,-6.4304,-6.4304,-6.4304,-6.4304,-6.4304,-6.4304,-6.4304,-6.4304,-6.4304,-6.4304,-6.4304,-6.4304,-6.4304,-6.4304,-6.4304,-6.4304,-6.4304,-6.4304,-6.4304,-6.4304,-6.4304,-6.4304,-6.4304,-6.4304,-6.4304,-6.4304,-6.4304,-6.4304,-6.4304,-6.4304,-6.4304,-6.4304,-4.5977,-2.3647,-0.3831,0.0,0.0,0.0,0.0,0.0,0.0,0.0,0.0,0.0,0.0,0.0,0.0,0.0,0.0,0.0,0.0,0.0,0.0,0.0,0.0,0.0,0.0,0.0,0.0,0.0,0.0,0.0,0.0,0.0,0.0,0.0,0.0,-3.9394,0.0,-4.467,-3.9694,-3.8485,-3.8485,0.0,-3.8485,-3.8485,-3.8485,-3.8485,-3.8485,-3.8485,-3.8485,-3.99,-4.4269,-4.4859,-4.4859,-4.4859,-5.1565,-5.6763,-5.7788,-6.1693,-6.4304,-6.4304,-6.4304,-6.4304,-6.4304,-6.4304,-6.4304,-6.4304,-6.4304,-6.4304,-6.4304,-6.4304,-6.4304,-6.4304,-6.4304,-6.4304,-6.4304,-6.4304,-6.4304,-6.4304,-6.4304,-6.4304,-6.4304,-6.4304,-6.4304,-6.4304,-6.4304,-6.4304,-6.4304,-6.4304,-6.4304,-6.4304,-6.4304,-6.4304,-6.4304,-6.4304,-6.4304,-6.4304,-6.4304,-6.4304,-6.4304,-6.4304,-6.4304,-6.4304,-6.4304,-6.4304,-6.4304,-6.4304,-6.4304,-6.4304,-6.4304,-6.4304,-6.4304,-6.4304,-3.0432,0.0,0.0,0.0,0.0,0.0,0.0,0.0,0.0,0.0,0.0,0.0,0.0,0.0,0.0,0.0,0.0,0.0,0.0,0.0,0.0,0.0,0.0,0.0,0.0,0.0,0.0,0.0,0.0,0.0,0.0,0.0,0.0,0.0,0.0,0.0,-4.2116,-4.467,-3.9694,-3.8485,-3.8485,-3.8485,-3.8485,0.0,-3.8485,-3.8485,-3.8485,-3.8485,-3.8485,-3.99,-4.4269,-4.4859,-4.4859,-4.4859,-4.8978,-5.3396,-5.7422,-6.1693,-6.4304,-6.4304,-6.4304,-6.4304,-6.4304,-6.4304,-6.4304,-6.4304,-6.4304,-6.4304,-6.4304,-6.4304,-6.4304,-6.4304,-6.4304,-6.4304,-6.4304,-6.4304,-6.4304,-6.4304,-6.4304,-6.4304,0.0,-6.4304,-6.4304,-6.4304,-6.4304,-6.4304,-6.4304,-6.4304,-6.4304,-6.4304,-6.4304,-6.4304,-6.4304,-6.4304,-6.4304,-6.4304,-6.4304,-6.4304,-6.4304,-6.4304,-6.4304,-6.4304,-6.4304,-6.4304,-6.4304,-6.4304,-6.4304,-6.4304,-6.4304,-6.4304,-6.4304,-6.4304,-3.0432,0.0,0.0,0.0,0.0,0.0,0.0,0.0,0.0,0.0,0.0,0.0,0.0,0.0,0.0,0.0,0.0,0.0,0.0,0.0,0.0,0.0,0.0,0.0,0.0,0.0,0.0,0.0,0.0,0.0,0.0,0.0,0.0,0.0,0.0,-4.1744,-4.3855,-4.487,-4.2927,-4.2511,-4.1804,-3.9095,-3.8485,-3.8485,-3.8485,-3.8485,-3.8485,-3.8485,-3.8485,-3.9022,-4.0657,-4.3195,-4.4859,-4.4859,-4.6367,-4.9027,-5.3371,-5.7691,-6.1376,-6.4036,-6.4304,-6.4304,-6.4304,-6.4304,-6.4304,-6.4304,-6.4304,-6.4304,-6.4304,-6.4304,-6.4304,-6.4304,-6.4304,-6.4304,-6.4304,-6.4304,-6.4304,-6.4112,-5.805,-5.8579,-6.4304,-6.4304,-6.4304,0.0,-6.4304,-6.4304,-6.4304,-6.4304,-6.4304,-6.4304,-6.4304,-6.4304,-6.4304,-6.4304,-6.4304,-6.4304,-6.4304,-6.4304,-6.4304,-6.4304,-6.4304,-6.4304,-6.4304,-6.4304,-6.4304,-6.4304,-6.4304,-6.4304,-6.4304,-6.4304,-5.6934,-3.0066,-1.147,0.0,0.0,0.0,0.0,0.0,0.0,0.0,0.0,0.0,0.0,0.0,0.0,0.0,0.0,0.0,0.0,0.0,0.0,0.0,0.0,0.0,0.0,0.0,0.0,0.0,0.0,0.0,0.0,0.0,0.0,0.0,0.0,0.0,0.0,-4.4171,-4.4859,-4.4859,-4.4859,-4.4859,-4.3715,-3.9485,-3.8485,-3.8485,-3.8485,-3.8485,-3.8485,-3.8485,-3.8485,-3.8485,-3.8485,-4.2145,-4.4859,-4.4859,-4.4859,-4.6587,-5.1063,-5.5275,-5.9057,-6.1986,-6.3499,-6.4304,-6.4304,-6.4304,-6.4304,-6.4304,-6.4304,-6.4304,-6.4304,-6.4304,-6.4304,-6.4304,-6.4304,-6.4304,-6.4304,-6.4304,-6.4304,-6.3945,-5.432,-5.3608,-5.9826,-5.9826,-6.1427,-6.4304,-6.4304,-6.4304,-6.4304,-6.4304,-6.4304,-6.4304,-6.4304,-6.4304,-6.4304,-6.4304,-6.4304,-6.4304,-6.4304,-6.4304,-6.4304,-6.4304,-6.4304,-6.4304,-6.4304,-6.4304,-6.4304,-6.4304,-6.4304,-6.4304,-6.4304,-6.4304,-5.2493,-0.9298,0.0,0.0,0.0,0.0,0.0,0.0,0.0,0.0,0.0,0.0,0.0,0.0,0.0,0.0,0.0,0.0,0.0,0.0,0.0,0.0,0.0,0.0,0.0,0.0,0.0,0.0,0.0,0.0,0.0,0.0,0.0,0.0,0.0,0.0,0.0,-4.4859,-4.4884,-4.4908,-4.4859,-4.4859,-4.3854,-3.9534,-3.8534,-3.8485,-3.8485,-3.8485,-3.8485,-3.8485,-3.8485,-3.8485,-3.8485,-4.2145,-4.4859,-4.4859,-4.4932,-4.6685,-5.1112,-5.5299,-5.791,-5.791,-6.1791,-6.4304,-6.4304,-6.4304,-6.4304,-6.4304,-6.4304,-6.4304,-6.4304,-6.4304,-6.4304,-6.4304,-6.4304,-6.4304,-6.4304,-6.4304,-6.4304,-6.3945,-5.4482,-5.002,-5.0039,-5.0039,-5.5389,0.0,-6.4112,-6.428,-6.428,-6.428,-6.428,-6.4304,-6.4304,-6.4304,-6.4304,-6.4304,-6.4304,-6.4304,-6.4304,-6.4304,-6.4304,-6.4304,-6.4304,-6.4304,-6.4304,-6.4304,-6.4304,-6.4304,-6.4304,-6.4304,-6.4304,-6.4304,-5.2493,-0.9298,0.0,0.0,0.0,0.0,0.0,0.0,0.0,0.0,0.0,0.0,0.0,0.0,0.0,0.0,0.0,0.0,0.0,0.0,0.0,0.0,0.0,0.0,0.0,0.0,0.0,0.0,0.0,0.0,0.0,0.0,0.0,0.0,0.0,0.0,0.0,-4.4859,-4.7197,-4.8783,-4.5733,-4.4859,-4.4518,-4.3228,-4.0681,-3.8485,-3.8485,-3.8485,-3.8485,-3.8485,-3.8485,-3.8485,-3.8485,-4.2145,-4.4859,-4.4859,-5.0223,-5.4567,-5.5836,-5.7129,-5.791,-5.791,-6.1791,-6.4304,-6.4304,-6.4304,-6.4304,-6.4304,-6.4304,-6.4304,-6.4304,-6.4304,-6.4304,-6.4304,-6.4304,-6.4304,-6.4304,-6.4304,-6.4304,-6.428,-6.1427,-5.6448,-5.0039,-5.0039,-5.1633,0.0,-5.4137,-5.8226,-6.3753,-5.6806,-5.8403,-6.4304,-6.4304,-6.4304,-6.4304,-6.4304,-6.4304,-6.4304,-6.4304,-6.4304,-6.4304,-6.4304,-6.4304,-6.4304,-6.4304,-6.4304,-6.4304,-6.4304,-6.4304,-6.4304,-6.4304,-6.4304,-5.2493,-0.9298,0.0,0.0,0.0,0.0,0.0,0.0,0.0,0.0,0.0,0.0,0.0,0.0,0.0,0.0,0.0,0.0,0.0,0.0,0.0,0.0,0.0,0.0,0.0,0.0,0.0,0.0,0.0,0.0,0.0,0.0,0.0,0.0,0.0,0.0,0.0,-4.7075,-4.9442,-5.0809,-4.8198,-4.6245,-4.4859,-4.4859,-4.1609,-3.8485,-3.8485,-3.8485,-3.8485,-3.8485,-3.8485,-3.8485,-3.8485,-4.2145,-4.5562,-4.7319,-5.3542,-5.791,-5.791,-5.791,-5.791,-5.791,-6.1791,-6.4304,-6.4304,-6.4304,-6.4304,-6.4304,-6.4304,-6.4304,-6.4304,-6.4304,-6.4304,-6.4304,-6.4304,-6.4304,-6.4304,-6.4304,-6.4304,-6.428,-6.0369,-5.5389,-5.0039,-5.0039,-5.0039,0.0,-5.0039,-5.3425,-5.805,-5.2171,-5.3425,-5.8579,-5.8579,-6.106,-6.3753,-6.0,-6.1083,-6.4304,-6.4304,-6.1793,-5.8579,-5.8579,-5.8579,-5.8579,-5.8579,-6.1427,-6.4304,-6.4304,-6.4304,-6.4304,-6.4304,-6.4304,-5.2493,-0.9298,0.0,0.0,0.0,0.0,0.0,0.0,0.0,0.0,0.0,0.0,0.0,0.0,0.0,0.0,0.0,0.0,0.0,0.0,0.0,0.0,0.0,0.0,0.0,0.0,0.0,0.0,0.0,0.0,0.0,0.0,0.0,0.0,0.0,0.0,0.0,-4.9784,-5.1259,-5.1479,-5.1063,-4.788,-4.4859,-4.4859,-4.1609,-3.8485,-3.8485,-3.8485,-3.8485,-3.8485,-3.8485,-3.8631,-3.9022,-4.2731,-4.6953,-5.0882,-5.5177,-5.791,-5.791,-5.791,-5.791,-5.791,-6.1424,-6.3865,-6.4255,-6.4304,-6.4304,-6.4304,-6.4304,-6.4304,-6.4304,-6.4304,-6.4304,-6.4304,-6.4304,-6.4304,-6.4304,-6.4304,-6.4304,-6.3945,-5.432,-5.0039,-5.0039,-5.0039,-5.0039,0.0,-5.0039,-5.0039,-5.0039,-5.0039,-5.0039,-5.0039,-5.0039,-5.557,-6.1793,-5.3056,-5.575,-6.303,-6.303,-5.7162,-5.0209,-5.0923,-5.1278,-5.1278,-5.1278,-5.7518,-6.4304,-6.4304,-6.4304,-6.4304,-6.4304,-6.1278,-4.7661,-0.8444,0.0,0.0,0.0,0.0,0.0,0.0,0.0,0.0,0.0,0.0,0.0,0.0,0.0,0.0,0.0,0.0,0.0,0.0,0.0,0.0,0.0,0.0,0.0,0.0,0.0,0.0,0.0,0.0,0.0,0.0,0.0,0.0,0.0,0.0,0.0,-4.6099,-4.8856,-5.0614,-4.7221,-4.566,-4.4859,-4.4859,-4.1609,-3.8485,-3.8485,-3.8485,-3.8485,-3.8485,-3.8485,-3.9607,-4.3024,-4.7221,-5.037,-5.143,-5.5177,-5.791,-5.791,-5.791,-5.791,-5.791,-5.874,-6.0668,-6.406,-6.4304,-6.4304,-6.4304,-6.4304,-6.4304,-6.4304,-6.4304,-6.4304,-6.4304,-6.4304,-6.4304,-6.4304,-6.4304,-6.4304,-6.3945,-5.432,-5.0039,-5.0039,-5.0039,-5.0039,-5.0039,-5.0039,-5.0039,-5.0039,-5.0039,-5.0039,-5.0039,-5.0039,-5.1278,-5.2707,-5.0755,-5.1278,-5.3077,-5.3077,-5.1633,-5.1465,-5.893,-6.1255,-6.1255,-6.1255,-6.2692,-6.4304,-6.4304,-6.4304,-6.4304,-6.4304,-3.8412,-1.125,-0.2001,0.0,0.0,0.0,0.0,0.0,0.0,0.0,0.0,0.0,0.0,0.0,0.0,0.0,0.0,0.0,0.0,0.0,0.0,0.0,0.0,0.0,0.0,0.0,0.0,0.0,0.0,0.0,0.0,0.0,0.0,0.0,0.0,0.0,0.0,0.0,-4.4859,-4.6611,-4.7783,-4.5538,-4.4859,-4.4859,-4.4859,-4.1609,-3.8485,-3.8485,-3.8485,-3.8485,-3.8485,-3.8485,-4.0584,-4.7026,-4.9955,-5.1577,-5.1577,-5.5177,-5.791,-5.791,-5.791,-5.791,-5.791,-5.791,-5.8838,-6.1058,-6.1229,-6.1229,-6.1229,-6.1229,-6.2157,-6.4231,-5.9826,-5.7518,-5.7518,-6.1964,-6.1964,-5.7518,-5.7518,-5.7518,-5.734,-5.2171,-5.0039,-5.0039,-5.0039,-5.0039,-5.0039,-5.0039,-5.0039,-5.0039,-5.0039,-5.0039,-5.0039,-5.0039,-5.0039,-5.0039,-5.0039,-5.0039,-5.0039,-5.0039,-5.0039,-5.0923,-5.5909,-5.7518,-5.7518,-5.7518,-6.0715,-6.4304,-6.4304,-6.4304,-6.4304,-6.4304,-4.7173,-2.5185,-0.4466,0.0,0.0,0.0,0.0,0.0,0.0,0.0,0.0,0.0,0.0,0.0,0.0,0.0,0.0,0.0,0.0,0.0,0.0,0.0,0.0,0.0,0.0,0.0,0.0,0.0,0.0,0.0,0.0,0.0,0.0,0.0,0.0,0.0,0.0,0.0,-4.4859,-4.4859,-4.4859,-4.4859,-4.4859,-4.4859,-4.4859,-4.2194,-3.9607,-3.9607,-3.9022,-3.8485,-3.8485,-3.8485,-4.1316,-5.0158,-5.1577,-5.1822,-5.2444,-5.5641,-5.791,-5.791,-5.791,-5.791,-5.791,-5.791,-5.791,-5.791,-5.791,-5.791,-5.791,-5.791,-5.9545,-6.3084,-5.548,-5.0859,-5.002,-5.7873,-5.7873,-5.0039,-5.0039,-5.0039,-5.0039,-5.0039,-5.0039,-5.0039,-5.0039,0.0,-5.0039,-5.0039,-5.0039,-5.0039,-5.0039,-5.0039,-5.0039,-5.0039,-5.0039,-5.0039,-5.0039,-5.0039,-5.0039,-5.0039,-5.0039,-5.0039,-5.0039,-5.0039,-5.0039,-5.0039,-5.5729,-6.1793,-6.1793,-6.1793,-6.2328,-6.3945,-6.4304,-5.2493,-0.9298,0.0,0.0,0.0,0.0,0.0,0.0,0.0,0.0,0.0,0.0,0.0,0.0,0.0,0.0,0.0,0.0,0.0,0.0,0.0,0.0,0.0,0.0,0.0,0.0,0.0,0.0,0.0,0.0,0.0,0.0,0.0,0.0,0.0,0.0,0.0,-4.4859,-4.4859,-4.4859,-4.4859,-4.4859,-4.4859,-4.4859,-4.4397,-4.3983,-4.3983,-4.112,-3.8485,-3.8485,-3.8485,-4.1316,-5.0158,-5.1577,-5.2737,-5.6519,-5.7544,-5.791,-5.791,-5.791,-5.791,-5.791,-5.791,-5.791,-5.791,-5.791,-5.791,-5.791,-5.791,-5.8179,-5.874,-5.7616,-5.4666,-5.0001,-5.1278,-5.1278,-5.0039,-5.0039,-5.0039,-5.0039,-5.0039,-5.0039,-5.0039,-5.0039,-5.0039,-5.0039,-5.0039,-5.0039,-5.0039,-5.0039,-5.0039,-5.0039,-5.0039,-5.0039,-5.0039,-5.0039,-5.0039,-5.0039,-5.0039,-5.0039,-5.0039,-5.0039,-5.0039,-5.0039,-5.0039,-5.0923,-5.1819,-5.1819,-5.1819,-5.3954,-6.2328,-6.4304,-5.2493,-0.9298,0.0,0.0,0.0,0.0,0.0,0.0,0.0,0.0,0.0,0.0,0.0,0.0,0.0,0.0,0.0,0.0,0.0,0.0,0.0,0.0,0.0,0.0,0.0,0.0,0.0,0.0,0.0,0.0,0.0,0.0,0.0,0.0,0.0,0.0,0.0,-4.4859,-4.4859,-4.4859,-4.4859,-4.4859,-4.4859,-4.4859,-4.4859,-4.4859,-4.4859,-4.3463,-4.1364,-3.8949,-4.0486,-4.339,-4.7173,-4.9857,-5.2238,-5.4006,-5.6373,-5.791,-5.791,-5.791,-5.791,-5.791,-5.791,-5.791,-5.791,-5.791,-5.5812,-5.0953,-5.0631,-5.289,-5.7735,-5.791,-5.684,-5.4465,-4.9566,-4.7191,-4.7229,-4.9128,-5.1007,-5.2753,-5.0874,-5.0039,-5.0039,0.0,-5.0039,-5.0039,-5.0039,-5.0039,-5.0039,-5.0039,-5.0039,-5.0039,-5.0039,-5.0039,-5.0039,-5.0039,-5.0039,-5.0039,-5.0039,-5.0039,-5.0039,-5.0039,-5.0039,-5.0039,-5.0039,-5.0039,-5.0039,-5.0039,-5.0039,-5.1091,-5.5208,-5.6269,-4.5937,-0.8146,0.0,0.0,0.0,0.0,0.0,0.0,0.0,0.0,0.0,0.0,0.0,0.0,0.0,0.0,0.0,0.0,0.0,0.0,0.0,0.0,0.0,0.0,0.0,0.0,0.0,0.0,0.0,0.0,0.0,0.0,0.0,0.0,0.0,0.0,0.0,-4.4659,-4.4859,-4.4859,-4.4859,-4.4859,-4.4859,-4.4859,-4.4859,-4.4859,-4.4859,-4.4859,-4.3521,-3.929,-4.2048,-4.5224,-4.644,-4.932,-5.1577,-5.1577,-5.5177,-5.791,-5.791,-5.791,-5.791,-5.791,-5.791,-5.791,-5.791,-5.791,-5.5148,-4.8532,-4.6096,-4.7892,-5.4349,-5.466,-5.5635,-5.791,-5.1435,-4.8223,-4.8243,-4.8548,-5.0039,-5.2355,-4.9868,-4.9203,-5.0039,-5.0039,-5.0039,-5.0039,-5.0039,-5.0039,-5.0039,-5.0039,-5.0039,-5.0039,-5.0039,-5.0039,-5.0039,-5.0039,-5.0039,-5.0039,-5.0039,-5.0039,-5.0039,-5.0039,-5.0039,-5.0039,-5.0039,-5.0039,-5.0039,-5.0039,-5.0039,-5.0039,-5.0039,-5.0039,-4.0851,-0.7251,0.0,0.0,0.0,0.0,0.0,0.0,0.0,0.0,0.0,0.0,0.0,0.0,0.0,0.0,0.0,0.0,0.0,0.0,0.0,0.0,0.0,0.0,0.0,0.0,0.0,0.0,0.0,0.0,0.0,0.0,0.0,0.0,0.0,0.0,0.0,-4.374,-4.4859,-4.4859,-4.4859,-4.4859,-4.4859,-4.4859,-4.4859,-4.4859,-4.4859,-4.4859,-4.3521,-3.929,-4.2048,-4.6318,-5.0443,-5.1406,-5.1577,-5.1577,-5.5177,-5.791,-5.791,-5.791,-5.791,-5.791,-5.791,-5.791,-5.791,-5.791,-5.776,-5.7258,-4.9352,-4.514,-4.5629,-4.5629,-4.9495,-5.791,-5.7433,-5.7258,-5.7106,-4.9047,-4.5331,-4.5483,-4.5312,-4.6982,-5.0039,-5.0039,-5.0039,-5.0039,-5.0039,-5.0039,-5.0039,-5.0039,-5.0039,-5.0039,-5.0039,-5.0039,-5.0039,-5.0039,-5.0039,-5.0039,-5.0039,-5.0039,-5.0039,-5.0039,-5.0039,-5.0039,-5.0039,-5.0039,-5.0039,-5.0039,-5.0039,-5.0039,-5.0039,-5.0039,-4.0851,-0.7251,0.0,0.0,0.0,0.0,0.0,0.0,0.0,0.0,0.0,0.0,0.0,0.0,0.0,0.0,0.0,0.0,0.0,0.0,0.0,0.0,0.0,0.0,0.0,0.0,0.0,0.0,0.0,0.0,0.0,0.0,0.0,0.0,0.0,0.0,0.0,-4.0388,-4.2853,-4.4859,-4.4859,-4.4859,-4.4859,-4.4859,-4.4859,-4.4859,-4.4859,-4.4859,-4.5342,-4.6587,-4.8076,-4.9637,-5.1308,-5.1577,-5.1577,-5.1577,-5.2785,-5.4787,-5.7593,-5.791,-5.791,-5.791,-5.791,-5.791,-5.791,-5.791,-5.791,-5.791,-5.4993,-5.3206,-5.3206,-4.7892,-4.6432,-4.9516,-4.9495,-4.9495,-4.9495,-4.6432,-4.497,-4.497,-4.497,-4.5635,-4.6793,-4.6793,-4.6793,-4.6963,-4.9128,-5.0039,-5.0039,-5.0039,-5.0039,-5.0039,-5.0039,-5.0039,-5.0039,-5.0039,-5.0039,-5.0039,-5.0039,-5.0039,-5.0039,-5.0039,-5.0039,-5.0039,-5.0039,-5.0039,-5.0039,-5.0039,-5.0039,-5.0039,-5.0039,-3.3562,-1.4598,-0.2582,0.0,0.0,0.0,0.0,0.0,0.0,0.0,0.0,0.0,0.0,0.0,0.0,0.0,0.0,0.0,0.0,0.0,0.0,0.0,0.0,0.0,0.0,0.0,0.0,0.0,0.0,0.0,0.0,0.0,0.0,0.0,0.0,0.0,0.0,0.0,-3.8485,-4.1657,-4.4859,-4.4859,-4.4859,-4.4859,-4.4859,-4.4859,-4.4859,-4.4859,-4.4859,-4.6294,-5.0638,-5.1577,-5.1577,-5.1577,-5.1577,-5.1577,-5.1577,-5.1577,-5.2493,-5.5397,-5.5738,-5.63,-5.7764,-5.6592,-5.6348,-5.7788,-5.791,-5.791,-5.791,-5.5148,-5.3543,-5.3543,-4.7892,-4.497,-4.497,-4.497,-4.497,-4.497,-4.497,-4.497,-4.497,-4.497,-4.497,-4.497,-4.497,-4.497,-4.516,-4.74,-4.833,-4.833,-4.833,-4.833,-4.833,-4.833,-4.833,-4.833,-4.833,-4.833,-4.833,-4.833,-4.833,-4.833,-4.833,-4.9128,-5.0039,-5.0039,-5.0039,-5.0039,-5.0039,-5.0039,-5.0039,-5.0039,-2.4412,0.0,0.0,0.0,0.0,0.0,0.0,0.0,0.0,0.0,0.0,0.0,0.0,0.0,0.0,0.0,0.0,0.0,0.0,0.0,0.0,0.0,0.0,0.0,0.0,0.0,0.0,0.0,0.0,0.0,0.0,0.0,0.0,0.0,0.0,0.0,0.0,0.0,-3.8485,-4.156,-4.4689,-4.4811,-4.4859,-4.4859,-4.4859,-4.4859,-4.4859,-4.4859,-4.4859,-4.6245,-5.0467,-5.1381,-5.1406,-5.1552,-5.1577,-5.1577,-5.1577,-5.1577,-5.1577,-5.1577,-5.1577,-5.3078,-5.73,-5.3908,-5.3176,-5.7398,-5.7715,-5.7764,-5.791,-4.9821,-4.5291,-4.5291,-4.497,-4.497,-4.497,-4.497,-4.497,-4.497,-4.497,-4.497,-4.497,-4.497,-4.497,-4.497,-4.497,-4.497,-4.497,-4.497,-4.497,-4.497,-4.497,-4.497,-4.497,-4.497,-4.497,-4.497,-4.497,-4.497,-4.497,-4.497,-4.497,-4.497,-4.497,-4.7267,-4.9868,-4.9868,-4.9868,-4.9868,-4.9868,-4.9868,-4.9906,-5.0001,-2.4412,0.0,0.0,0.0,0.0,0.0,0.0,0.0,0.0,0.0,0.0,0.0,0.0,0.0,0.0,0.0,0.0,0.0,0.0,0.0,0.0,0.0,0.0,0.0,0.0,0.0,0.0,0.0,0.0,0.0,0.0,0.0,0.0,0.0,0.0,0.0,0.0,0.0,-3.9426,-3.9363,-4.1023,-4.4171,-4.4859,-4.4859,-4.4859,-4.4859,-4.4859,-4.4859,-4.4859,-4.5224,-4.6538,-4.6758,-4.7783,-5.1063,-5.1577,-5.1577,-5.1577,-5.1577,-5.1577,-5.1577,-5.1577,-5.2042,-5.3103,-5.2262,-5.1931,-5.3127,-5.3225,-5.4591,-5.7739,-5.5635,-5.4349,-5.4349,-4.8223,-4.497,-4.497,-4.497,-4.497,-4.497,-4.497,-4.497,-4.497,-4.497,-4.497,-4.497,-4.497,-4.497,-4.497,-4.497,-4.497,-4.497,-4.497,-4.497,-4.497,-4.497,-4.497,-4.497,-4.497,-4.497,-4.497,-4.497,-4.497,-4.497,-4.497,-4.5635,-4.6375,-4.6375,-4.6375,-4.6375,-4.6375,-4.6375,-4.6982,-4.945,-2.4412,0.0,0.0,0.0,0.0,0.0,0.0,0.0,0.0,0.0,0.0,0.0,0.0,0.0,0.0,0.0,0.0,0.0,0.0,0.0,0.0,0.0,0.0,0.0,0.0,0.0,0.0,0.0,0.0,0.0,0.0,0.0,0.0,0.0,0.0,0.0,0.0,0.0,-4.1496,-4.1194,-4.1804,-4.4226,-4.3496,-4.2267,-4.2267,-4.3683,-4.4859,-4.4859,-4.4859,-4.4859,-4.4859,-4.4859,-4.5806,-4.832,-4.8734,-4.9369,-5.1308,-5.1577,-5.1577,-5.1577,-5.1577,-5.1577,-5.1577,-5.1577,-5.1577,-5.1577,-5.1577,-5.1207,-5.0466,-4.9175,-4.8275,-4.8275,-4.4739,-4.2882,-4.2882,-4.4287,-4.497,-4.497,-4.497,-4.497,-4.497,-4.497,-4.497,-4.497,-4.497,-4.497,-4.497,-4.497,-4.497,-4.497,-4.497,-4.497,-4.497,-4.497,-4.497,-4.497,-4.497,-4.497,-4.497,-4.497,-4.497,-4.497,-4.497,-4.497,-4.497,-4.497,-4.497,-4.497,-4.497,-4.497,-4.5483,-4.7438,-2.3387,0.0,0.0,0.0,0.0,0.0,0.0,0.0,0.0,0.0,0.0,0.0,0.0,0.0,0.0,0.0,0.0,0.0,0.0,0.0,0.0,0.0,0.0,0.0,0.0,0.0,0.0,0.0,0.0,0.0,0.0,0.0,0.0,0.0,0.0,0.0,0.0,0.0,-4.2487,-4.3423,-4.3423,-4.3423,-4.0632,-3.7899,0.0,-4.1462,-4.4129,-4.4129,-4.4129,-4.4129,-4.4129,-4.4129,-4.4275,-4.4762,-4.4859,-4.6318,-5.0174,-5.1259,-5.1577,-5.1577,-5.1577,-5.1577,-5.1577,-5.1577,-5.1577,-5.1577,-5.1577,-4.8558,-4.1697,-3.8505,-3.6452,-3.5555,-3.8421,-3.9978,-3.9978,-4.2939,-4.442,-4.442,-4.442,-4.461,-4.497,-4.497,-4.497,-4.497,-4.497,-4.497,-4.497,-4.497,-4.497,-4.497,-4.497,-4.497,-4.497,-4.497,-4.497,-4.497,-4.497,-4.497,-4.497,-4.497,-4.497,-4.497,-4.497,-4.497,-4.497,-4.497,-4.497,-4.497,-4.497,-4.497,-4.4116,-4.0756,-1.9476,0.0,0.0,0.0,0.0,0.0,0.0,0.0,0.0,0.0,0.0,0.0,0.0,0.0,0.0,0.0,0.0,0.0,0.0,0.0,0.0,0.0,0.0,0.0,0.0,0.0,0.0,0.0,0.0,0.0,0.0,0.0,0.0,0.0,0.0,0.0,0.0,0.0,0.0,0.0,0.0,0.0,0.0,0.0,0.0,-3.9144,-3.9754,-3.9754,-3.9754,-3.9754,-3.9754,-3.9754,-4.0876,-4.4275,-4.4859,-4.5151,-4.6123,-4.9223,-5.1577,-5.1577,-5.1577,-5.1577,-5.1577,-5.1577,-5.1577,-5.1577,-5.1577,-5.0858,-4.9406,-4.8654,-4.5428,-3.9304,-3.9636,-3.9978,-3.9978,-4.0623,-4.0946,-4.0946,-4.0946,-4.237,-4.497,-4.497,-4.497,-4.497,-4.497,-4.497,-4.497,-4.497,-4.497,-4.497,-4.497,-4.497,-4.497,-4.497,-4.497,-4.497,-4.497,-4.497,-4.497,-4.497,-4.497,-4.497,-4.497,-4.497,-4.497,-4.497,-4.497,-4.497,-4.497,-4.497,-3.8858,-1.4522,-0.4271,0.0,0.0,0.0,0.0,0.0,0.0,0.0,0.0,0.0,0.0,0.0,0.0,0.0,0.0,0.0,0.0,0.0,0.0,0.0,0.0,0.0,0.0,0.0,0.0,0.0,0.0,0.0,0.0,0.0,0.0,0.0,0.0,0.0,0.0,0.0,0.0,0.0,0.0,0.0,0.0,0.0,0.0,0.0,0.0,0.0,0.0,0.0,0.0,-3.5947,-3.8094,0.0,-3.99,-4.4269,-4.4859,-4.4859,-4.4859,-4.6831,-4.8198,-4.8198,-4.8198,-4.9052,-5.1357,-5.1577,-5.1577,-5.1577,-5.1577,-5.1577,-5.1577,-4.7842,-4.5851,-4.5851,-4.1974,-3.9978,-3.9978,-3.9978,-3.9978,-3.9978,-3.9978,-3.9978,-3.9997,-3.9997,-3.9997,-4.0187,-4.3528,-4.497,-4.497,-4.497,-4.497,-4.497,-4.497,-4.497,-4.497,-4.497,-4.497,-4.497,-4.497,-4.497,-4.497,-4.497,-4.497,-4.497,-4.497,-4.497,-4.497,-4.497,-4.497,-4.497,-4.497,-4.497,-3.7377,-0.7176,0.0,0.0,0.0,0.0,0.0,0.0,0.0,0.0,0.0,0.0,0.0,0.0,0.0,0.0,0.0,0.0,0.0,0.0,0.0,0.0,0.0,0.0,0.0,0.0,0.0,0.0,0.0,0.0,0.0,0.0,0.0,0.0,0.0,0.0,0.0,0.0,0.0,0.0,0.0,0.0,0.0,0.0,0.0,0.0,0.0,0.0,0.0,0.0,0.0,0.0,0.0,0.0,0.0,-4.4269,-4.4859,-4.4859,-4.4859,-4.4859,-4.4859,-4.4859,-4.4859,-4.6343,-4.9833,-5.0174,-5.0174,-5.0174,-5.1088,-5.1577,-5.1577,-4.5544,-4.4418,-4.9132,-4.3277,-3.9978,-3.9978,-3.9978,-3.9978,-3.9978,0.0,0.0,-3.5972,-3.5972,-3.5612,-3.5308,-4.0718,-4.3053,-4.3053,-4.3053,-4.3053,-4.311,-4.3755,-4.4021,-4.4021,-4.4021,-4.4021,-4.4021,-4.4021,-4.4021,-4.3907,-4.3262,-4.3053,-4.3281,-4.4591,-4.497,0.0,-4.497,-4.497,-4.497,-4.497,-4.497,-3.7377,-0.7176,0.0,0.0,0.0,0.0,0.0,0.0,0.0,0.0,0.0,0.0,0.0,0.0,0.0,0.0,0.0,0.0,0.0,0.0,0.0,0.0,0.0,0.0,0.0,0.0,0.0,0.0,0.0,0.0,0.0,0.0,0.0,0.0,0.0,0.0,0.0,0.0,0.0,0.0,0.0,0.0,0.0,0.0,0.0,0.0,0.0,0.0,0.0,0.0,0.0,0.0,0.0,0.0,0.0,0.0,-4.4859,-4.4859,-4.4859,-4.4859,-4.4859,-4.4859,-4.4859,-4.5054,-4.566,-4.5708,-4.5708,-4.5708,-4.9271,-5.1577,-5.1577,-5.0699,0.0,0.0,0.0,-3.9978,-3.9978,-3.9978,-3.9978,-3.9978,-3.9978,-3.9788,-3.9408,-3.9408,-3.7814,-3.5061,-3.5802,-3.6124,-3.6124,-3.6124,-3.6124,-3.6428,-3.9389,-4.0547,-4.0547,-4.0547,-4.0547,-4.0547,-4.0547,0.0,0.0,-3.7092,-3.6124,-3.7244,-4.3167,-4.497,-4.497,-4.497,-4.497,-4.497,-4.497,-4.497,-3.7377,-0.7176,0.0,0.0,0.0,0.0,0.0,0.0,0.0,0.0,0.0,0.0,0.0,0.0,0.0,0.0,0.0,0.0,0.0,0.0,0.0,0.0,0.0,0.0,0.0,0.0,0.0,0.0,0.0,0.0,0.0,0.0,0.0,0.0,0.0,0.0,0.0,0.0,0.0,0.0,0.0,0.0,0.0,0.0,0.0,0.0,0.0,0.0,0.0,0.0,0.0,0.0,0.0,0.0,0.0,0.0,-4.3317,-4.4859,-4.4859,-4.4859,-4.4859,-4.4859,-4.4859,-4.4859,-4.4859,-4.4859,-4.4859,-4.4859,-4.6636,-4.7661,-4.7661,-5.0052,-4.9999,-4.6841,-4.67,-4.67,-4.67,-4.2269,-3.9978,-3.9978,-3.9978,-3.9978,-3.9978,-3.9978,-3.9218,-3.789,-3.789,-3.789,-3.789,-3.789,-3.789,0.0,0.0,0.0,0.0,0.0,-3.9978,-3.9978,-3.9978,-3.9978,-3.975,-3.8345,-3.789,-3.8061,-3.8915,-4.0547,-4.2085,-4.2085,-4.2085,-4.2085,-4.2085,-4.3528,-3.7377,-0.7176,0.0,0.0,0.0,0.0,0.0,0.0,0.0,0.0,0.0,0.0,0.0,0.0,0.0,0.0,0.0,0.0,0.0,0.0,0.0,0.0,0.0,0.0,0.0,0.0,0.0,0.0,0.0,0.0,0.0,0.0,0.0,0.0,0.0,0.0,0.0,0.0,0.0,0.0,0.0,0.0,0.0,0.0,0.0,0.0,0.0,0.0,0.0,0.0,0.0,0.0,0.0,0.0,0.0,0.0,-3.9388,-4.133,-4.133,-4.335,-4.4859,-4.4859,-4.4859,-4.4859,-4.4859,-4.4859,-4.4859,-4.4859,-4.4859,-4.4859,-4.4859,-4.7954,-4.9662,-4.9662,-4.9662,-4.9662,-4.9662,-4.3337,-3.9978,-3.9978,-3.9978,-3.9978,-3.9978,-3.9978,-3.9978,-3.9978,-3.9978,-3.9978,-3.9978,-3.9978,-3.9978,-3.9883,-3.8972,-3.8611,-3.8611,-3.8611,-3.8611,-3.8744,-3.9655,-3.9978,-3.9978,-3.9978,-3.9978,-3.9522,-3.7111,-3.8061,-3.9978,-3.9978,-3.9978,-3.9978,-3.9978,-4.1781,-3.6219,-0.6948,0.0,0.0,0.0,0.0,0.0,0.0,0.0,0.0,0.0,0.0,0.0,0.0,0.0,0.0,0.0,0.0,0.0,0.0,0.0,0.0,0.0,0.0,0.0,0.0,0.0,0.0,0.0,0.0,0.0,0.0,0.0,0.0,0.0,0.0,0.0,0.0,0.0,0.0,0.0,0.0,0.0,0.0,0.0,0.0,0.0,0.0,0.0,0.0,0.0,0.0,0.0,0.0,0.0,0.0,0.0,0.0,-3.2506,-3.9705,-4.4859,-4.4859,-4.4859,-4.4859,-4.4859,-4.4859,-4.4859,-4.4859,-4.4859,-4.4859,-4.4859,-4.4981,-4.5171,-4.5171,-4.5171,-4.5171,-4.5171,-4.1784,-3.9978,-3.9978,-3.9978,-3.9978,-3.9978,-3.9978,-3.9978,-3.9978,-3.9978,-3.9978,-3.9978,-3.9978,-3.9978,-3.9655,-3.6428,-3.5156,-3.5156,-3.5156,-3.5156,-3.5631,-3.8858,-3.9978,-3.9978,-3.9978,-3.9978,-3.9959,-3.9845,-3.9902,-3.9978,-3.9978,-3.9978,-3.9978,-3.9978,-4.0054,-3.3353,-0.6397,0.0,0.0,0.0,0.0,0.0,0.0,0.0,0.0,0.0,0.0,0.0,0.0,0.0,0.0,0.0,0.0,0.0,0.0,0.0,0.0,0.0,0.0,0.0,0.0,0.0,0.0,0.0,0.0,0.0,0.0,0.0,0.0,0.0,0.0,0.0,0.0,0.0,0.0,0.0,0.0,0.0,0.0,0.0,0.0,0.0,0.0,0.0,0.0,0.0,0.0,0.0,0.0,0.0,0.0,0.0,0.0,0.0,-3.4629,-3.7509,-4.034,-4.0681,-4.0681,-4.0681,-4.3292,-4.4859,-4.4859,-4.4859,-4.4859,-4.4859,-4.4859,-4.4859,-4.4859,-4.4859,-4.4859,-4.4859,-4.382,-4.3215,-4.3215,-3.8789,-3.6675,-3.6675,-3.6675,-3.6675,-3.6675,-3.6675,-3.6675,-3.6675,-3.6675,-3.6675,-3.658,-3.5441,-3.5004,-3.5004,-3.5004,-3.5004,-3.5156,-3.6295,-3.6675,-3.6675,-3.6675,-3.6675,-3.6675,-3.6675,-3.6675,-3.6675,-3.6675,-3.6675,-3.6675,-3.6675,-2.5133,-1.12,-0.2145,0.0,0.0,0.0,0.0,0.0,0.0,0.0,0.0,0.0,0.0,0.0,0.0,0.0,0.0,0.0,0.0,0.0,0.0,0.0,0.0,0.0,0.0,0.0,0.0,0.0,0.0,0.0,0.0,0.0,0.0,0.0,0.0,0.0,0.0,0.0,0.0,0.0,0.0,0.0,0.0,0.0,0.0,0.0,0.0,0.0,0.0,0.0,0.0,0.0,0.0,0.0,0.0,0.0,0.0,0.0,0.0,0.0,0.0,0.0,-3.7997,-3.7143,0.0,-3.6215,-3.8753,-4.0388,-4.0388,-4.1804,-4.3341,-4.4762,-4.4859,-4.4859,-4.4859,-4.4859,-4.4859,-4.4859,-4.4859,-4.3725,-4.1362,-3.6998,-3.5004,-3.5004,-3.5004,-3.5004,-3.5004,-3.5004,-3.5004,-3.5004,-3.5004,-3.5004,-3.5004,-3.5004,-3.5004,-3.5004,-3.5004,-3.5004,-3.5004,-3.5004,-3.5004,-3.5004,-3.5004,-3.5004,-3.5004,-3.5004,-3.5004,-3.4758,-3.3543,-3.3201,-3.3486,-3.4701,-1.7597,0.0,0.0,0.0,0.0,0.0,0.0,0.0,0.0,0.0,0.0,0.0,0.0,0.0,0.0,0.0,0.0,0.0,0.0,0.0,0.0,0.0,0.0,0.0,0.0,0.0,0.0,0.0,0.0,0.0,0.0,0.0,0.0,0.0,0.0,0.0,0.0,0.0,0.0,0.0,0.0,0.0,0.0,0.0,0.0,0.0,0.0,0.0,0.0,0.0,0.0,0.0,0.0,0.0,0.0,0.0,0.0,0.0,0.0,0.0,0.0,0.0,-3.7997,-3.4897,0.0,0.0,0.0,0.0,-3.2115,-3.5874,-3.9973,-4.3983,-4.4202,-4.4397,-4.4835,-4.4859,-4.4859,-4.4859,-4.4859,-4.1607,-3.5004,-3.5004,-3.5004,-3.5004,-3.5004,-3.5004,-3.5004,-3.5004,-3.5004,-3.5004,-3.5004,-3.4909,-3.4758,-3.4758,-3.4758,-3.4758,-3.4758,-3.4758,-3.4758,-3.4758,-3.4758,-3.4777,-3.4947,-3.5004,-3.5004,-3.5004,-3.489,0.0,0.0,-3.0088,-3.0904,-3.396,-1.7464,0.0,0.0,0.0,0.0,0.0,0.0,0.0,0.0,0.0,0.0,0.0,0.0,0.0,0.0,0.0,0.0,0.0,0.0,0.0,0.0,0.0,0.0,0.0,0.0,0.0,0.0,0.0,0.0,0.0,0.0,0.0,0.0,0.0,0.0,0.0,0.0,0.0,0.0,0.0,0.0,0.0,0.0,0.0,0.0,0.0,0.0,0.0,0.0,0.0,0.0,0.0,0.0,0.0,0.0,0.0,0.0,0.0,0.0,0.0,-3.0012,-3.3702,-3.7997,-3.7533,-3.5605,0.0,0.0,0.0,0.0,0.0,0.0,-3.5337,-3.541,-3.8239,-4.4664,-4.4859,-4.4859,-4.4859,-4.4859,-4.1607,-3.5004,-3.5004,-3.5004,-3.5004,-3.5004,-3.5004,-3.5004,-3.5004,-3.5004,-3.5004,-3.5004,-3.3524,-3.1246,-3.1246,-3.1246,-3.1246,-3.1246,-3.1246,-3.1246,-3.1246,-3.1246,-3.1663,-3.4188,-3.5004,-3.5004,-3.5004,0.0,0.0,0.0,0.0,-3.3334,-3.1682,-1.5699,0.0,0.0,0.0,0.0,0.0,0.0,0.0,0.0,0.0,0.0,0.0,0.0,0.0,0.0,0.0,0.0,0.0,0.0,0.0,0.0,0.0,0.0,0.0,0.0,0.0,0.0,0.0,0.0,0.0,0.0,0.0,0.0,0.0,0.0,0.0,0.0,0.0,0.0,0.0,0.0,0.0,0.0,0.0,0.0,0.0,0.0,0.0,0.0,0.0,0.0,0.0,0.0,0.0,0.0,0.0,0.0,0.0,0.0,0.0,-3.0338,-3.1603,-3.0236,-3.1749,-3.1969,0.0,0.0,0.0,0.0,0.0,0.0,0.0,0.0,0.0,-3.9091,-3.9237,-4.0137,-4.2121,-4.4025,-4.1607,-3.5004,-3.8005,-3.775,-3.5004,-3.5004,-3.5004,-3.5004,-3.5004,-3.5004,-3.489,-3.341,-3.1682,-2.9955,0.0,0.0,0.0,0.0,-2.9955,-2.9955,-2.9955,-3.0942,-3.2233,-3.2669,0.0,0.0,0.0,0.0,0.0,0.0,0.0,0.0,0.0,0.0,0.0,0.0,0.0,0.0,0.0,0.0,0.0,0.0,0.0,0.0,0.0,0.0,0.0,0.0,0.0,0.0,0.0,0.0,0.0,0.0,0.0,0.0,0.0,0.0,0.0,0.0,0.0,0.0,0.0,0.0,0.0,0.0,0.0,0.0,0.0,0.0,0.0,0.0,0.0,0.0,0.0,0.0,0.0,0.0,0.0,0.0,0.0,0.0,0.0,0.0,0.0,0.0,0.0,0.0,0.0,0.0,0.0,0.0,0.0,0.0,-2.909,-2.1638,0.0,0.0,0.0,0.0,0.0,0.0,0.0,0.0,0.0,0.0,0.0,0.0,0.0,-3.3897,-3.7606,-4.1389,-4.0279,-3.4649,-4.0396,-4.0825,-3.626,-3.5381,-3.5004,-3.4947,-3.4677,0.0,-3.427,-3.0257,0.0,0.0,0.0,0.0,0.0,0.0,0.0,0.0,0.0,0.0,0.0,0.0,0.0,0.0,0.0,0.0,0.0,0.0,0.0,0.0,0.0,0.0,0.0,0.0,0.0,0.0,0.0,0.0,0.0,0.0,0.0,0.0,0.0,0.0,0.0,0.0,0.0,0.0,0.0,0.0,0.0,0.0,0.0,0.0,0.0,0.0,0.0,0.0,0.0,0.0,0.0,0.0,0.0,0.0,0.0,0.0,0.0,0.0,0.0,0.0,0.0,0.0,0.0,0.0,0.0,0.0,0.0,0.0,0.0,0.0,0.0,0.0,0.0,0.0,0.0,0.0,0.0,0.0,0.0,0.0,0.0,0.0,0.0,0.0,0.0,0.0,0.0,0.0,0.0,0.0,0.0,0.0,0.0,0.0,0.0,0.0,0.0,0.0,0.0,0.0,0.0,0.0,-3.3774,-3.7449,-4.2985,-3.7514,-3.5004,-3.4943,-3.3296,-3.2541,-3.2034,-2.4764,0.0,0.0,0.0,0.0,0.0,0.0,0.0,0.0,0.0,0.0,0.0,0.0,0.0,0.0,0.0,0.0,0.0,0.0,0.0,0.0,0.0,0.0,0.0,0.0,0.0,0.0,0.0,0.0,0.0,0.0,0.0,0.0,0.0,0.0,0.0,0.0,0.0,0.0,0.0,0.0,0.0,0.0,0.0,0.0,0.0,0.0,0.0,0.0,0.0,0.0,0.0,0.0,0.0,0.0,0.0,0.0,0.0,0.0,0.0,0.0,0.0,0.0,0.0,0.0,0.0,0.0,0.0,0.0,0.0,0.0,0.0,0.0,0.0,0.0,0.0,0.0,0.0,0.0,0.0,0.0,0.0,0.0,0.0,0.0,0.0,0.0,0.0,0.0,0.0,0.0,0.0,0.0,0.0,0.0,0.0,0.0,0.0,0.0,0.0,0.0,0.0,0.0,0.0,0.0,0.0,0.0,0.0,0.0,0.0,-3.1788,0.0,0.0,0.0,0.0,0.0,0.0,0.0,0.0,0.0,0.0,0.0,0.0,0.0,0.0,0.0,0.0,0.0,0.0,0.0,0.0,0.0,0.0,0.0,0.0,0.0,0.0,0.0,0.0,0.0,0.0,0.0,0.0,0.0,0.0,0.0,0.0,0.0,0.0,0.0,0.0,0.0,0.0,0.0,0.0,0.0,0.0,0.0,0.0,0.0,0.0,0.0,0.0,0.0,0.0,0.0,0.0,0.0,0.0,0.0,0.0,0.0,0.0,0.0,0.0,0.0,0.0,0.0,0.0,0.0,0.0,0.0,0.0,0.0,0.0,0.0,0.0,0.0,0.0,0.0,0.0,0.0,0.0,0.0,0.0,0.0,0.0,0.0,0.0,0.0,0.0,0.0,0.0,0.0,0.0,0.0,0.0,0.0,0.0,0.0,0.0,0.0,0.0,0.0,0.0,0.0,0.0,0.0,0.0,0.0,0.0,-3.1452,0.0,0.0,0.0,0.0,0.0,0.0,0.0,0.0,0.0,0.0,0.0,0.0,0.0,0.0,0.0,0.0,0.0,0.0,0.0,0.0,0.0,0.0,0.0,0.0,0.0,0.0,0.0,0.0,0.0,0.0,0.0,0.0,0.0,0.0,0.0,0.0,0.0,0.0,0.0,0.0,0.0,0.0,0.0,0.0,0.0,0.0,0.0,0.0,0.0,0.0,0.0,0.0,0.0,0.0,0.0,0.0,0.0,0.0,0.0,0.0,0.0,0.0,0.0,0.0,0.0,0.0,0.0,0.0,0.0,0.0,0.0,0.0,0.0,0.0,0.0,0.0,0.0,0.0,0.0,0.0,0.0,0.0,0.0,0.0,0.0,0.0,0.0,0.0,0.0,0.0,0.0,0.0,0.0,0.0,0.0,0.0,0.0,0.0,0.0,0.0,0.0,0.0,0.0,0.0,0.0,0.0,0.0,0.0,0.0,0.0,0.0,0.0,0.0,0.0,0.0,0.0,0.0,0.0,0.0,0.0,0.0,0.0,0.0,0.0,0.0,0.0,0.0,0.0,0.0,0.0,0.0,0.0,0.0,0.0,0.0,0.0,0.0,0.0,0.0,0.0,0.0,0.0,0.0,0.0,0.0,0.0,0.0,0.0,0.0,0.0,0.0,0.0,0.0,0.0,0.0,0.0,0.0,0.0,0.0,0.0,0.0,0.0,0.0,0.0,0.0,0.0,0.0,0.0,0.0,0.0,0.0,0.0,0.0,0.0,0.0,0.0,0.0,0.0,0.0,0.0,0.0,0.0,0.0,0.0,0.0,0.0,0.0,0.0,0.0,0.0,0.0,0.0,0.0,0.0,0.0,0.0,0.0,0.0,0.0,0.0,0.0,0.0,0.0,0.0,0.0,0.0,0.0,0.0,0.0,0.0,0.0,0.0,0.0,0.0,0.0,0.0,0.0,0.0,0.0,0.0,0.0,0.0,0.0,0.0,0.0,0.0,0.0,0.0,0.0,0.0,0.0,0.0,0.0,0.0,0.0,0.0,0.0,0.0,0.0,0.0,0.0,0.0,0.0,0.0,0.0,0.0,0.0,0.0,0.0,0.0,0.0,0.0,0.0,0.0,0.0,0.0,0.0,0.0,0.0,0.0,0.0,0.0,0.0,0.0,0.0,0.0,0.0,0.0,0.0,0.0,0.0,0.0,0.0,0.0,0.0,0.0,0.0,0.0,0.0,0.0,0.0,0.0,0.0,0.0,0.0,0.0,0.0,0.0,0.0,0.0,0.0,0.0,0.0,0.0,0.0,0.0,0.0,0.0,0.0,0.0,0.0,0.0,0.0,0.0,0.0,0.0,0.0,0.0,0.0,0.0,0.0,0.0,0.0,0.0,0.0,0.0,0.0,0.0,0.0,0.0,0.0,0.0,0.0,0.0,0.0,0.0,0.0,0.0,0.0,0.0,0.0,0.0,0.0,0.0,0.0,0.0,0.0,0.0,0.0,0.0,0.0,0.0,0.0,0.0,0.0,0.0,0.0,0.0,0.0,0.0,0.0,0.0,0.0,0.0,0.0,0.0,0.0,0.0,0.0,0.0,0.0,0.0,0.0,0.0,0.0,0.0,0.0,0.0,0.0,0.0,0.0,0.0,0.0,0.0,0.0,0.0,0.0,0.0,0.0,0.0,0.0,0.0,0.0,0.0,0.0,0.0,0.0,0.0,0.0,0.0,0.0,0.0,0.0,0.0,0.0,0.0,0.0,0.0,0.0,0.0,0.0,0.0,0.0,0.0,0.0,0.0,0.0,0.0,0.0,0.0,0.0,0.0,0.0,0.0,0.0,0.0,0.0,0.0,0.0,0.0,0.0,0.0,0.0,0.0,0.0,0.0,0.0,0.0,0.0,0.0,0.0,0.0,0.0,0.0,0.0,0.0,0.0,0.0,0.0,0.0,0.0,0.0,0.0,0.0,0.0,0.0,0.0,0.0,0.0,0.0,0.0,0.0,0.0,0.0,0.0,0.0,0.0,0.0,0.0,0.0,0.0,0.0,0.0,0.0,0.0,0.0,0.0,0.0,0.0,0.0,0.0,0.0,0.0,0.0,0.0,0.0,0.0,0.0,0.0,0.0,0.0,0.0,0.0,0.0,0.0,0.0,0.0,0.0,0.0,0.0,0.0,0.0,0.0,0.0,0.0,0.0,0.0,0.0,0.0,0.0,0.0,0.0,0.0,0.0,0.0,0.0,0.0,0.0,0.0,0.0,0.0,0.0,0.0,0.0,0.0,0.0,0.0,0.0,0.0,0.0,0.0,0.0,0.0,0.0,0.0,0.0,0.0,0.0,0.0,0.0,0.0,0.0,0.0,0.0,0.0,0.0,0.0,0.0,0.0,0.0,0.0,0.0,0.0,0.0,0.0,0.0,0.0,0.0,0.0,0.0,0.0,0.0,0.0,0.0,0.0,0.0,0.0,0.0,0.0,0.0,0.0,0.0,0.0,0.0,0.0,0.0,0.0,0.0,0.0,0.0,0.0,0.0,0.0,0.0,0.0,0.0,0.0,0.0,0.0,0.0,0.0,0.0,0.0,0.0,0.0,0.0,0.0,0.0,0.0,0.0,0.0,0.0,0.0,0.0,0.0,0.0,0.0,0.0,0.0,0.0,0.0,0.0,0.0,0.0,0.0,0.0,0.0,0.0,0.0,0.0,0.0,0.0,0.0,0.0,0.0,0.0,0.0,0.0,0.0,0.0,0.0,0.0,0.0,0.0,0.0,0.0,0.0,0.0,0.0,0.0,0.0,0.0,0.0,0.0,0.0,0.0,0.0,0.0,0.0,0.0,0.0,0.0,0.0,0.0,0.0,0.0,0.0,0.0,0.0,0.0,0.0,0.0,0.0,0.0,0.0,0.0,0.0,0.0,0.0,0.0,0.0,0.0,0.0,0.0,0.0,0.0,0.0,0.0,0.0,0.0,0.0,0.0,0.0,0.0,0.0,0.0,0.0,0.0,0.0,0.0,0.0,0.0,0.0,0.0,0.0,0.0,0.0,0.0,0.0,0.0,0.0,0.0,0.0,0.0,0.0,0.0,0.0,0.0,0.0,0.0,0.0,0.0,0.0,0.0,0.0,0.0,0.0,0.0,0.0,0.0,0.0,0.0,0.0,0.0,0.0,0.0,0.0,0.0,0.0,0.0,0.0,0.0,0.0,0.0,0.0,0.0,0.0,0.0,0.0,0.0,0.0,0.0,0.0,0.0,0.0,0.0,0.0,0.0,0.0,0.0,0.0,0.0,0.0,0.0,0.0,0.0,0.0,0.0,0.0,0.0,0.0,0.0,0.0,0.0,0.0,0.0,0.0,0.0,0.0,0.0,0.0,0.0,0.0,0.0,0.0,0.0,0.0,0.0,0.0,0.0,0.0,0.0,0.0,0.0,0.0,0.0,0.0,0.0,0.0,0.0,0.0,0.0,0.0,0.0,0.0,0.0,0.0,0.0,0.0,0.0,0.0,0.0,0.0,0.0,0.0,0.0,0.0,0.0,0.0,0.0,0.0,0.0,0.0,0.0,0.0,0.0,0.0,0.0,0.0,0.0,0.0,0.0,0.0,0.0,0.0,0.0,0.0,0.0,0.0,0.0,0.0,0.0,0.0,0.0,0.0,0.0,0.0,0.0,0.0,0.0,0.0,0.0,0.0,0.0,0.0,0.0,0.0,0.0,0.0,0.0,0.0,0.0,0.0,0.0,0.0,0.0,0.0,0.0,0.0,0.0,0.0,0.0,0.0,0.0,0.0,0.0,0.0,0.0,0.0,0.0,0.0,0.0,0.0,0.0,0.0,0.0,0.0,0.0,0.0,0.0,0.0,0.0,0.0,0.0,0.0,0.0,0.0,0.0,0.0,0.0,0.0,0.0,0.0,0.0,0.0,0.0,0.0,0.0,0.0,0.0,0.0,0.0,0.0,0.0,0.0,0.0,0.0,0.0,0.0,0.0,0.0,0.0,0.0,0.0,0.0,0.0,0.0,0.0,0.0,0.0,0.0,0.0,0.0,0.0,0.0,0.0,0.0,0.0,0.0,0.0,0.0,0.0,0.0,0.0,0.0,0.0,0.0,0.0,0.0,0.0,0.0,0.0,0.0,0.0,0.0,0.0,0.0,0.0,0.0,0.0,0.0,0.0,0.0,0.0,0.0,0.0,0.0,0.0,0.0,0.0,0.0,0.0,0.0,0.0,0.0,0.0,0.0,0.0,0.0,0.0,0.0,0.0,0.0,0.0,0.0,0.0,0.0,0.0,0.0,0.0,0.0,0.0,0.0,0.0,0.0,0.0,0.0,0.0,0.0,0.0,0.0,0.0,0.0,0.0,0.0,0.0,0.0,0.0,0.0,0.0,0.0,0.0,0.0,0.0,0.0,0.0,0.0,0.0,0.0,0.0,0.0,0.0,0.0,0.0,0.0,0.0,0.0,0.0,0.0,0.0,0.0,0.0,0.0,0.0,0.0,0.0,0.0,0.0,0.0,0.0,0.0,0.0,0.0,0.0,0.0,0.0,0.0,0.0,0.0,0.0,0.0,0.0,0.0,0.0,0.0,0.0,0.0,0.0,0.0,0.0,0.0,0.0,0.0,0.0,0.0,0.0,0.0,0.0,0.0,0.0,0.0,0.0,0.0,0.0,0.0,0.0,0.0,0.0,0.0,0.0,0.0,0.0,0.0,0.0,0.0,0.0,0.0,0.0,0.0,0.0,0.0,0.0,0.0,0.0,0.0,0.0,0.0,0.0,0.0,0.0,0.0,0.0,0.0,0.0,0.0,0.0,0.0,0.0,0.0,0.0,0.0,0.0,0.0,0.0,0.0,0.0,0.0,0.0,0.0,0.0,0.0,0.0,0.0,0.0,0.0,0.0,0.0,0.0,0.0,0.0,0.0,0.0,0.0,0.0,0.0,0.0,0.0,0.0,0.0,0.0,0.0,0.0,0.0,0.0,0.0,0.0,0.0,0.0,0.0,0.0,0.0,0.0,0.0,0.0,0.0,0.0,0.0,0.0,0.0,0.0,0.0,0.0,0.0,0.0,0.0,0.0,0.0,0.0,0.0,0.0,0.0,0.0,0.0,0.0,0.0,0.0,0.0,0.0,0.0,0.0,0.0,0.0,0.0,0.0,0.0,0.0,0.0,0.0,0.0,0.0,0.0,0.0,0.0,0.0,0.0,0.0,0.0,0.0,0.0,0.0,0.0,0.0,0.0,0.0,0.0,0.0,0.0,0.0,0.0,0.0,0.0,0.0,0.0,0.0,0.0,0.0,0.0,0.0,0.0,0.0,0.0,0.0,0.0,0.0,0.0,0.0,0.0,0.0,0.0,0.0,0.0,0.0,0.0,0.0,0.0,0.0,0.0,0.0,0.0,0.0,0.0,0.0,0.0,0.0,0.0,0.0,0.0,0.0,0.0,0.0,0.0,0.0,0.0,0.0,0.0,0.0,0.0,0.0,0.0,0.0,0.0,0.0,0.0,0.0,0.0,0.0,0.0,0.0,0.0,0.0,0.0,0.0,0.0,0.0,0.0,0.0,0.0,0.0,0.0,0.0,0.0,0.0,0.0,0.0,0.0,0.0,0.0,0.0,0.0,0.0,0.0,0.0,0.0,0.0,0.0,0.0,0.0,0.0,0.0,0.0,0.0,0.0,0.0,0.0,0.0,0.0,0.0,0.0,0.0,0.0,0.0,0.0,0.0,0.0,0.0,0.0,0.0]}]]]